[[{"header":{"parameterUnit":"m.s-1","parameterCategory":1,"la1":31.0,"la2":29.5877,"lo1":-88.7671,"lo2":-86.6584,"dx":0.0162,"dy":0.0185,"nx":115,"ny":88,"refTime":"2022-11-27T18:00:00:Z","depth":0,"parameterNumber":2,"parameterNumberName":"U-component_of_WINDS"},"data":[0.0,0.0,0.0,0.0,0.0,0.0,0.0,0.0,0.0,0.0,0.0,0.0,0.0,0.0,0.0,0.0,0.0,0.0,0.0,0.0,0.0,0.0,0.0,0.0,0.0,0.0,0.0,0.0,0.0,0.0,0.0,0.0,0.0,0.0,0.0,0.0,0.0,0.0,0.0,0.0,0.0,0.0,0.0,0.0,0.0,0.0,0.0,0.0,0.0,0.0,0.0,0.0,0.0,0.0,0.0,0.0,0.0,0.0,0.0,0.0,0.0,0.0,0.0,0.0,0.0,0.0,0.0,0.0,0.0,0.0,0.0,0.0,0.0,0.0,0.0,0.0,0.0,0.0,0.0,0.0,0.0,0.0,0.0,0.0,0.0,0.0,0.0,0.0,0.0,0.0,0.0,0.0,0.0,0.0,0.0,0.0,0.0,0.0,0.0,0.0,0.0,0.0,0.0,0.0,0.0,0.0,0.0,0.0,0.0,0.0,0.0,0.0,0.0,0.0,0.0,0.0,0.0,0.0,0.0,0.0,0.0,0.0,0.0,0.0,0.0,0.0,0.0,0.0,0.0,0.0,0.0,0.0,0.0,0.0,0.0,0.0,0.0,0.0,0.0,0.0,0.0,0.0,0.0,0.0,0.0,0.0,0.0,0.0,0.0,0.0,0.0,0.0,0.0,0.0,0.0,0.0,0.0,0.0,0.0,0.0,0.0,0.0,0.0,0.0,0.0,0.0,0.0,0.0,0.0,0.0,0.0,0.0,0.0,0.0,0.0,0.0,0.0,0.0,0.0,0.0,0.0,0.0,0.0,0.0,0.0,0.0,0.0,0.0,0.0,0.0,0.0,0.0,0.0,0.0,0.0,0.0,0.0,0.0,0.0,0.0,0.0,0.0,0.0,0.0,0.0,0.0,0.0,0.0,0.0,0.0,0.0,0.0,0.0,0.0,0.0,0.0,0.0,0.0,0.0,0.0,0.0,0.0,0.0,0.0,0.0,0.0,0.0,0.0,0.0,0.0,0.0,0.0,0.0,0.0,0.0,0.0,0.0,0.0,0.0,0.0,0.0,0.0,0.0,0.0,0.0,0.0,0.0,0.0,0.0,0.0,0.0,0.0,0.0,0.0,0.0,0.0,0.0,0.0,0.0,0.0,0.0,0.0,0.0,0.0,0.0,0.0,0.0,0.0,0.0,0.0,0.0,0.0,0.0,0.0,0.0,0.0,0.0,0.0,0.0,0.0,0.0,0.0,0.0,0.0,0.0,0.0,0.0,0.0,0.0,0.0,0.0,0.0,0.0,0.0,0.0,0.0,0.0,0.0,0.0,0.0,0.0,0.0,0.0,0.0,0.0,0.0,0.0,0.0,0.0,0.0,0.0,0.0,0.0,0.0,0.0,0.0,0.0,0.0,0.0,0.0,0.0,0.0,0.0,0.0,0.0,0.0,0.0,0.0,0.0,0.0,0.0,0.0,0.0,0.0,0.0,0.0,0.0,0.0,0.0,0.0,0.0,0.0,0.0,0.0,0.0,0.0,0.0,0.0,0.0,0.0,0.0,0.0,0.0,0.0,0.0,0.0,0.0,0.0,0.0,0.0,0.0,0.0,0.0,0.0,0.0,0.0,0.0,0.0,0.0,0.0,0.0,0.0,0.0,0.0,0.0,0.0,0.0,0.0,0.0,0.0,0.0,0.0,0.0,0.0,0.0,0.0,0.0,0.0,0.0,0.0,0.0,0.0,0.0,0.0,0.0,0.0,0.0,0.0,0.0,0.0,0.0,0.0,0.0,0.0,0.0,0.0,0.0,0.0,0.0,0.0,0.0,0.0,0.0,0.0,0.0,0.0,0.0,0.0,0.0,0.0,0.0,0.0,0.0,0.0,0.0,0.0,0.0,0.0,0.0,0.0,0.0,0.0,0.0,0.0,0.0,0.0,0.0,0.0,0.0,0.0,0.0,0.0,0.0,0.0,0.0,0.0,0.0,0.0,0.0,0.0,0.0,0.0,0.0,0.0,0.0,0.0,0.0,0.0,0.0,0.0,0.0,0.0,0.0,0.0,0.0,0.0,0.0,0.0,0.0,0.0,0.0,0.0,0.0,0.0,0.0,0.0,0.0,0.0,0.0,0.0,0.0,0.0,0.0,0.0,0.0,0.0,0.0,0.0,0.0,0.0,0.0,0.0,0.0,0.0,0.0,0.0,0.0,0.0,0.0,0.0,0.0,0.0,0.0,0.0,0.0,0.0,0.0,0.0,0.0,0.0,0.0,0.0,0.0,0.0,0.0,0.0,0.0,0.0,0.0,0.0,0.0,0.0,0.0,0.0,0.0,0.0,0.0,0.0,0.0,0.0,0.0,0.0,0.0,0.0,0.0,0.0,0.0,0.0,0.0,0.0,0.0,0.0,0.0,0.0,0.0,0.0,0.0,0.0,0.0,0.0,0.0,0.0,0.0,0.0,0.0,0.0,0.0,0.0,0.0,0.0,0.0,0.0,0.0,0.0,0.0,0.0,0.0,0.0,0.0,0.0,0.0,0.0,0.0,0.0,0.0,0.0,0.0,0.0,0.0,0.0,0.0,0.0,0.0,0.0,0.0,0.0,0.0,0.0,0.0,0.0,0.0,0.0,0.0,0.0,0.0,0.0,0.0,0.0,0.0,0.0,0.0,0.0,0.0,0.0,0.0,0.0,0.0,0.0,0.0,0.0,0.0,0.0,0.0,0.0,0.0,0.0,0.0,0.0,0.0,0.0,0.0,0.0,0.0,0.0,0.0,0.0,0.0,0.0,0.0,0.0,0.0,0.0,0.0,0.0,0.0,0.0,0.0,0.0,0.0,0.0,0.0,0.0,0.0,0.0,0.0,0.0,0.0,0.0,0.0,0.0,0.0,0.0,0.0,0.0,0.0,0.0,0.0,0.0,0.0,0.0,0.0,0.0,0.0,0.0,0.0,0.0,0.0,0.0,0.0,0.0,0.0,0.0,0.0,0.0,0.0,0.0,0.0,0.0,0.0,0.0,0.0,0.0,0.0,0.0,0.0,0.0,0.0,0.0,0.0,0.0,0.0,0.0,0.0,0.0,0.0,0.0,0.0,0.0,0.0,0.0,0.0,0.0,0.0,0.0,0.0,0.0,0.0,0.0,0.0,0.0,0.0,0.0,0.0,0.0,0.0,0.0,0.0,0.0,0.0,0.0,0.0,0.0,0.0,0.0,0.0,0.0,0.0,0.0,0.0,0.0,0.0,0.0,0.0,0.0,0.0,0.0,0.0,0.0,0.0,0.0,0.0,0.0,0.0,0.0,0.0,0.0,0.0,0.0,0.0,0.0,0.0,0.0,0.0,0.0,0.0,0.0,0.0,0.0,0.0,0.0,0.0,0.0,0.0,0.0,0.0,0.0,0.0,0.0,0.0,0.0,0.0,0.0,0.0,0.0,0.0,0.0,0.0,0.0,0.0,0.0,0.0,0.0,0.0,0.0,0.0,0.0,0.0,0.0,0.0,0.0,0.0,0.0,0.0,0.0,0.0,0.0,0.0,0.0,0.0,0.0,0.0,0.0,0.0,0.0,0.0,0.0,0.0,0.0,0.0,0.0,0.0,0.0,0.0,0.0,0.0,0.0,0.0,0.0,0.0,0.0,0.0,0.0,0.0,0.0,0.0,0.0,0.0,0.0,0.0,0.0,0.0,0.0,0.0,0.0,0.0,0.0,0.0,0.0,0.0,0.0,0.0,0.0,0.0,0.0,0.0,0.0,0.0,0.0,0.0,0.0,0.0,0.0,0.0,0.0,0.0,0.0,0.0,0.0,0.0,0.0,0.0,0.0,0.0,0.0,0.0,0.0,0.0,0.0,0.0,0.0,0.0,0.0,0.0,0.0,0.0,0.0,0.0,0.0,0.0,0.0,0.0,0.0,0.0,0.0,0.0,0.0,0.0,0.0,0.0,0.0,0.0,0.0,0.0,0.0,0.0,0.0,0.0,0.0,0.0,0.0,0.0,0.0,0.0,0.0,0.0,0.0,0.0,0.0,0.0,0.0,0.0,0.0,0.0,0.0,0.0,0.0,0.0,0.0,0.0,0.0,0.0,0.0,0.0,0.0,0.0,0.0,0.0,0.0,0.0,0.0,0.0,0.0,0.0,0.0,0.0,0.0,0.0,0.0,0.0,0.0,0.0,0.0,0.0,0.0,0.0,0.0,0.0,0.0,0.0,0.0,0.0,0.0,0.0,0.0,0.0,0.0,0.0,0.0,0.0,0.0,0.0,0.0,1.1679,0.0,0.0,0.0,1.1265,0.0,0.0,0.0,0.0,0.0,0.0,0.0,0.0,0.0,0.0,0.0,0.0,0.0,0.0,0.0,0.0,0.0,0.0,0.0,0.0,0.0,0.0,0.0,0.0,0.0,0.0,0.0,0.0,0.0,0.0,0.0,0.0,0.0,0.0,0.0,0.0,0.0,0.0,0.0,0.0,0.0,0.0,0.0,0.0,0.0,0.0,0.0,0.0,0.0,0.0,0.0,0.0,0.0,0.0,0.0,0.0,0.0,0.0,0.0,0.0,0.0,0.0,0.0,0.0,0.0,0.0,0.0,0.0,0.0,0.0,0.0,0.0,0.0,0.0,0.0,0.0,0.0,0.0,0.0,0.0,0.0,0.0,0.0,0.0,0.0,0.0,0.0,0.0,0.0,0.0,0.0,0.0,0.0,0.0,0.0,0.0,0.0,0.0,0.0,0.0,0.0,0.0,0.0,0.0,0.0,0.0,0.0,0.0,0.0,0.0,1.1994,1.1326,1.2472,1.2647,1.1584,0.0,0.0,0.0,0.0,0.0,0.0,0.0,0.0,0.0,0.0,0.0,0.0,0.0,0.0,0.0,0.0,0.0,0.0,0.0,0.0,0.0,0.0,0.0,0.0,0.0,0.0,0.0,0.0,0.0,0.0,0.0,0.0,0.0,0.0,0.0,0.0,0.0,0.0,0.0,0.0,0.0,0.0,0.0,0.0,0.0,0.0,0.0,0.0,0.0,0.0,0.0,0.0,0.0,0.0,0.0,0.0,0.0,0.0,0.0,0.0,0.0,0.0,0.0,0.0,0.0,0.0,0.0,0.0,0.0,0.0,0.0,0.0,0.0,0.0,0.0,0.0,0.0,0.0,0.0,0.0,0.0,0.0,0.0,0.0,0.0,0.0,0.0,0.0,0.0,0.0,0.0,0.0,0.0,0.0,0.0,0.0,0.0,0.0,0.0,0.0,0.0,0.0,0.0,0.0,0.0,0.0,0.0,0.0,0.0,0.0,0.0,0.0,1.3028,1.3235,1.2186,0.0,0.0,0.0,0.0,0.0,0.0,0.0,0.0,0.0,0.0,0.0,0.0,0.0,0.0,0.0,0.0,0.0,0.0,0.0,0.0,0.0,0.0,0.0,0.0,0.0,0.0,0.0,0.0,0.0,0.0,0.0,0.0,0.0,0.0,0.0,0.0,0.0,0.0,0.0,0.0,0.0,0.0,0.0,0.0,0.0,0.0,0.0,0.0,0.0,0.0,0.0,0.0,0.0,0.0,0.0,0.0,0.0,0.0,0.0,0.0,0.0,0.0,0.0,0.0,0.0,0.0,0.0,0.0,0.0,0.0,0.0,0.0,0.0,0.0,0.0,0.0,0.0,0.0,0.0,0.0,0.0,0.0,0.0,0.0,0.0,0.0,0.0,0.0,0.0,0.0,0.0,0.0,0.0,0.0,0.0,0.0,0.0,0.0,0.0,0.0,0.0,0.0,0.0,0.0,0.0,0.0,0.0,0.0,0.0,0.0,1.2186,1.2503,1.3505,0.0,1.263,0.0,0.0,0.0,0.0,0.0,0.0,0.0,0.0,0.0,0.0,0.0,0.0,0.0,0.0,0.0,0.0,0.0,0.0,0.0,0.0,0.0,0.0,0.0,0.0,0.0,0.0,0.0,0.0,0.0,0.0,0.0,0.0,0.0,0.0,0.0,0.0,0.0,0.0,0.0,0.0,0.0,0.0,0.0,0.0,0.0,0.0,0.0,0.0,0.0,0.0,0.0,0.0,0.0,0.0,0.0,0.0,0.0,0.0,0.0,0.0,0.0,0.0,0.0,0.0,0.0,0.0,0.0,0.0,0.0,0.0,0.0,0.0,0.0,0.0,0.0,0.0,0.0,0.0,0.0,0.0,0.0,0.0,0.0,0.0,0.0,0.0,0.0,0.0,0.0,0.0,0.0,0.0,0.0,0.0,0.0,0.0,0.0,0.0,0.0,0.0,0.0,0.0,0.0,0.0,0.0,0.0,0.0,0.0,0.0,0.0,1.333,1.349,1.3696,1.3505,0.0,0.0,0.0,0.0,0.0,0.0,0.0,0.0,0.0,0.0,0.0,0.0,0.0,0.0,0.0,0.0,0.0,0.0,0.0,0.0,0.0,0.0,0.0,0.0,0.0,0.0,0.0,0.0,0.0,0.0,0.0,0.0,0.0,0.0,0.0,0.0,0.0,0.0,0.0,0.0,0.0,0.0,0.0,0.0,0.0,0.0,0.0,0.0,0.0,0.0,0.0,0.0,0.0,0.0,0.0,0.0,0.0,0.0,0.0,0.0,0.0,0.0,0.0,0.0,0.0,0.0,0.0,0.0,0.0,0.0,0.0,0.0,0.0,0.0,0.0,0.0,0.0,0.0,0.0,0.0,0.0,0.0,0.0,0.0,0.0,0.0,0.0,0.0,0.0,0.0,0.0,0.0,0.0,0.0,0.0,0.0,0.0,0.0,0.0,0.0,0.0,0.0,0.0,0.0,0.0,0.0,0.0,0.0,0.0,0.0,1.3711,1.4377,1.4615,1.4061,1.3585,1.3235,0.0,0.0,0.0,0.0,0.0,0.0,0.0,0.0,0.0,0.0,0.0,0.0,0.0,0.0,0.0,0.0,0.0,0.0,0.0,0.0,0.0,0.0,0.0,0.0,0.0,0.0,0.0,0.0,0.0,0.0,0.0,0.0,0.0,0.0,0.0,0.0,0.0,0.0,0.0,0.0,0.0,0.0,0.0,0.0,0.0,0.0,0.0,0.0,0.0,0.0,0.0,0.0,0.0,0.0,0.0,0.0,0.0,0.0,0.0,0.0,0.0,0.0,0.0,0.0,0.0,0.0,0.0,0.0,0.0,0.0,0.0,0.0,0.0,0.0,0.0,0.0,0.0,0.0,0.0,0.0,0.0,0.0,0.0,0.0,0.0,0.0,0.0,0.0,0.0,0.0,0.0,0.0,0.0,0.0,0.0,0.0,0.0,0.0,0.0,0.0,0.0,0.0,0.0,0.0,0.0,0.0,0.0,0.0,1.4375,1.455,1.5057,1.6031,1.4808,1.3917,0.0,0.0,0.0,0.0,0.0,0.0,0.0,0.0,0.0,0.0,0.0,0.0,0.0,0.0,0.0,0.0,0.0,0.0,0.0,0.0,0.0,0.0,0.0,0.0,0.0,0.0,0.0,0.0,0.0,0.0,0.0,0.0,0.0,0.0,0.0,0.0,0.0,0.0,0.0,0.0,0.0,0.0,0.0,0.0,0.0,0.0,0.0,0.0,0.0,0.0,0.0,0.0,0.0,0.0,0.0,0.0,0.0,0.0,0.0,0.0,0.0,0.0,0.0,0.0,0.0,0.0,0.0,0.0,0.0,0.0,0.0,0.0,0.0,0.0,0.0,0.0,0.0,0.0,0.0,0.0,0.0,0.0,0.0,0.0,0.0,0.0,0.0,0.0,0.0,0.0,0.0,0.0,0.0,0.0,0.0,0.0,0.0,0.0,0.0,0.0,0.0,0.0,0.0,0.0,0.0,0.0,0.0,0.0,0.0,1.4282,1.5358,1.6138,1.6472,1.5618,1.4951,0.0,0.0,0.0,0.0,0.0,0.0,0.0,0.0,0.0,0.0,0.0,0.0,0.0,0.0,0.0,0.0,0.0,0.0,0.0,0.0,0.0,0.0,0.0,0.0,0.0,0.0,0.0,0.0,0.0,0.0,0.0,0.0,0.0,0.0,0.0,0.0,0.0,0.0,0.0,0.0,0.0,0.0,0.0,0.0,0.0,0.0,0.0,0.0,0.0,0.0,0.0,0.0,0.0,0.0,0.0,0.0,0.0,0.0,0.0,0.0,0.0,0.0,0.0,0.0,0.0,0.0,0.0,0.0,0.0,0.0,0.0,0.0,0.0,0.0,0.0,0.0,0.0,0.0,0.0,0.0,0.0,0.0,0.0,0.0,0.0,0.0,0.0,0.0,0.0,0.0,0.0,0.0,0.0,0.0,0.0,0.0,0.0,0.0,0.0,0.0,0.0,0.0,0.0,0.0,0.0,0.0,0.0,0.0,0.0,1.4932,1.598,1.6599,1.6673,1.6158,1.5605,0.0,0.0,0.0,0.0,0.0,0.0,0.0,0.0,0.0,0.0,0.0,0.0,0.0,0.0,0.0,0.0,0.0,0.0,0.0,0.0,0.0,0.0,0.0,0.0,0.0,0.0,0.0,0.0,0.0,0.0,0.0,0.0,0.0,0.0,0.0,0.0,0.0,0.0,0.0,0.0,0.0,0.0,0.0,0.0,0.0,0.0,0.0,0.0,0.0,0.0,0.0,0.0,0.0,0.0,0.0,0.0,0.0,0.0,0.0,0.0,0.0,0.0,0.0,0.0,0.0,0.0,0.0,0.0,0.0,0.0,0.0,0.0,0.0,0.0,0.0,0.0,0.0,0.0,0.0,0.0,0.0,0.0,0.0,0.0,0.0,0.0,0.0,0.0,0.0,0.0,0.0,0.0,0.0,0.0,0.0,0.0,0.0,0.0,0.0,0.0,0.0,0.0,0.0,0.0,0.0,0.0,0.0,0.0,1.4948,1.6547,1.6376,1.644,1.6694,1.6376,1.571,0.0,0.0,0.0,0.0,0.0,0.0,0.0,0.0,0.0,0.0,0.0,0.0,0.0,0.0,0.0,0.0,0.0,0.0,0.0,0.0,0.0,0.0,0.0,0.0,0.0,0.0,0.0,0.0,0.0,0.0,0.0,0.0,0.0,0.0,0.0,0.0,0.0,0.0,0.0,0.0,0.0,0.0,0.0,0.0,0.0,0.0,0.0,0.0,0.0,0.0,0.0,0.0,0.0,0.0,0.0,0.0,0.0,0.0,0.0,0.0,0.0,0.0,0.0,0.0,0.0,0.0,0.0,0.0,0.0,0.0,0.0,0.0,0.0,0.0,0.0,0.0,0.0,0.0,0.0,0.0,0.0,0.0,0.0,0.0,0.0,0.0,0.0,0.0,0.0,0.0,0.0,0.0,0.0,0.0,0.0,0.0,0.0,0.0,0.0,0.0,0.0,0.0,0.0,0.0,0.0,0.0,0.0,0.0,0.0,1.6329,1.6969,1.7223,1.7111,1.6741,1.6261,0.0,0.0,0.0,0.0,0.0,0.0,0.0,0.0,0.0,0.0,0.0,0.0,0.0,0.0,0.0,0.0,0.0,0.0,0.0,0.0,0.0,0.0,0.0,0.0,0.0,0.0,0.0,0.0,0.0,0.0,0.0,0.0,0.0,0.0,0.0,0.0,0.0,0.0,0.0,0.0,0.0,0.0,0.0,0.0,0.0,0.0,0.0,0.0,0.0,0.0,0.0,0.0,0.0,0.0,0.0,0.0,0.0,0.0,0.0,0.0,0.0,0.0,0.0,0.0,0.0,0.0,0.0,0.0,0.0,0.0,0.0,0.0,0.0,0.0,0.0,0.0,0.0,0.0,0.0,0.0,0.0,0.0,0.0,0.0,0.0,0.0,0.0,0.0,0.0,0.0,0.0,0.0,0.0,0.0,0.0,0.0,0.0,0.0,0.0,0.0,0.0,0.0,0.0,0.0,0.0,0.0,0.0,0.0,0.0,1.7191,1.7699,1.7896,1.7668,1.7302,1.6826,1.6206,0.0,0.0,0.0,0.0,0.0,0.0,0.0,0.0,0.0,0.0,0.0,0.0,0.0,0.0,0.0,0.0,0.0,0.0,0.0,0.0,0.0,0.0,0.0,0.0,0.0,0.0,0.0,0.0,0.0,0.0,0.0,0.0,0.0,0.0,0.0,0.0,0.0,0.0,0.0,0.0,0.0,0.0,0.0,0.0,0.0,0.0,0.0,0.0,0.0,0.0,0.0,0.0,0.0,0.0,0.0,0.0,0.0,0.0,0.0,0.0,0.0,0.0,0.0,0.0,0.0,0.0,0.0,0.0,0.0,0.0,0.0,0.0,0.0,0.0,0.0,0.0,0.0,0.0,0.0,0.0,0.0,0.0,0.0,0.0,0.0,0.0,0.0,0.0,0.0,0.0,0.0,0.0,0.0,0.0,0.0,0.0,0.0,0.0,0.0,0.0,0.0,0.0,0.0,0.0,0.0,0.0,0.0,0.0,1.8884,1.8589,1.8398,1.8319,1.7991,1.7323,0.0,0.0,0.0,0.0,0.0,0.0,0.0,0.0,0.0,0.0,0.0,0.0,0.0,0.0,0.0,0.0,0.0,0.0,0.0,0.0,0.0,0.0,0.0,0.0,0.0,0.0,0.0,0.0,0.0,0.0,0.0,0.0,0.0,0.0,0.0,0.0,0.0,0.0,0.0,0.0,0.0,0.0,0.0,0.0,0.0,0.0,0.0,0.0,0.0,0.0,0.0,0.0,0.0,0.0,0.0,0.0,0.0,0.0,0.0,0.0,0.0,0.0,0.0,0.0,0.0,0.0,0.0,0.0,0.0,0.0,0.0,0.0,0.0,0.0,0.0,0.0,0.0,0.0,0.0,0.0,0.0,0.0,0.0,0.0,0.0,0.0,0.0,0.0,0.0,0.0,0.0,0.0,0.0,0.0,0.0,0.0,0.0,0.0,0.0,0.0,0.0,0.0,0.0,0.0,0.0,0.0,0.0,0.0,0.0,1.9908,1.9892,1.9479,1.8693,1.8328,1.7668,0.0,0.0,0.0,0.0,0.0,0.0,0.0,0.0,0.0,0.0,0.0,0.0,0.0,0.0,0.0,0.0,0.0,0.0,0.0,0.0,0.0,0.0,0.0,0.0,0.0,0.0,0.0,0.0,0.0,0.0,0.0,0.0,0.0,0.0,0.0,0.0,0.0,0.0,0.0,0.0,0.0,0.0,0.0,0.0,0.0,0.0,0.0,0.0,0.0,0.0,0.0,0.0,0.0,0.0,0.0,0.0,0.0,0.0,0.0,0.0,0.0,0.0,0.0,0.0,0.0,0.0,0.0,0.0,0.0,0.0,0.0,0.0,0.0,0.0,0.0,0.0,0.0,0.0,0.0,0.0,0.0,0.0,0.0,0.0,0.0,0.0,0.0,0.0,0.0,0.0,0.0,0.0,0.0,0.0,0.0,0.0,0.0,0.0,0.0,0.0,0.0,0.0,0.0,0.0,0.0,0.0,0.0,0.0,1.9248,2.0772,2.082,2.0375,1.9487,1.9145,1.8398,0.0,0.0,0.0,0.0,0.0,0.0,0.0,0.0,0.0,0.0,0.0,0.0,0.0,0.0,0.0,0.0,0.0,0.0,0.0,0.0,0.0,0.0,0.0,0.0,0.0,0.0,0.0,0.0,0.0,0.0,0.0,0.0,0.0,0.0,0.0,0.0,0.0,0.0,0.0,0.0,0.0,0.0,0.0,0.0,0.0,0.0,0.0,0.0,0.0,0.0,0.0,0.0,0.0,0.0,0.0,0.0,0.0,0.0,0.0,0.0,0.0,0.0,0.0,0.0,0.0,0.0,0.0,0.0,0.0,0.0,0.0,0.0,0.0,0.0,0.0,0.0,0.0,0.0,0.0,0.0,0.0,0.0,0.0,0.0,0.0,0.0,0.0,0.0,0.0,0.0,0.0,0.0,0.0,0.0,0.0,0.0,0.0,0.0,0.0,0.0,0.0,0.0,0.0,0.0,0.0,0.0,0.0,0.0,2.013,2.1412,2.1439,2.1137,2.0575,2.0171,1.9248,0.0,0.0,0.0,0.0,0.0,0.0,0.0,0.0,0.0,0.0,0.0,0.0,0.0,0.0,0.0,0.0,0.0,0.0,0.0,0.0,0.0,0.0,0.0,0.0,0.0,0.0,0.0,0.0,0.0,0.0,0.0,0.0,0.0,0.0,0.0,0.0,0.0,0.0,0.0,0.0,0.0,0.0,0.0,0.0,0.0,0.0,0.0,0.0,0.0,0.0,0.0,0.0,0.0,0.0,0.0,0.0,0.0,0.0,0.0,0.0,0.0,0.0,0.0,0.0,0.0,0.0,0.0,0.0,0.0,0.0,0.0,0.0,0.0,0.0,0.0,0.0,0.0,0.0,0.0,0.0,0.0,0.0,0.0,0.0,0.0,0.0,0.0,0.0,0.0,0.0,0.0,0.0,0.0,0.0,0.0,0.0,0.0,0.0,0.0,0.0,0.0,0.0,0.0,0.0,0.0,0.0,0.0,0.0,2.0743,2.1825,2.1565,2.1486,2.1634,2.0775,1.9391,0.0,0.0,0.0,0.0,0.0,0.0,0.0,0.0,0.0,0.0,0.0,0.0,0.0,0.0,0.0,0.0,0.0,0.0,0.0,0.0,0.0,0.0,0.0,0.0,0.0,0.0,0.0,0.0,0.0,0.0,0.0,0.0,0.0,0.0,0.0,0.0,0.0,0.0,0.0,0.0,0.0,0.0,0.0,0.0,0.0,0.0,0.0,0.0,1.7371,0.0,0.0,0.0,0.0,0.0,0.0,0.0,0.0,0.0,0.0,0.0,0.0,0.0,0.0,0.0,0.0,0.0,0.0,0.0,0.0,0.0,0.0,0.0,0.0,0.0,0.0,0.0,0.0,0.0,0.0,0.0,0.0,0.0,0.0,0.0,0.0,0.0,0.0,0.0,0.0,0.0,0.0,0.0,0.0,0.0,0.0,0.0,0.0,0.0,0.0,0.0,0.0,0.0,0.0,0.0,0.0,0.0,0.0,0.0,2.1507,2.2207,2.2021,2.1851,2.1703,2.1364,2.033,0.0,0.0,0.0,0.0,0.0,0.0,0.0,0.0,0.0,0.0,0.0,0.0,0.0,0.0,0.0,0.0,0.0,0.0,0.0,0.0,0.0,0.0,0.0,0.0,0.0,0.0,0.0,0.0,0.0,0.0,0.0,0.0,0.0,0.0,0.0,0.0,0.0,0.0,0.0,0.0,0.0,0.0,0.0,0.0,0.0,0.0,0.0,0.0,0.0,0.0,0.0,0.0,0.0,0.0,0.0,0.0,0.0,0.0,0.0,0.0,0.0,0.0,0.0,0.0,0.0,0.0,0.0,0.0,0.0,0.0,0.0,0.0,0.0,0.0,0.0,0.0,0.0,0.0,0.0,0.0,0.0,0.0,0.0,0.0,0.0,0.0,0.0,0.0,0.0,0.0,0.0,0.0,0.0,0.0,0.0,0.0,0.0,0.0,0.0,0.0,0.0,0.0,0.0,0.0,0.0,0.0,0.0,2.1862,2.2239,2.2545,2.2493,2.2148,2.1587,2.183,2.138,2.0107,0.0,0.0,0.0,0.0,0.0,0.0,0.0,0.0,0.0,0.0,0.0,0.0,0.0,0.0,0.0,0.0,0.0,0.0,0.0,0.0,0.0,0.0,0.0,0.0,0.0,0.0,0.0,0.0,0.0,0.0,0.0,0.0,0.0,0.0,0.0,0.0,0.0,0.0,1.5666,1.6798,0.0,0.0,0.0,0.0,0.0,0.0,0.0,0.0,2.0056,0.0,0.0,0.0,0.0,0.0,0.0,0.0,0.0,0.0,0.0,0.0,0.0,0.0,0.0,0.0,0.0,0.0,0.0,0.0,0.0,0.0,0.0,0.0,0.0,0.0,0.0,0.0,0.0,0.0,0.0,0.0,0.0,0.0,0.0,0.0,0.0,0.0,0.0,0.0,0.0,0.0,0.0,0.0,0.0,0.0,0.0,0.0,0.0,0.0,0.0,0.0,0.0,0.0,0.0,0.0,0.0,2.1889,2.2227,2.2589,2.2883,2.2382,2.2159,2.2291,2.2112,2.1602,2.075,0.0,0.0,0.0,0.0,0.0,0.0,0.0,0.0,0.0,0.0,0.0,0.0,0.0,0.0,0.0,0.0,0.0,0.0,0.0,0.0,0.0,0.0,0.0,0.0,0.0,0.0,0.0,0.0,0.0,0.0,0.0,0.0,0.0,0.0,0.0,0.0,0.0,0.0,0.0,1.8408,1.8884,0.0,0.0,0.0,0.0,0.0,0.0,0.0,0.0,2.003,0.0,0.0,0.0,0.0,0.0,0.0,0.0,0.0,0.0,0.0,0.0,0.0,0.0,0.0,0.0,0.0,0.0,0.0,0.0,0.0,0.0,0.0,0.0,0.0,0.0,0.0,0.0,0.0,0.0,0.0,0.0,0.0,0.0,0.0,0.0,0.0,0.0,0.0,0.0,0.0,0.0,0.0,0.0,0.0,0.0,0.0,0.0,0.0,0.0,0.0,0.0,0.0,0.0,0.0,0.0,2.1979,2.2672,2.3089,2.3232,2.2784,2.2498,2.2482,2.235,2.1814,0.0,0.0,0.0,0.0,0.0,0.0,0.0,0.0,0.0,0.0,0.0,0.0,0.0,0.0,0.0,0.0,0.0,0.0,0.0,0.0,0.0,0.0,0.0,0.0,0.0,0.0,0.0,0.0,0.0,0.0,0.0,0.0,0.0,0.0,0.0,0.0,0.0,0.0,0.0,0.0,1.9138,1.9762,2.0835,0.0,0.0,0.0,0.0,0.0,0.0,2.1306,2.0609,0.0,0.0,0.0,0.0,0.0,0.0,0.0,0.0,0.0,0.0,0.0,0.0,0.0,0.0,0.0,0.0,0.0,0.0,0.0,0.0,0.0,0.0,0.0,0.0,0.0,0.0,0.0,0.0,0.0,0.0,0.0,0.0,0.0,0.0,0.0,0.0,0.0,0.0,0.0,0.0,0.0,0.0,0.0,0.0,0.0,0.0,0.0,0.0,0.0,0.0,0.0,0.0,0.0,0.0,0.0,2.2027,2.3149,2.3724,2.3708,2.3248,2.2911,2.2704,2.2652,2.2132,0.0,0.0,0.0,0.0,0.0,0.0,0.0,0.0,0.0,0.0,0.0,0.0,0.0,0.0,0.0,0.0,0.0,0.0,0.0,0.0,0.0,0.0,0.0,0.0,0.0,0.0,0.0,0.0,0.0,0.0,0.0,0.0,0.0,0.0,0.0,0.0,0.0,0.0,0.0,0.0,0.0,2.0559,2.1472,2.2809,0.0,0.0,0.0,0.0,2.2757,2.1935,0.0,0.0,0.0,0.0,0.0,0.0,0.0,0.0,0.0,0.0,0.0,0.0,0.0,0.0,0.0,0.0,0.0,0.0,0.0,0.0,0.0,0.0,0.0,0.0,0.0,0.0,0.0,0.0,0.0,0.0,0.0,0.0,0.0,0.0,0.0,0.0,0.0,0.0,0.0,0.0,0.0,0.0,0.0,0.0,0.0,0.0,0.0,0.0,0.0,0.0,0.0,0.0,0.0,0.0,0.0,0.0,2.2075,2.361,2.4482,2.445,2.3514,2.3121,2.3375,2.3089,2.2609,0.0,0.0,0.0,0.0,0.0,0.0,0.0,0.0,0.0,0.0,0.0,0.0,0.0,0.0,0.0,0.0,0.0,0.0,0.0,0.0,0.0,0.0,0.0,0.0,0.0,0.0,0.0,0.0,0.0,0.0,0.0,0.0,0.0,0.0,0.0,0.0,0.0,0.0,0.0,0.0,0.0,2.1539,2.1886,2.317,2.3459,0.0,0.0,2.3739,2.3141,2.2675,0.0,0.0,0.0,0.0,0.0,0.0,0.0,0.0,0.0,0.0,0.0,0.0,0.0,0.0,0.0,0.0,0.0,0.0,0.0,0.0,0.0,0.0,0.0,0.0,0.0,0.0,0.0,0.0,0.0,0.0,0.0,0.0,0.0,0.0,0.0,0.0,0.0,0.0,0.0,0.0,0.0,0.0,0.0,0.0,0.0,0.0,0.0,0.0,0.0,0.0,0.0,0.0,0.0,0.0,0.0,2.1999,2.2061,2.3726,2.4405,2.405,2.3749,2.3499,2.3292,2.3515,2.3191,0.0,0.0,0.0,0.0,0.0,0.0,0.0,0.0,0.0,0.0,0.0,0.0,0.0,0.0,0.0,0.0,0.0,0.0,0.0,0.0,0.0,0.0,0.0,0.0,0.0,0.0,0.0,0.0,0.0,0.0,0.0,0.0,0.0,0.0,0.0,0.0,0.0,0.0,0.0,0.0,0.0,0.0,2.2195,2.3231,0.0,0.0,0.0,2.425,2.3051,0.0,0.0,0.0,0.0,0.0,0.0,0.0,0.0,0.0,0.0,0.0,0.0,0.0,0.0,0.0,0.0,0.0,0.0,0.0,0.0,0.0,0.0,0.0,0.0,0.0,0.0,0.0,0.0,0.0,0.0,0.0,0.0,0.0,0.0,0.0,0.0,0.0,0.0,0.0,0.0,0.0,0.0,0.0,0.0,0.0,0.0,0.0,0.0,0.0,0.0,0.0,0.0,0.0,0.0,0.0,0.0,0.0,2.2057,2.3883,2.4579,2.3993,2.4055,2.3854,2.3383,2.3754,0.0,0.0,0.0,0.0,0.0,0.0,0.0,0.0,0.0,0.0,0.0,0.0,0.0,0.0,0.0,0.0,0.0,0.0,0.0,0.0,0.0,0.0,0.0,0.0,0.0,0.0,0.0,1.4826,0.0,0.0,0.0,0.0,0.0,0.0,0.0,0.0,0.0,0.0,0.0,0.0,0.0,0.0,2.1077,2.2509,2.3358,2.3704,0.0,0.0,2.4538,2.3242,2.3293,2.331,0.0,0.0,0.0,0.0,0.0,0.0,0.0,0.0,0.0,0.0,0.0,0.0,0.0,0.0,0.0,0.0,0.0,0.0,0.0,0.0,0.0,0.0,0.0,0.0,0.0,0.0,0.0,0.0,0.0,0.0,0.0,0.0,0.0,0.0,0.0,0.0,0.0,0.0,0.0,0.0,0.0,0.0,0.0,0.0,0.0,0.0,0.0,0.0,0.0,0.0,0.0,0.0,0.0,0.0,2.2647,2.219,2.436,2.5336,2.4984,2.4405,2.407,2.4008,2.3764,2.3762,0.0,0.0,0.0,0.0,0.0,0.0,0.0,0.0,0.0,0.0,0.0,0.0,0.0,0.0,0.0,0.0,0.0,0.0,0.0,0.0,0.0,0.0,0.0,0.0,0.0,0.0,0.0,0.0,0.0,0.0,0.0,0.0,0.0,0.0,0.0,0.0,0.0,0.0,0.0,0.0,0.0,2.2289,2.2989,2.3663,2.3872,0.0,2.3972,2.4488,2.4078,2.428,2.4499,2.4456,0.0,0.0,0.0,0.0,0.0,0.0,0.0,0.0,0.0,0.0,0.0,0.0,0.0,0.0,0.0,0.0,0.0,0.0,0.0,0.0,0.0,0.0,0.0,0.0,0.0,0.0,0.0,0.0,0.0,0.0,0.0,0.0,0.0,0.0,0.0,0.0,0.0,0.0,0.0,0.0,0.0,0.0,0.0,0.0,0.0,0.0,0.0,0.0,0.0,0.0,0.0,0.0,0.0,2.2728,2.2134,2.3985,2.4732,2.4225,2.4342,2.4312,2.4121,2.4186,2.4191,0.0,0.0,0.0,0.0,0.0,0.0,0.0,0.0,0.0,0.0,0.0,0.0,0.0,0.0,0.0,0.0,0.0,0.0,0.0,0.0,0.0,0.0,0.0,0.0,0.0,0.0,0.0,0.0,1.8485,1.8584,1.7814,0.0,0.0,0.0,0.0,0.0,0.0,0.0,0.0,0.0,0.0,2.2703,2.3588,2.3948,0.0,0.0,2.4788,2.5052,2.473,2.5125,2.5461,2.5461,2.5637,0.0,0.0,0.0,0.0,0.0,0.0,0.0,0.0,0.0,0.0,0.0,0.0,0.0,0.0,0.0,0.0,0.0,0.0,0.0,0.0,0.0,0.0,0.0,0.0,0.0,0.0,0.0,0.0,0.0,0.0,0.0,0.0,0.0,0.0,0.0,0.0,0.0,0.0,0.0,0.0,0.0,0.0,0.0,0.0,0.0,0.0,0.0,0.0,0.0,0.0,0.0,0.0,2.3037,2.2409,2.3953,2.4523,2.4075,2.442,2.4494,2.425,2.4362,2.4434,0.0,0.0,0.0,0.0,0.0,0.0,0.0,0.0,0.0,0.0,0.0,0.0,0.0,0.0,0.0,0.0,0.0,0.0,0.0,0.0,0.0,0.0,0.0,0.0,0.0,0.0,0.0,0.0,1.9502,1.9733,1.9303,0.0,0.0,0.0,0.0,0.0,0.0,0.0,0.0,0.0,0.0,2.2076,2.2877,2.343,2.3789,2.3837,2.4518,2.4945,2.4815,2.4722,2.4852,2.5484,0.0,0.0,0.0,0.0,0.0,0.0,0.0,0.0,0.0,0.0,0.0,0.0,0.0,0.0,0.0,0.0,0.0,0.0,0.0,0.0,0.0,0.0,0.0,0.0,0.0,0.0,0.0,1.9003,0.0,0.0,1.7655,0.0,0.0,0.0,0.0,0.0,0.0,0.0,0.0,0.0,0.0,0.0,0.0,0.0,0.0,0.0,0.0,0.0,0.0,0.0,0.0,0.0,0.0,2.3665,2.3137,2.4382,2.5056,2.5027,2.4749,2.4621,2.4587,2.428,2.4414,2.5039,0.0,0.0,0.0,0.0,0.0,0.0,0.0,0.0,0.0,0.0,0.0,0.0,0.0,0.0,0.0,0.0,0.0,0.0,0.0,0.0,0.0,0.0,0.0,0.0,0.0,0.0,1.7012,1.8683,2.0287,0.0,0.0,0.0,0.0,0.0,0.0,0.0,0.0,0.0,2.0102,2.0047,2.0177,2.0522,2.2007,2.2627,2.131,2.2683,2.397,2.4092,2.2762,2.2264,0.0,0.0,0.0,0.0,0.0,0.0,0.0,0.0,0.0,0.0,0.0,0.0,0.0,0.0,0.0,0.0,0.0,0.0,0.0,0.0,0.0,0.0,0.0,0.0,0.0,0.0,0.0,2.2514,2.188,0.0,0.0,0.0,0.0,0.0,0.0,0.0,0.0,0.0,0.0,0.0,2.3012,2.4236,0.0,0.0,0.0,0.0,0.0,0.0,0.0,0.0,0.0,0.0,0.0,0.0,2.4404,2.3823,2.4646,2.51,2.5086,2.4983,2.4924,2.4924,2.4602,2.465,2.5051,0.0,0.0,0.0,0.0,0.0,0.0,0.0,0.0,0.0,0.0,0.0,0.0,0.0,0.0,0.0,0.0,0.0,0.0,0.0,0.0,0.0,0.0,0.0,0.0,0.0,1.951,0.0,0.0,0.0,0.0,0.0,0.0,0.0,0.0,0.0,0.0,0.0,2.0264,2.0504,2.0576,2.0766,2.1198,2.1492,2.172,0.0,0.0,0.0,0.0,0.0,0.0,0.0,0.0,0.0,0.0,0.0,0.0,0.0,0.0,1.8675,2.0646,2.1006,2.1042,2.1042,0.0,0.0,0.0,0.0,0.0,0.0,0.0,0.0,0.0,0.0,0.0,0.0,0.0,0.0,2.4026,0.0,2.3634,0.0,0.0,0.0,0.0,0.0,0.0,0.0,0.0,2.3323,2.3681,2.3575,2.4443,2.4785,0.0,2.4401,2.3938,0.0,0.0,0.0,0.0,0.0,0.0,0.0,0.0,2.5276,2.4627,2.5008,2.5247,2.5247,2.5159,2.51,2.5086,2.488,2.4878,2.5078,2.4761,2.4835,0.0,0.0,0.0,0.0,0.0,0.0,0.0,0.0,0.0,0.0,0.0,0.0,0.0,0.0,0.0,0.0,0.0,0.0,0.0,0.0,0.0,0.0,0.0,2.1539,0.0,0.0,0.0,0.0,0.0,0.0,0.0,0.0,0.0,1.9736,1.9593,1.9537,1.9526,1.9534,1.9715,2.0151,0.0,0.0,0.0,0.0,0.0,0.0,0.0,2.2068,2.2324,2.2174,2.1927,2.1586,2.0465,1.9645,1.9727,0.0,0.0,2.0157,2.0422,2.0466,2.0643,1.9547,1.8683,1.9024,1.8288,1.7681,0.0,0.0,0.0,0.0,0.0,0.0,0.0,0.0,2.5344,2.4804,0.0,2.4289,0.0,0.0,0.0,0.0,2.2655,2.3566,0.0,0.0,2.4753,2.5232,2.5427,2.5476,2.5666,2.5959,2.5608,2.5622,2.5813,2.4086,0.0,0.0,0.0,0.0,0.0,0.0,2.6193,2.5515,2.5529,2.5515,2.5535,2.5291,2.513,2.513,2.5115,2.5115,2.5149,2.5371,2.5342,2.5029,2.4774,0.0,0.0,0.0,0.0,0.0,0.0,0.0,0.0,0.0,0.0,0.0,0.0,0.0,0.0,0.0,0.0,0.0,0.0,0.0,0.0,2.2209,0.0,0.0,0.0,0.0,0.0,0.0,0.0,0.0,0.0,0.0,1.7924,1.7963,1.7842,1.7253,0.0,0.0,0.0,0.0,1.96,1.8286,1.9775,2.1127,2.1402,2.0114,1.9559,2.0932,0.0,0.0,1.9263,1.9288,1.9358,1.9533,1.9396,1.8976,1.8032,1.7988,1.8093,1.8474,1.8581,1.8537,1.8705,1.8897,1.8989,2.6752,0.0,0.0,0.0,0.0,2.6967,2.6716,2.6305,2.6053,2.5764,2.5453,2.5313,0.0,0.0,0.0,0.0,0.0,0.0,2.4985,2.4797,2.4981,2.5111,2.5198,2.5232,2.5276,2.5364,2.5276,2.5359,2.5602,2.5076,2.5403,2.6522,0.0,0.0,0.0,0.0,2.653,2.5909,2.6105,2.612,2.5886,2.5783,2.574,2.574,2.552,2.5505,2.574,2.5589,2.5447,2.5359,2.5521,0.0,0.0,0.0,0.0,0.0,0.0,0.0,0.0,0.0,0.0,0.0,0.0,0.0,0.0,0.0,0.0,0.0,0.0,0.0,2.2689,2.235,2.2584,0.0,0.0,0.0,0.0,0.0,0.0,0.0,0.0,0.0,1.7925,1.7764,1.7874,0.0,0.0,1.7869,1.8267,1.8628,1.8815,1.8736,1.9352,0.0,2.0092,1.9967,1.9914,2.005,1.9506,1.9165,1.9278,1.9297,1.9316,1.9392,1.9344,1.9231,1.9117,1.8938,1.8947,1.9174,1.924,1.9306,1.9514,1.9618,1.9647,2.6218,2.6662,2.7935,2.7878,2.6929,2.7372,2.7078,2.6257,2.647,2.6374,2.6105,2.6167,2.6005,2.5685,2.5515,0.0,0.0,0.0,2.5629,2.5445,2.5411,2.5486,2.5657,2.5672,2.573,2.5848,2.573,2.5798,2.607,2.5974,2.6515,2.7598,0.0,0.0,2.7298,2.7217,2.6925,2.6427,2.6471,2.6413,2.6208,2.6076,2.6018,2.6018,2.5792,2.5836,2.6193,2.5982,2.5974,2.6091,2.6031,2.581,0.0,0.0,0.0,0.0,0.0,0.0,0.0,0.0,0.0,0.0,0.0,1.8482,1.8655,0.0,0.0,0.0,2.1461,2.2258,2.3476,2.2586,0.0,0.0,0.0,0.0,0.0,0.0,0.0,1.7949,1.8855,1.9404,1.8568,1.8359,1.8409,1.8619,1.8494,1.8569,1.8985,0.0,1.9036,1.941,1.9581,1.9732,1.994,2.0141,2.0217,2.0015,1.9896,1.9911,1.9868,1.9977,2.0044,2.0044,2.0034,2.0081,2.0204,2.0119,1.9968,1.9873,1.9845,1.9921,2.0075,2.0179,2.0235,2.5434,2.531,2.7147,2.7397,2.6727,2.7374,2.6857,2.5672,2.6571,2.6642,2.6154,2.6714,2.68,2.6542,2.6235,0.0,2.6057,2.6096,2.615,2.6135,2.6135,2.6281,2.6574,2.6559,2.6705,2.7005,2.6691,2.6705,2.6998,2.672,2.7042,2.7882,2.7364,2.7086,2.7115,2.7386,2.7371,2.7027,2.6764,2.6617,2.6617,2.6325,2.6143,2.6143,2.612,2.6252,2.6559,2.6559,2.6676,2.6954,2.6442,2.6135,2.607,0.0,0.0,0.0,0.0,0.0,0.0,0.0,0.0,0.0,0.0,0.0,0.0,0.0,0.0,2.0493,2.0793,0.0,2.3975,2.2694,0.0,0.0,0.0,2.2248,2.0527,2.0744,2.0238,1.8301,0.0,0.0,1.9552,1.9495,1.9335,1.9216,1.915,1.9221,1.9637,1.9694,1.9836,2.0223,2.0308,2.0339,2.0537,2.0613,2.0641,2.0622,2.0745,2.0839,2.0858,2.1036,2.1187,2.1168,2.1252,2.1243,2.1252,2.1168,2.1082,2.0469,2.0311,2.0358,2.0575,2.0754,2.0877,2.5864,2.5855,2.6556,2.6341,2.5541,2.5964,2.5907,2.5609,2.5595,2.5779,2.6083,2.5923,2.5983,2.6175,2.6588,2.6606,2.6417,2.7115,2.7313,2.7144,2.713,2.721,2.7232,2.6998,2.691,2.6983,2.691,2.7042,2.7386,2.7291,2.7481,2.7882,2.7765,2.7809,2.8028,2.7686,2.7474,2.7401,2.7525,2.7575,2.7561,2.7488,2.7458,2.7458,2.7013,2.691,2.7269,2.6998,2.691,2.6983,2.7086,2.713,2.7166,2.6712,0.0,0.0,0.0,0.0,0.0,0.0,0.0,0.0,0.0,2.2111,2.1509,0.0,2.3203,0.0,2.032,2.0408,2.2007,2.0419,0.0,0.0,2.0272,1.9634,1.9182,1.9219,1.92,1.9017,1.9221,1.9495,1.9807,2.0081,2.0346,2.0592,2.0223,2.0072,2.0433,2.0499,2.0639,2.0894,2.1055,2.1187,2.1244,2.1395,2.148,2.1499,2.1537,2.1565,2.1565,2.1603,2.1641,2.1641,2.1641,2.1641,2.1641,2.165,2.1603,2.1442,2.1291,2.1234,2.1452,2.1527,2.1565,2.6018,2.6032,2.6208,2.5963,2.5551,2.6201,2.6197,2.5786,2.607,2.6255,2.6269,2.6373,2.6574,2.6859,2.721,2.7393,2.7371,2.7882,2.8116,2.8148,2.8148,2.8095,2.8133,2.792,2.7832,2.7832,2.7832,2.7934,2.8095,2.811,2.8198,2.8335,2.8373,2.8129,2.7771,2.7721,2.7832,2.8133,2.797,2.7911,2.7911,2.7911,2.8116,2.8549,2.7817,2.77,2.83,2.773,2.7613,2.8022,2.8081,2.7792,2.7092,2.6809,2.6551,0.0,0.0,0.0,0.0,0.0,0.0,0.0,0.0,0.0,0.0,0.0,2.274,2.2192,2.0081,1.9375,2.0973,1.9478,1.8744,1.9543,1.9126,1.8818,1.8724,1.896,1.9212,1.9543,1.9836,2.0166,2.0554,2.0809,2.1074,2.1404,2.114,2.0998,2.1206,2.1263,2.131,2.1433,2.1537,2.165,2.1726,2.1839,2.1962,2.2038,2.2056,2.2056,2.2056,2.2056,2.2056,2.2056,2.2056,2.196,2.1767,2.1912,2.2008,2.1748,2.1625,2.1656,2.1867,2.2,2.2056,2.6266,2.6231,2.6231,2.6266,2.631,2.7265,2.7,2.6061,2.6997,2.711,2.6603,2.7327,2.7744,2.7984,2.8057,2.8247,2.8511,2.8569,2.8769,2.9003,2.9017,2.9017,2.9017,2.9061,2.9076,2.9076,2.912,2.9134,2.9134,2.9134,2.9016,2.878,2.878,2.8125,2.6964,2.7319,2.7878,2.8636,2.8395,2.8147,2.786,2.786,2.8289,2.9037,2.7966,2.7735,2.8533,2.7778,2.7707,2.8475,2.8307,2.7552,2.6201,2.603,2.5202,0.0,2.3342,0.0,0.0,0.0,0.0,0.0,0.0,0.0,0.0,2.0405,2.1122,2.2478,1.9825,1.8728,2.0333,1.9263,1.8572,1.8809,1.8976,1.9084,1.8947,1.942,1.9845,2.0091,2.0396,2.0885,2.1395,2.1527,2.1669,2.1782,2.182,2.182,2.1858,2.183,2.1811,2.1858,2.1867,2.1943,2.2075,2.2123,2.2198,2.2378,2.2416,2.2444,2.2463,2.2423,2.2364,2.2374,2.2276,2.2079,2.1636,2.198,2.2079,2.1636,2.1604,2.1688,2.1916,2.2002,2.2191,2.7546,2.7546,2.7546,2.7546,2.7561,2.7752,2.7137,2.5997,2.622,2.6528,2.6969,2.7861,2.8247,2.835,2.8886,2.9134,2.9208,2.9511,2.9672,2.9716,2.9716,2.9716,2.9731,2.9994,3.0111,3.0141,3.0334,3.0425,3.0451,3.0451,2.9627,2.8108,2.8108,2.7467,2.6253,0.0,0.0,0.0,2.9284,2.941,2.7758,2.7758,2.7758,2.7662,2.5411,0.0,2.4433,2.4256,2.4131,2.408,2.4417,0.0,0.0,0.0,0.0,0.0,0.0,0.0,0.0,0.0,0.0,0.0,2.133,2.1358,2.0633,1.9533,1.9258,2.0125,1.906,1.8608,1.9226,1.9059,1.9046,1.9382,1.9609,1.9811,2.0148,2.0386,2.0752,2.1177,2.1253,2.1395,2.1688,2.1915,2.1981,2.2038,2.2179,2.2264,2.2264,2.2123,2.2094,2.2236,2.2255,2.2283,2.233,2.234,2.2376,2.2586,2.2652,2.2718,2.281,2.2487,2.2237,2.2246,2.1894,2.1593,2.1442,2.1543,2.1593,2.1442,2.1515,2.1632,2.1676,2.1388,2.1121,2.7911,2.7911,2.7911,2.7911,0.0,2.7911,2.7546,2.6932,2.6932,2.721,2.7744,2.8388,2.8754,2.893,2.9437,2.9209,2.8543,2.8783,2.8538,2.7827,2.7932,2.7957,2.797,2.8159,2.8225,2.8225,2.8372,2.8438,2.8452,2.8438,2.7925,2.698,2.6937,2.6226,2.4831,2.4471,2.4894,2.6062,2.7307,2.7362,2.6254,2.6242,2.636,2.6545,2.4805,0.0,0.0,0.0,0.0,0.0,0.0,0.0,0.0,0.0,0.0,2.1989,2.1884,2.1843,2.1843,2.1694,2.1177,2.0291,2.0451,2.0381,1.9906,1.92,1.9036,1.9401,1.9146,1.914,1.9401,1.9524,1.9713,2.0034,2.0207,2.0507,2.0809,2.1026,2.1272,2.1574,2.1716,2.1858,2.2056,2.217,2.2236,2.2245,2.2321,2.2387,2.2387,2.2302,2.2283,2.2378,2.2491,2.2487,2.2333,2.2302,2.2313,2.231,2.248,2.265,2.2877,2.2905,2.2812,2.2557,2.225,2.1943,2.1379,2.1482,2.1584,2.1336,2.1303,2.1346,2.139,2.1337,2.1337,2.8247,2.8224,2.7961,2.7836,2.7798,2.7533,2.7393,2.7417,2.7511,0.0,0.0,2.8179,2.84,2.8669,2.9037,2.8538,2.7352,2.7461,2.6926,2.5757,2.5942,2.5994,2.5994,2.6042,2.6066,2.6066,2.6158,2.6182,2.6182,2.6218,2.6032,2.5766,2.5757,2.4958,2.3392,2.3266,2.3657,2.444,2.5051,2.5058,2.4554,2.4542,2.4847,2.5441,2.4233,2.3982,2.4811,2.4059,2.3971,2.48,2.4605,2.3824,2.2514,2.2288,2.1289,1.9256,1.9231,1.9354,1.9354,1.9392,1.9429,1.9458,1.9647,1.959,1.9174,1.9306,1.9439,1.9514,1.9675,1.9855,2.0062,2.027,2.0469,2.0686,2.0848,2.1093,2.1356,2.1555,2.1764,2.1877,2.2038,2.2198,2.2349,2.228,2.2268,2.2297,2.2168,2.2168,2.2245,2.2236,2.2226,2.2193,2.2233,2.2322,2.215,2.2035,2.1995,2.1947,2.2152,2.2446,2.2703,2.3045,2.3063,2.2603,2.2551,2.203,2.1299,2.1351,2.1551,2.1142,2.1063,2.1088,2.114,2.148,2.1708,2.9588,2.9497,2.8124,2.7525,2.7429,2.6037,2.5413,2.5465,2.6134,2.6475,2.6504,2.5976,2.5746,2.5808,2.6327,2.6444,2.6231,2.6268,2.6173,2.5934,2.5982,2.5994,2.6006,2.6266,2.6431,2.6443,2.6704,2.6858,2.6882,2.6984,2.6281,2.4844,2.4799,2.3936,2.2218,2.2029,2.2132,2.2307,2.5206,2.5766,2.3918,2.3951,2.3919,2.3677,2.1662,2.0592,2.0724,2.0655,2.0592,2.0734,2.0704,2.0476,2.0129,2.0138,1.9823,1.933,1.9448,1.9562,1.9562,1.9732,1.9911,2.0081,2.0245,2.0233,1.9836,1.9817,1.9934,2.0273,2.033,2.0452,2.065,2.0904,2.1111,2.131,2.1527,2.1735,2.1915,2.2104,2.2236,2.2274,2.2321,2.2349,2.2397,2.2072,2.19,2.188,2.1727,2.1383,2.1539,2.1777,2.1809,2.1625,2.1587,2.1572,2.1515,2.1507,2.1597,2.1695,2.188,2.209,2.2354,2.2337,2.2203,2.1946,2.168,2.1263,2.0996,2.0988,2.1119,2.1029,2.1082,2.1164,2.1172,2.1379,2.1305,2.8207,2.721,2.6461,2.6133,2.6103,2.5325,2.4978,2.4966,2.4518,2.4823,2.5496,2.5398,2.5364,2.5399,2.5826,2.5466,2.4551,2.4631,2.4163,2.3244,2.3327,2.3454,2.3571,2.3733,2.385,2.3978,2.4084,2.4183,2.4194,2.429,2.3874,2.3048,2.3101,2.2677,2.1887,2.1792,2.1792,2.1839,2.3363,2.3649,2.2554,2.2544,2.249,2.2187,2.1084,2.0601,2.0601,2.0601,2.0601,2.0601,2.0601,2.0554,2.0459,2.045,2.0412,2.0362,2.0289,2.0226,2.0226,2.0217,2.0254,2.0349,2.0537,2.0641,2.0611,2.0384,2.0339,2.0631,2.0809,2.097,2.1168,2.1471,2.1707,2.1839,2.199,2.2151,2.2245,2.2321,2.2387,2.2397,2.2491,2.2557,2.2567,2.2463,2.2258,2.2109,2.1575,2.1243,2.107,2.1189,2.1322,2.1364,2.1493,2.1402,2.1164,2.1199,2.126,2.128,2.1548,2.1886,2.2233,2.2289,2.2315,2.2062,2.1791,2.157,2.1363,2.1349,2.1382,2.1433,2.149,2.1563,2.1579,2.1636,2.1481,2.6637,2.5211,2.4839,2.4465,2.4175,2.4132,2.4132,2.4024,2.3004,2.3136,2.4158,2.44,2.4423,2.4446,2.4773,2.4174,2.3038,2.307,2.2363,2.1156,2.1234,2.1442,2.1574,2.1593,2.1678,2.1782,2.1792,2.1792,2.1792,2.1839,2.1905,2.1981,2.1952,2.1952,2.2,2.1952,2.1924,2.1924,2.1924,2.1801,2.1556,2.1537,2.1508,2.1375,2.1356,2.1356,2.131,2.1356,2.1356,2.1356,2.1309,2.1234,2.1281,2.1243,2.1214,2.1205,2.1055,2.0962,2.1045,2.0867,2.0782,2.0782,2.0914,2.113,2.1253,2.1017,2.0839,2.1009,2.1263,2.1452,2.1669,2.1924,2.216,2.217,2.2293,2.2397,2.2453,2.2463,2.2442,2.2381,2.2482,2.2525,2.2463,2.2415,2.2163,2.1652,2.1401,2.1037,2.0762,2.071,2.0882,2.1114,2.1336,2.1217,2.0846,2.0903,2.098,2.091,2.1321,2.1749,2.2101,2.2502,2.2663,2.2223,2.2168,2.1997,2.1796,2.1709,2.1749,2.1839,2.1863,2.1904,2.1831,2.1839,2.1791,2.6054,2.5695,2.4275,2.2847,2.1706,2.1624,2.167,2.1653,2.1578,2.1665,2.194,2.1399,2.1371,2.1264,2.165,2.1799,2.1721,2.1722,2.1687,2.1716,2.1726,2.1745,2.1754,2.1763,2.1773,2.1801,2.1811,2.183,2.1839,2.199,2.2245,2.2567,2.2434,2.2416,2.2567,2.2416,2.233,2.233,2.234,2.2151,2.1792,2.1763,2.1754,2.1735,2.1735,2.1735,2.1735,2.1783,2.1735,2.1716,2.1603,2.1499,2.148,2.1328,2.1224,2.1243,2.1375,2.1489,2.1669,2.1688,2.1641,2.1678,2.165,2.1678,2.1716,2.1697,2.1678,2.1726,2.1886,2.1971,2.2047,2.2236,2.2368,2.2338,2.2366,2.2463,2.2543,2.269,2.2557,2.2232,2.22,2.2086,2.1682,2.1322,2.0841,2.0687,2.0623,2.0403,2.0079,2.0156,2.0086,2.0361,2.0462,2.0429,2.0491,2.0608,2.0824,2.1019,2.1276,2.154,2.1776,2.1964,2.1984,2.2109,2.1951,2.1959,2.1944,2.1912,2.1864,2.1993,2.2001,2.1961,2.1944,2.1969,2.188,2.4399,2.3279,2.2732,2.2145,2.1574,2.1584,2.1537,2.1546,2.1622,2.166,2.1641,2.1471,2.1404,2.1404,2.1499,2.1584,2.1707,2.1707,2.1707,2.1792,2.1792,2.1849,2.1962,2.1971,2.2028,2.2141,2.2141,2.2141,2.216,2.2236,2.2359,2.2501,2.2434,2.2434,2.251,2.2434,2.2387,2.2387,2.2387,2.2312,2.217,2.2141,2.2151,2.2141,2.2141,2.2141,2.2141,2.2151,2.2141,2.2141,2.2066,2.2067,2.2009,2.1982,2.1886,2.1886,2.1849,2.182,2.1792,2.1792,2.1792,2.1792,2.1792,2.1839,2.1962,2.2075,2.2198,2.2302,2.2198,2.2132,2.2283,2.2463,2.2475,2.2329,2.2258,2.2195,2.1917,2.1936,2.188,2.175,2.1807,2.1836,2.1599,2.1217,2.0899,2.0741,2.0578,1.9836,1.8677,1.8538,1.7985,1.6862,1.6436,1.7822,1.9821,2.0751,2.0819,2.1021,2.127,2.1449,2.1485,2.1814,2.1928,2.1832,2.1735,2.1775,2.2066,2.2091,2.2107,2.2107,2.2245,2.2253,2.2253,2.2253,2.2253,2.291,2.1678,2.1735,2.1792,2.1792,2.1792,2.1792,2.1801,2.1849,2.1877,2.1877,2.1934,2.1952,2.1943,2.1849,2.182,2.1867,2.1877,2.1905,2.1952,2.1952,2.2038,2.217,2.217,2.2245,2.2368,2.2378,2.2378,2.2387,2.2387,2.2416,2.2463,2.2425,2.2416,2.2472,2.2425,2.2387,2.2387,2.2387,2.2387,2.2378,2.2387,2.2387,2.2387,2.2387,2.2387,2.2387,2.2387,2.2387,2.2387,2.2387,2.2387,2.2387,2.2387,2.2387,2.2378,2.2255,2.2104,2.1962,2.1962,2.1981,2.2038,2.2047,2.2132,2.2321,2.2472,2.2623,2.2737,2.2519,2.2385,2.231,2.2361,2.2209,2.1985,2.1952,2.1819,2.1526,2.1485,2.146,2.136,2.0823,2.0288,1.9656,1.9029,1.8746,1.8715,1.8653,1.8248,1.6602,1.6217,1.5765,1.4086,1.3912,1.5295,1.8345,1.8643,1.9102,1.9316,1.9127,1.9237,1.9795,1.9886,2.0705,1.9926,2.0664,2.1531,2.2115,2.2277,2.1591,2.1651,2.1764,2.1476,1.9965,2.076,2.1287,2.1868,2.1782,2.1792,2.182,2.1801,2.1811,2.1811,2.1849,2.2,2.2075,2.2104,2.2264,2.2349,2.2312,2.1981,2.1905,2.2066,2.2075,2.217,2.2312,2.233,2.2359,2.2378,2.2378,2.2378,2.2387,2.2387,2.2387,2.2387,2.2387,2.2501,2.2661,2.2482,2.2491,2.2614,2.2472,2.2387,2.2387,2.2387,2.2387,2.2387,2.2387,2.2387,2.2387,2.2387,2.2387,2.2387,2.2387,2.2387,2.2387,2.2387,2.2387,2.2387,2.2387,2.2387,2.2397,2.2387,2.2378,2.2368,2.2368,2.2434,2.2614,2.2623,2.2737,2.286,2.2926,2.2913,2.2942,2.2873,2.2662,2.2177,2.1985,2.1709,2.1533,2.1423,2.1409,2.1456,2.0909,2.1414,2.0646,1.9029,1.7254,1.4768,1.4052,1.4583,1.4658,1.4392,1.4187,1.4047,1.4021,1.3883,1.3662,1.3646,1.4302,1.4393,1.5472,1.5372,1.5668,1.6413,1.559,1.5306,1.5564,1.6887,1.798,1.8467,1.9634,2.161,2.1814,2.0601,2.0356,2.0726,2.0081,1.7781,1.8059,1.8601,2.2056,2.217,2.217,2.2179,2.2179,2.2179,2.217,2.2179,2.2245,2.2283,2.2293,2.2359,2.2387,2.2387,2.2245,2.2217,2.2283,2.2283,2.2321,2.2387,2.2387,2.2387,2.2387,2.2387,2.2387,2.2387,2.2387,2.2387,2.2387,2.2387,2.2434,2.2482,2.2434,2.2434,2.2482,2.2434,2.2387,2.2387,2.2387,2.2387,2.2397,2.2387,2.2387,2.2387,2.2387,2.2387,2.2387,2.2387,2.2387,2.2387,2.2387,2.2387,2.2387,2.2387,2.2453,2.2576,2.2595,2.2652,2.2765,2.2784,2.2822,2.2888,2.2907,2.2935,2.302,2.3083,2.3066,2.2729,2.2421,2.2126,2.1851,2.2181,2.2358,2.1697,2.0462,1.9283,1.8514,1.7436,1.6492,1.6307,1.5554,1.4725,1.3895,1.3696,1.3712,1.3815,1.3885,1.3165,1.1996,1.1831,1.1536,1.0172,0.9801,0.9916,0.9815,1.2795,1.4446,1.4573,1.4779,1.4787,1.4596,1.4401,1.5459,1.5825,1.6302,1.6792,1.8447,1.8617,1.7754,1.7426,1.7967,1.7948,1.5528,1.5767,1.6132,2.2264,2.2378,2.2387,2.2387,2.2387,2.2387,2.2387,2.2387,2.2387,2.2387,2.2387,2.2387,2.2387,2.2387,2.2387,2.2387,2.2387,2.2387,2.2387,2.2387,2.2387,2.2387,2.2387,2.2387,2.2387,2.2387,2.2387,2.2425,2.2491,2.2491,2.2529,2.2595,2.2595,2.2586,2.2586,2.2595,2.2595,2.2586,2.2586,2.2595,2.2595,2.2586,2.2595,2.2586,2.2595,2.2519,2.2397,2.2387,2.2425,2.2482,2.2491,2.2529,2.2586,2.2595,2.2652,2.2794,2.2763,2.286,2.2983,2.3011,2.3039,2.3064,2.2922,2.2881,2.2905,2.2259,2.1654,2.1182,2.025,1.9618,1.9553,2.0099,2.0602,2.0091,1.8371,1.6756,1.5904,1.4591,1.3567,1.2935,1.2732,1.2359,1.1754,1.1541,1.145,1.1686,1.1763,1.1027,0.9838,0.946,0.9271,0.7661,0.7653,0.7813,0.8054,1.0196,1.1331,1.1546,1.2005,1.2557,1.3,1.2955,1.3299,1.3655,1.4027,1.434,1.4611,1.4954,1.4668,1.4215,1.5087,1.5702,1.4249,1.3315,1.3668,2.2397,2.2406,2.2397,2.2406,2.2387,2.2387,2.2387,2.2387,2.2387,2.2387,2.2387,2.2387,2.2387,2.2387,2.2387,2.2387,2.2387,2.2406,2.2406,2.2387,2.2387,2.2387,2.2387,2.2416,2.2444,2.2453,2.2416,2.2529,2.2699,2.2718,2.2803,2.2954,2.2954,2.2935,2.2992,2.2973,2.3001,2.2992,2.2992,2.3011,2.3011,2.3001,2.2983,2.2992,2.2973,2.2794,2.2444,2.2425,2.2529,2.269,2.2718,2.2812,2.2935,2.2954,2.2992,2.3001,2.302,2.297,2.3039,2.3058,2.3121,2.304,2.2719,2.2219,2.1914,2.0135,1.8686,1.8343,1.6931,1.5558,1.5683,1.5601,1.608,1.6637,1.53,1.3969,1.3723,1.3544,1.2787,1.0904,1.0381,0.9481,0.795,0.787,0.8113,0.8153,0.807,0.8079,0.7864,0.7834,0.7446,0.7327,0.7346,0.7412,0.7455,0.7546,0.7652,0.7824,0.8385,0.8944,0.9427,0.9645,1.0449,1.0938,1.1318,1.1695,1.2507,1.2722,1.2446,1.2249,1.3127,1.3141,1.1785,1.078,1.1175,2.2737,2.2614,2.2614,2.2519,2.2397,2.2387,2.2387,2.2387,2.2387,2.2387,2.2387,2.2387,2.2387,2.2387,2.2387,2.2387,2.2397,2.2529,2.2538,2.2416,2.2397,2.2397,2.2425,2.2548,2.269,2.2794,2.2812,2.285,2.2907,2.2916,2.2964,2.3001,2.302,2.3011,2.3049,2.3102,2.3238,2.3247,2.3328,2.3385,2.3427,2.3304,2.3238,2.3219,2.3045,2.2935,2.2831,2.2822,2.285,2.2916,2.2916,2.2945,2.3001,2.3011,2.3077,2.3209,2.3228,2.3253,2.3366,2.3375,2.3189,2.2697,2.1397,2.0318,1.9743,1.7663,1.6131,1.5832,1.5057,1.4632,1.4115,1.2807,1.3034,1.5111,1.3393,1.1827,1.1389,1.0286,0.9021,0.8336,0.814,0.7789,0.7429,0.7177,0.7269,0.7291,0.7267,0.7349,0.7357,0.7316,0.7363,0.7338,0.7447,0.7466,0.744,0.7467,0.7475,0.7537,0.7564,0.7594,0.7611,0.7703,0.8328,0.8715,0.9034,0.9475,1.0233,1.0432,1.0326,0.9872,1.0075,0.9415,0.8326,0.8494,0.9386,2.2935,2.2831,2.2822,2.2746,2.2623,2.2623,2.2623,2.2623,2.2623,2.2623,2.2623,2.2623,2.2623,2.2623,2.2623,2.2623,2.2633,2.2765,2.2746,2.2633,2.2623,2.2623,2.2633,2.2746,2.2879,2.2983,2.3011,2.3058,2.3134,2.3134,2.3172,2.3238,2.3323,2.3379,2.3389,2.3568,2.3682,2.3701,2.3805,2.3871,2.3842,2.3739,2.3672,2.3663,2.355,2.3446,2.3379,2.337,2.3285,2.3181,2.314,2.3238,2.3247,2.3257,2.3304,2.3357,2.324,2.3142,2.3254,2.3038,2.2435,2.1232,1.9762,1.8266,1.7012,1.4868,1.3306,1.3037,1.2092,1.1614,1.1144,1.0227,1.0203,1.1661,1.0681,0.9717,0.9191,0.8172,0.7452,0.7379,0.7336,0.7294,0.731,0.7324,0.7357,0.7362,0.739,0.7414,0.7363,0.7382,0.7414,0.7384,0.74,0.7429,0.747,0.75,0.7586,0.76,0.7613,0.7638,0.7654,0.7709,0.8109,0.8146,0.8416,0.8479,0.9113,0.8811,0.8576,0.7942,0.7894,0.7883,0.7931,0.7936,0.8474,2.3039,2.303,2.303,2.3011,2.2983,2.2973,2.2964,2.2992,2.2983,2.2973,2.2973,2.2954,2.2973,2.2992,2.2945,2.2945,2.3001,2.302,2.303,2.302,2.303,2.3039,2.3011,2.302,2.3068,2.3096,2.3096,2.3181,2.3291,2.3389,2.3413,2.3625,2.3814,2.4008,2.4008,2.4217,2.4283,2.422,2.4268,2.4349,2.434,2.4311,2.4302,2.4239,2.4236,2.4141,2.3989,2.3923,2.372,2.3385,2.3451,2.3517,2.3555,2.3583,2.3545,2.3555,2.3108,2.2892,2.2703,2.2003,2.091,1.9127,1.7721,1.6683,1.4341,1.1945,1.0386,1.0256,0.8743,0.7593,0.769,0.7578,0.7686,0.7504,0.7929,0.7755,0.7464,0.7412,0.7398,0.7341,0.7409,0.7409,0.7398,0.7409,0.736,0.7365,0.7373,0.739,0.739,0.7412,0.7406,0.7428,0.74,0.7432,0.7467,0.7492,0.753,0.7679,0.7687,0.7698,0.7717,0.7769,0.7812,0.785,0.7869,0.788,0.7886,0.7878,0.7878,0.7888,0.7894,0.7894,0.7894,0.7894,0.7894,2.3338,2.3257,2.3247,2.3162,2.302,2.3011,2.302,2.3011,2.302,2.3039,2.302,2.3011,2.303,2.3011,2.302,2.3011,2.3068,2.314,2.3196,2.3275,2.3408,2.337,2.3275,2.3206,2.3272,2.3385,2.3394,2.3502,2.3517,2.371,2.3814,2.388,2.4131,2.4236,2.4264,2.4444,2.4495,2.4523,2.4709,2.4702,2.4684,2.4614,2.4558,2.4539,2.4406,2.4311,2.4217,2.4094,2.3842,2.3545,2.3545,2.3583,2.3418,2.3367,2.3263,2.3108,2.2858,2.266,2.2211,2.0671,1.9099,1.79,1.5034,1.258,1.156,0.9317,0.8111,0.7871,0.7286,0.7096,0.7228,0.7313,0.7357,0.7458,0.7428,0.7343,0.7417,0.7365,0.7409,0.7368,0.7363,0.7365,0.7376,0.7398,0.7423,0.7431,0.7452,0.7477,0.7466,0.7469,0.7474,0.7444,0.74,0.7429,0.7459,0.7484,0.7548,0.7736,0.7769,0.7771,0.7793,0.7826,0.7858,0.7888,0.7883,0.7891,0.7891,0.7888,0.7894,0.7894,0.7894,0.7894,0.7894,0.7894,0.7894,2.3517,2.3413,2.3413,2.3389,2.3275,2.3225,2.3225,2.3275,2.3225,2.3275,2.3225,2.3275,2.3275,2.3225,2.3275,2.3275,2.3294,2.3347,2.3404,2.3423,2.3517,2.3498,2.3423,2.3413,2.347,2.3583,2.3729,2.3767,2.3805,2.3984,2.4131,2.4179,2.4349,2.4391,2.4409,2.4598,2.4712,2.4731,2.4825,2.4882,2.4873,2.4778,2.4721,2.4693,2.458,2.4548,2.4444,2.4202,2.3722,2.2909,2.254,2.227,2.1544,2.1492,2.1284,2.086,2.03,1.9817,1.9098,1.7526,1.6062,1.47,1.2039,1.0514,0.9225,0.7712,0.7096,0.7173,0.7125,0.7211,0.7218,0.7322,0.7431,0.7507,0.7448,0.7427,0.7427,0.7427,0.7413,0.7444,0.7433,0.7433,0.7431,0.7463,0.7477,0.7432,0.7448,0.7465,0.7529,0.7537,0.7467,0.7427,0.7438,0.754,0.7586,0.7557,0.7597,0.7777,0.7826,0.7831,0.7842,0.7867,0.788,0.7894,0.7894,0.7894,0.7894,0.7894,0.7894,0.7894,0.7894,0.7894,0.7894,0.7894,0.7894,2.3583,2.3583,2.3583,2.3583,2.3564,2.3573,2.3536,2.3564,2.3536,2.3545,2.3545,2.3564,2.3517,2.3583,2.3498,2.3555,2.3555,2.3536,2.3644,2.3611,2.3649,2.3639,2.3687,2.3691,2.3682,2.3729,2.3899,2.4027,2.4094,2.4255,2.434,2.4397,2.4513,2.4608,2.4636,2.4787,2.4873,2.4863,2.4863,2.4882,2.4882,2.4863,2.4844,2.4835,2.4835,2.4686,2.4393,2.3894,2.2805,2.0926,2.093,2.0123,1.8791,1.8304,1.7937,1.7229,1.6796,1.6058,1.4785,1.4299,1.2753,1.1256,1.0618,0.9407,0.7765,0.7242,0.7158,0.722,0.7175,0.7258,0.7332,0.7379,0.7402,0.7462,0.7534,0.7537,0.7478,0.7478,0.7478,0.7478,0.7534,0.7537,0.7478,0.7478,0.7475,0.7454,0.7473,0.7475,0.7478,0.7537,0.7467,0.7443,0.7481,0.7602,0.7654,0.7703,0.7749,0.7818,0.7856,0.7872,0.7872,0.7886,0.7888,0.7894,0.7894,0.7894,0.7894,0.7894,0.7894,0.7894,0.7894,0.7894,0.7894,0.7894,0.7894,2.3583,2.3583,2.3583,2.3583,2.3583,2.3583,2.3583,2.3583,2.3583,2.3583,2.3583,2.3583,2.3583,2.3583,2.3592,2.3583,2.3602,2.3621,2.372,2.3942,2.389,2.3994,2.405,2.3975,2.3899,2.3946,2.415,2.4245,2.4302,2.4453,2.4513,2.4542,2.4684,2.4816,2.4825,2.4844,2.4882,2.4882,2.4882,2.4882,2.4882,2.4828,2.4828,2.4773,2.4719,2.4482,2.3729,2.2134,2.0069,1.8773,1.8901,1.8419,1.6521,1.5961,1.5747,1.5391,1.5034,1.4687,1.4171,1.2313,1.1014,1.0317,0.8938,0.7713,0.7379,0.7164,0.7175,0.7175,0.7177,0.7277,0.7376,0.7401,0.7411,0.7462,0.7478,0.7478,0.7478,0.7478,0.7478,0.7478,0.7478,0.7478,0.7478,0.7478,0.7478,0.7478,0.7478,0.7478,0.7478,0.7478,0.7467,0.7451,0.7494,0.7608,0.7646,0.77,0.7763,0.7812,0.7853,0.7891,0.7891,0.7894,0.7894,0.7894,0.7894,0.7894,0.7894,0.7894,0.7894,0.7894,0.7894,0.7894,0.7894,0.7894,0.7894,2.3583,2.3583,2.3583,2.3583,2.3583,2.3583,2.3583,2.3583,2.3583,2.3583,2.3583,2.3583,2.3583,2.3592,2.3739,2.3795,2.3814,2.389,2.3994,2.4141,2.416,2.4217,2.4311,2.4311,2.422,2.4217,2.4315,2.4409,2.4466,2.4598,2.4721,2.4721,2.4835,2.4863,2.4882,2.4882,2.4882,2.4882,2.4882,2.4882,2.4882,2.461,2.4283,2.3783,2.3064,2.2261,2.1741,1.9574,1.7076,1.5448,1.5439,1.5284,1.3578,1.3065,1.2837,1.2375,1.2123,1.1567,1.0798,0.9942,0.8969,0.9055,0.7846,0.7451,0.7175,0.7175,0.7175,0.7175,0.7241,0.728,0.7343,0.7412,0.7413,0.7462,0.7478,0.7478,0.7478,0.7478,0.7478,0.7478,0.7478,0.7478,0.7478,0.7478,0.7478,0.7478,0.7478,0.7478,0.7478,0.7478,0.747,0.747,0.7564,0.76,0.7632,0.7684,0.7749,0.7793,0.7826,0.7867,0.7888,0.7891,0.7894,0.7894,0.7894,0.7894,0.7894,0.7894,0.7894,0.7894,0.7894,0.7894,0.7894,0.7894,0.7894,2.3583,2.3583,2.3583,2.3583,2.3583,2.3583,2.3531,2.3479,2.3479,2.3428,2.3446,2.3456,2.3399,2.3687,2.3761,2.3898,2.405,2.4198,2.4283,2.4359,2.4315,2.4416,2.4482,2.4523,2.4532,2.4391,2.4542,2.4627,2.4674,2.4787,2.4844,2.4873,2.4873,2.4882,2.4882,2.4882,2.4882,2.4882,2.4719,2.4664,2.461,2.4165,2.361,2.2957,2.1227,2.0065,1.932,1.7036,1.4298,1.1819,1.1275,1.0789,1.0291,0.9953,0.9613,0.881,0.8979,0.8763,0.8356,0.764,0.7412,0.7302,0.7263,0.7233,0.7175,0.7175,0.7175,0.7241,0.7258,0.7256,0.7349,0.7431,0.7424,0.7465,0.7478,0.7478,0.7478,0.7478,0.7478,0.7478,0.7478,0.7478,0.7478,0.7478,0.7478,0.7478,0.7478,0.7478,0.7478,0.7478,0.7473,0.7486,0.7578,0.7624,0.766,0.7668,0.7733,0.7755,0.779,0.7818,0.7853,0.7858,0.7858,0.7888,0.7894,0.7894,0.7894,0.7894,0.7894,0.7894,0.7894,0.7894,0.7894,0.7894,0.7894,2.3583,2.3583,2.3583,2.3583,2.3583,2.3583,2.3324,2.2962,2.291,2.291,2.2886,2.2666,2.3105,2.3589,2.3589,2.3725,2.4037,2.4165,2.4284,2.4397,2.4371,2.4472,2.4604,2.4641,2.4724,2.4797,2.4806,2.4806,2.4816,2.4873,2.4828,2.4882,2.4828,2.4828,2.4773,2.4882,2.4719,2.461,2.4337,2.4174,2.401,2.3265,2.2748,2.2126,1.997,1.8654,1.7447,1.4674,1.2017,1.0877,0.908,0.8315,0.8208,0.8132,0.7947,0.781,0.7674,0.7547,0.7272,0.7188,0.718,0.7185,0.718,0.7177,0.7175,0.7177,0.718,0.721,0.7324,0.7338,0.7412,0.7452,0.7512,0.7478,0.7478,0.7478,0.7478,0.7478,0.7478,0.7478,0.7478,0.7478,0.7478,0.7478,0.7478,0.7478,0.7478,0.7478,0.7478,0.7478,0.7478,0.75,0.7589,0.7643,0.7695,0.769,0.7709,0.7711,0.7733,0.7744,0.7777,0.7801,0.782,0.7872,0.7894,0.7894,0.7894,0.7894,0.7894,0.7894,0.7894,0.7894,0.7894,0.7894,0.7894,2.3583,2.3583,2.3583,2.3428,2.3221,2.3169,2.291,2.2444,2.2392,2.2454,2.2448,2.2398,2.2601,2.3087,2.3161,2.3341,2.3583,2.3664,2.3728,2.381,2.3819,2.4064,2.4383,2.4446,2.4664,2.4818,2.4882,2.4882,2.4882,2.4882,2.4719,2.4446,2.4446,2.4283,2.401,2.3947,2.401,2.3901,2.3737,2.3519,2.3219,2.1895,2.0693,1.9625,1.7105,1.502,1.4047,1.152,0.9423,0.8867,0.7977,0.7479,0.7373,0.739,0.7398,0.7362,0.7313,0.7299,0.7299,0.728,0.7244,0.7272,0.725,0.7177,0.7175,0.7177,0.7188,0.724,0.7327,0.7403,0.7409,0.7482,0.7529,0.7478,0.7478,0.7475,0.7478,0.7478,0.7478,0.7478,0.7478,0.7478,0.7478,0.7478,0.7478,0.7478,0.7478,0.7478,0.7478,0.7478,0.7478,0.7548,0.7572,0.7594,0.764,0.7646,0.766,0.7665,0.7624,0.7695,0.7736,0.7777,0.7829,0.788,0.7891,0.7894,0.7894,0.7894,0.7894,0.7894,0.7894,0.7894,0.7894,0.7894,0.7894,2.3376,2.3272,2.3272,2.3014,2.2703,2.2651,2.234,2.1933,2.1873,2.1978,2.2117,2.2108,2.2229,2.2582,2.2811,2.2987,2.3128,2.3119,2.3165,2.3219,2.3219,2.3401,2.3737,2.401,2.4228,2.4555,2.4664,2.4719,2.4664,2.4664,2.4337,2.3956,2.3792,2.3619,2.3292,2.3292,2.3128,2.3082,2.2973,2.2808,2.1491,1.9352,1.756,1.6931,1.2978,1.1078,1.1149,0.9104,0.789,0.763,0.74,0.7351,0.7321,0.7349,0.7376,0.7362,0.7291,0.7256,0.7316,0.7294,0.7247,0.7277,0.7255,0.7236,0.7175,0.718,0.7194,0.7256,0.733,0.739,0.7387,0.7458,0.7496,0.7457,0.7457,0.7465,0.7475,0.7478,0.7478,0.7478,0.7478,0.7478,0.7478,0.7478,0.7478,0.7478,0.7478,0.7478,0.7478,0.7478,0.7478,0.7478,0.7545,0.7545,0.7561,0.757,0.7589,0.7608,0.7578,0.7603,0.7717,0.7774,0.7826,0.7869,0.7891,0.7894,0.7894,0.7894,0.7894,0.7894,0.7894,0.7894,0.7894,0.7894,0.7894,2.2599,2.2184,2.2184,2.2132,2.208,2.208,2.1778,2.1335,2.1428,2.146,2.1562,2.1387,2.1852,2.2477,2.2887,2.2992,2.3018,2.2964,2.2909,2.2854,2.2909,2.2964,2.3292,2.3783,2.3846,2.4065,2.4119,2.411,2.4065,2.4065,2.3792,2.3346,2.3191,2.3073,2.2909,2.2854,2.3128,2.3018,2.2535,2.1102,1.8686,1.6217,1.4884,1.3957,1.217,1.0481,1.0079,0.8413,0.7439,0.7321,0.7274,0.7196,0.7188,0.7191,0.7196,0.721,0.7221,0.7237,0.7213,0.7188,0.7233,0.7252,0.7185,0.7177,0.7241,0.7194,0.7199,0.7183,0.7262,0.7316,0.7341,0.736,0.7403,0.7392,0.7427,0.7446,0.7465,0.7478,0.7478,0.7478,0.7478,0.7478,0.7478,0.7478,0.7478,0.7478,0.7478,0.7475,0.7473,0.7467,0.7478,0.7478,0.7462,0.7459,0.7478,0.7478,0.7486,0.7502,0.7543,0.7584,0.77,0.776,0.7801,0.7839,0.7869,0.7894,0.7894,0.7894,0.7894,0.7894,0.7894,0.7894,0.7894,0.7894,0.7894,2.1925,2.2029,2.2029,2.1821,2.157,2.1561,2.1265,2.0947,2.0925,2.1082,2.121,2.1151,2.1444,2.2034,2.2126,2.2143,2.2143,2.2152,2.2152,2.2198,2.2198,2.2371,2.2636,2.2918,2.3137,2.3455,2.3455,2.3246,2.3246,2.33,2.3182,2.2754,2.2644,2.2425,2.2316,2.2152,2.2152,2.1683,2.0678,1.918,1.7184,1.4414,1.2298,1.2231,1.0113,0.9155,0.8641,0.813,0.7362,0.7294,0.7183,0.7177,0.7175,0.7177,0.7177,0.7177,0.7252,0.7252,0.718,0.7175,0.7177,0.7188,0.7205,0.7285,0.7288,0.7307,0.7307,0.7288,0.734,0.7324,0.7352,0.739,0.7436,0.7413,0.7421,0.7443,0.7465,0.7473,0.7478,0.7478,0.7478,0.7478,0.747,0.7448,0.7451,0.7465,0.7459,0.7454,0.7446,0.7438,0.7454,0.7478,0.7457,0.7432,0.7462,0.7478,0.7478,0.7559,0.7605,0.7586,0.7632,0.7744,0.7801,0.7842,0.7878,0.7894,0.7894,0.7894,0.7894,0.7894,0.7894,0.7894,0.7894,0.7894,0.7894,2.1206,2.1561,2.1561,2.1362,2.1006,2.0996,2.0886,2.0641,2.0763,2.0889,2.1083,2.1173,2.127,2.136,2.1486,2.1549,2.1439,2.1384,2.1384,2.1384,2.1439,2.1713,2.2042,2.2261,2.259,2.2909,2.2918,2.2754,2.259,2.248,2.2425,2.2097,2.2042,2.1878,2.1549,2.1502,2.1565,2.1426,1.8565,1.7112,1.6009,1.2251,1.049,0.949,0.8514,0.7379,0.7376,0.7417,0.7357,0.7229,0.7185,0.7175,0.7175,0.7175,0.7175,0.7175,0.7239,0.7239,0.7177,0.7177,0.7183,0.721,0.7248,0.7346,0.7349,0.7382,0.7393,0.7343,0.7351,0.7354,0.7403,0.7357,0.7442,0.7469,0.7499,0.7518,0.7534,0.7537,0.7478,0.7478,0.7478,0.7478,0.7459,0.7419,0.7419,0.7443,0.7443,0.7438,0.7432,0.7429,0.7448,0.7537,0.7465,0.7443,0.7459,0.7478,0.7478,0.7556,0.7602,0.7651,0.77,0.7771,0.7842,0.7875,0.7894,0.7894,0.7894,0.7894,0.7894,0.7894,0.7894,0.7894,0.7894,0.7894,0.7894,2.0372,2.0424,2.0424,2.0424,2.0388,2.0559,2.0633,2.0645,2.0945,2.1083,2.1165,2.1278,2.1352,2.1384,2.1384,2.1384,2.1384,2.1384,2.1384,2.1384,2.1384,2.1439,2.1713,2.1987,2.2261,2.2316,2.2316,2.2316,2.2152,2.1823,2.1658,2.1494,2.1603,2.1494,2.1227,2.1024,2.0962,2.0099,1.691,1.472,1.3481,1.0608,0.7995,0.7862,0.7579,0.7384,0.7378,0.7379,0.7314,0.7237,0.7196,0.7175,0.7175,0.7175,0.7175,0.7175,0.7175,0.7175,0.7175,0.718,0.7207,0.7313,0.7362,0.7338,0.7393,0.7346,0.7351,0.7373,0.7351,0.7371,0.7346,0.7371,0.7423,0.7408,0.7446,0.7457,0.747,0.7537,0.7478,0.7478,0.7478,0.7478,0.7473,0.7438,0.7424,0.7448,0.7462,0.7457,0.7454,0.7451,0.7459,0.7475,0.7473,0.7467,0.7473,0.7478,0.7478,0.7564,0.7608,0.7657,0.7706,0.7785,0.7853,0.7883,0.7894,0.7894,0.7894,0.7894,0.7894,0.7894,0.7894,0.7894,0.7894,0.7894,0.7894,2.0268,2.0268,2.0268,2.0268,2.0284,2.0515,2.0653,2.0783,2.1019,2.1197,2.1287,2.1352,2.1384,2.1384,2.1384,2.1384,2.1384,2.1384,2.1384,2.1384,2.1384,2.1384,2.1549,2.1603,2.1768,2.1768,2.1768,2.1768,2.1658,2.1494,2.1439,2.1384,2.129,2.1384,2.1181,2.0164,1.957,1.8243,1.5101,1.2339,1.1529,0.943,0.7346,0.7352,0.7357,0.7362,0.7387,0.739,0.7329,0.7221,0.7188,0.718,0.7175,0.7175,0.7175,0.7175,0.7175,0.7175,0.7177,0.7239,0.7274,0.7362,0.7401,0.7414,0.7409,0.7357,0.7313,0.7254,0.727,0.7357,0.7406,0.7395,0.7442,0.7424,0.7448,0.7457,0.7465,0.7475,0.7478,0.7478,0.7478,0.7478,0.7473,0.7462,0.7454,0.7454,0.7467,0.7478,0.747,0.7459,0.7459,0.7526,0.7465,0.747,0.7475,0.7475,0.7481,0.7575,0.7619,0.767,0.7722,0.7766,0.7829,0.7864,0.7888,0.7883,0.7883,0.7891,0.7894,0.7894,0.7894,0.7894,0.7894,0.7894,0.7894,2.0268,2.0328,2.0385,2.0401,2.0426,2.0596,2.0828,2.0945,2.1132,2.1262,2.1384,2.1384,2.1384,2.1384,2.1384,2.1384,2.1384,2.1384,2.1384,2.1384,2.1384,2.1384,2.1384,2.1439,2.1494,2.1384,2.1384,2.1439,2.1439,2.1384,2.1425,2.1292,2.0796,2.0583,2.0954,1.9228,1.7742,1.6197,1.3468,1.0988,1.0675,0.874,0.7414,0.7384,0.737,0.7412,0.7365,0.7365,0.7302,0.7258,0.7177,0.7175,0.7175,0.7175,0.7175,0.7175,0.7175,0.7175,0.7177,0.7261,0.7294,0.736,0.7404,0.7409,0.7398,0.7303,0.7267,0.7292,0.73,0.7379,0.7447,0.7455,0.7482,0.7462,0.7465,0.7473,0.7473,0.7478,0.7478,0.7478,0.7478,0.7478,0.7475,0.747,0.7467,0.7502,0.7458,0.7488,0.747,0.7454,0.7435,0.7446,0.7459,0.7465,0.747,0.7494,0.7575,0.76,0.7643,0.7692,0.7741,0.7779,0.7807,0.7834,0.7853,0.7867,0.7864,0.7853,0.7869,0.7891,0.7894,0.7894,0.7894,0.7894,0.7894,2.0268,2.0344,2.0507,2.058,2.0612,2.0828,2.0945,2.11,2.1278,2.1368,2.1384,2.1384,2.1384,2.1384,2.1384,2.1384,2.1384,2.1384,2.1384,2.1384,2.1384,2.1384,2.1384,2.1384,2.1384,2.1384,2.1384,2.1384,2.1384,2.1425,2.1553,2.0938,1.9967,1.9153,2.112,1.9219,1.6978,1.4713,1.1934,1.0821,1.0089,0.8366,0.7563,0.7409,0.7365,0.7401,0.7341,0.7338,0.7277,0.7185,0.7175,0.7175,0.7175,0.7175,0.7175,0.7175,0.7175,0.7175,0.7177,0.7285,0.7313,0.7335,0.7376,0.7401,0.7398,0.7371,0.7303,0.7338,0.7371,0.7409,0.7474,0.7467,0.7473,0.7534,0.7537,0.7478,0.7478,0.7478,0.7478,0.7478,0.7478,0.7478,0.7478,0.7478,0.7478,0.7499,0.7417,0.7431,0.7448,0.7462,0.7443,0.7446,0.7462,0.7467,0.7484,0.7586,0.7613,0.7635,0.766,0.77,0.7747,0.779,0.7807,0.7815,0.782,0.7831,0.782,0.7807,0.7842,0.788,0.7891,0.7894,0.7894,0.7894,0.7894,2.0268,2.0284,2.0515,2.0661,2.0836,2.0962,2.1075,2.1148,2.1295,2.1384,2.1384,2.1384,2.1384,2.1384,2.1384,2.1384,2.1384,2.1384,2.1384,2.1384,2.1384,2.1384,2.1384,2.1384,2.1384,2.1384,2.1384,2.1384,2.1384,2.1481,2.1626,2.1112,1.9043,1.7888,1.6593,1.4817,1.2804,1.2041,1.0046,0.8562,0.8583,0.7854,0.7371,0.7395,0.7395,0.7363,0.7362,0.7245,0.7202,0.7177,0.7175,0.7175,0.7175,0.7175,0.7175,0.7175,0.7175,0.7175,0.7177,0.7255,0.728,0.7313,0.7343,0.7376,0.7398,0.7354,0.7382,0.7376,0.7409,0.7439,0.7408,0.7457,0.7473,0.7475,0.7478,0.7478,0.7478,0.7478,0.7478,0.7478,0.7478,0.7475,0.7473,0.7457,0.7512,0.7457,0.7447,0.7461,0.7467,0.7475,0.7465,0.7467,0.7475,0.7475,0.7551,0.7586,0.7613,0.763,0.7654,0.7687,0.7736,0.7785,0.779,0.7785,0.779,0.7793,0.7782,0.7782,0.7834,0.7867,0.7883,0.7894,0.7894,0.7894,0.7894,2.0361,2.0434,2.0612,2.0824,2.1027,2.11,2.1157,2.123,2.1335,2.1384,2.1384,2.1384,2.1384,2.1384,2.1384,2.1384,2.1384,2.1384,2.1384,2.1384,2.1384,2.1384,2.1384,2.1384,2.1384,2.1384,2.1392,2.14,2.1498,2.1659,2.0553,1.8952,1.793,1.5135,1.3145,1.1366,1.0917,1.0055,0.8251,0.7648,0.7621,0.7431,0.7393,0.7387,0.7371,0.7387,0.7324,0.7215,0.7175,0.7175,0.7175,0.7175,0.7175,0.7175,0.7175,0.7175,0.7175,0.7175,0.7177,0.7177,0.7266,0.7316,0.7321,0.734,0.7379,0.7365,0.7341,0.7387,0.7365,0.7392,0.7416,0.7462,0.7465,0.7526,0.7473,0.7473,0.7475,0.7475,0.7478,0.7478,0.7478,0.7473,0.7454,0.744,0.7485,0.7427,0.7424,0.7451,0.7526,0.7462,0.7465,0.747,0.7473,0.7475,0.7489,0.7519,0.7543,0.7565,0.7649,0.7673,0.7711,0.7755,0.7755,0.7752,0.7747,0.7744,0.7744,0.776,0.7818,0.7861,0.7888,0.7894,0.7894,0.7894,0.7894,2.0426,2.0612,2.0836,2.1105,2.1319,2.123,2.1254,2.1376,2.1384,2.1384,2.1384,2.1384,2.1384,2.1384,2.1384,2.1384,2.1384,2.1384,2.1384,2.1384,2.1384,2.1384,2.1384,2.1384,2.1384,2.1384,2.1425,2.1569,2.1644,2.1079,1.8959,1.5877,1.5022,1.2402,1.0377,0.9548,0.95,0.8382,0.7821,0.7408,0.7435,0.7408,0.737,0.7406,0.7376,0.7376,0.7259,0.7202,0.718,0.7175,0.7175,0.7175,0.7175,0.7175,0.7175,0.7175,0.7175,0.7175,0.7175,0.7175,0.7194,0.724,0.727,0.727,0.7297,0.7393,0.7365,0.7398,0.7375,0.7411,0.7502,0.7504,0.7504,0.7454,0.7459,0.7462,0.7467,0.747,0.7475,0.7478,0.7478,0.7465,0.7421,0.74,0.7458,0.745,0.7394,0.7413,0.7427,0.7421,0.7429,0.7454,0.7459,0.747,0.7489,0.7508,0.7538,0.7562,0.757,0.7594,0.7692,0.7717,0.7714,0.7709,0.7698,0.7698,0.7717,0.7758,0.7812,0.785,0.7888,0.7894,0.7894,0.7894,0.7894,2.0426,2.0612,2.0836,2.1113,2.1368,2.1473,2.1465,2.1392,2.1384,2.1384,2.1384,2.1384,2.1384,2.1384,2.1384,2.1384,2.1384,2.1384,2.1384,2.1384,2.1384,2.1384,2.1384,2.1384,2.1384,2.1441,2.1506,2.15,2.1159,2.0443,1.6952,1.3077,1.2766,1.0337,0.8918,0.8195,0.7978,0.7741,0.7413,0.7435,0.7451,0.7424,0.7384,0.7393,0.7373,0.7365,0.728,0.7191,0.7175,0.7175,0.7175,0.7175,0.7175,0.7175,0.7175,0.7175,0.7175,0.7175,0.7175,0.7175,0.7188,0.7229,0.7332,0.7354,0.7373,0.7376,0.7387,0.7409,0.7409,0.7428,0.7442,0.7447,0.7452,0.7461,0.7421,0.7446,0.7454,0.7467,0.7473,0.7478,0.7478,0.7451,0.7405,0.7378,0.7375,0.7417,0.7412,0.7365,0.7378,0.7431,0.7397,0.7424,0.7435,0.7443,0.7467,0.7492,0.7527,0.7557,0.7559,0.7573,0.7673,0.7687,0.7673,0.7662,0.7651,0.7676,0.7709,0.7755,0.7804,0.7856,0.7894,0.7894,0.7894,0.7894,0.7894,2.0462,2.0807,2.0921,2.1165,2.149,2.1693,2.1636,2.1416,2.1384,2.1384,2.1384,2.1384,2.1384,2.1384,2.1384,2.1384,2.1384,2.1384,2.1384,2.1384,2.1384,2.1384,2.1384,2.14,2.1441,2.1506,2.139,2.1167,2.0065,1.8031,1.4876,1.1837,1.1269,0.9675,0.8259,0.761,0.7552,0.7485,0.7419,0.7432,0.7438,0.7438,0.7439,0.7428,0.7414,0.734,0.725,0.7177,0.7175,0.7175,0.7175,0.7175,0.7175,0.7175,0.7175,0.7175,0.7175,0.7175,0.7175,0.7175,0.7244,0.7274,0.7335,0.7333,0.7384,0.7398,0.7398,0.7401,0.7376,0.7363,0.7371,0.7379,0.739,0.7401,0.7442,0.7427,0.7446,0.7462,0.747,0.7478,0.7465,0.744,0.7411,0.7378,0.7395,0.7357,0.7327,0.7316,0.7346,0.7368,0.7409,0.7397,0.7405,0.7413,0.7446,0.7478,0.7502,0.7521,0.7519,0.754,0.7646,0.766,0.7649,0.763,0.7551,0.7649,0.7698,0.7744,0.7793,0.785,0.7894,0.7894,0.7894,0.7894,0.7894,2.0608,2.1124,2.1135,2.14,2.1716,2.1839,2.1717,2.14,2.1384,2.1384,2.1384,2.1384,2.1384,2.1384,2.1384,2.1384,2.1384,2.1384,2.1384,2.1384,2.1384,2.1392,2.1441,2.1425,2.1151,2.135,2.0856,1.9594,1.7619,1.5554,1.3397,1.1152,1.0747,0.9376,0.776,0.7491,0.7429,0.7405,0.7405,0.7416,0.7459,0.7518,0.748,0.7376,0.7393,0.7349,0.7263,0.7175,0.7175,0.7175,0.7175,0.7175,0.7175,0.7175,0.7175,0.7175,0.7175,0.7175,0.7175,0.7175,0.7202,0.7229,0.7321,0.7346,0.7324,0.7363,0.7363,0.7346,0.7319,0.7373,0.7379,0.7324,0.7333,0.7373,0.7423,0.7461,0.7429,0.7451,0.7475,0.7478,0.7473,0.7443,0.7431,0.7395,0.7363,0.7362,0.7316,0.724,0.727,0.7311,0.7363,0.7362,0.7367,0.7444,0.7454,0.7478,0.7478,0.7486,0.7489,0.7494,0.7586,0.7605,0.7621,0.76,0.7524,0.764,0.7695,0.7733,0.7785,0.7861,0.7894,0.7894,0.7894,0.7886,0.7894,2.088,2.1127,2.1709,2.1847,2.1693,2.1855,2.1725,2.1392,2.1384,2.1384,2.1384,2.1384,2.1384,2.1384,2.1384,2.1384,2.1384,2.1384,2.1384,2.1282,2.1282,2.0922,2.1294,2.0748,2.0347,1.9472,1.8575,1.7085,1.4328,1.2474,1.0977,0.8823,0.8644,0.8089,0.7511,0.7421,0.7413,0.7392,0.7402,0.7427,0.7467,0.7427,0.737,0.7363,0.7376,0.7318,0.7252,0.7175,0.7175,0.7175,0.7175,0.7175,0.7175,0.7175,0.7175,0.7175,0.7175,0.7175,0.7175,0.7175,0.7188,0.7207,0.7226,0.7285,0.7305,0.7286,0.7297,0.7278,0.7267,0.7327,0.7329,0.7273,0.7286,0.7343,0.7401,0.7433,0.7469,0.7443,0.7473,0.7478,0.7478,0.7485,0.7414,0.7363,0.7382,0.7332,0.7277,0.7205,0.7243,0.734,0.7322,0.7371,0.7379,0.7412,0.7491,0.7478,0.7478,0.7478,0.7484,0.7481,0.7478,0.7559,0.7581,0.7505,0.7505,0.7624,0.7676,0.7709,0.7769,0.7839,0.7864,0.7853,0.7864,0.7864,0.788,2.1173,2.1483,2.2074,2.2107,2.1839,2.1896,2.1725,2.1425,2.1384,2.1384,2.1384,2.1384,2.1384,2.1384,2.1384,2.1384,2.1384,2.1384,2.1384,2.1282,2.0355,1.9822,1.9793,1.921,1.7802,1.6725,1.5469,1.36,1.132,0.9872,0.8647,0.7655,0.7475,0.7448,0.74,0.7408,0.7411,0.7392,0.7411,0.7446,0.7473,0.7419,0.7417,0.7357,0.7354,0.7294,0.7252,0.7175,0.7175,0.7175,0.7175,0.7175,0.7175,0.7175,0.7175,0.7175,0.7175,0.7175,0.7175,0.7175,0.7175,0.7191,0.7196,0.7258,0.7255,0.7232,0.7234,0.7215,0.7213,0.7272,0.7288,0.7237,0.7262,0.7308,0.736,0.7401,0.7452,0.7443,0.7465,0.7478,0.747,0.7446,0.7433,0.7376,0.7333,0.7329,0.7213,0.7183,0.7274,0.7332,0.7368,0.7349,0.7376,0.7423,0.7507,0.7478,0.7478,0.7478,0.7478,0.7478,0.7478,0.7478,0.7481,0.7484,0.7502,0.7551,0.7654,0.7687,0.7717,0.7771,0.7793,0.7801,0.7818,0.7831,0.7834,2.1459,2.2017,2.2334,2.2261,2.1904,2.1936,2.1725,2.1416,2.1384,2.1384,2.1384,2.1384,2.1384,2.1384,2.1384,2.1384,2.1384,2.1384,2.1384,2.0244,1.8886,1.8209,1.7109,1.5934,1.5133,1.3794,1.221,1.1483,1.0337,0.8925,0.7925,0.7532,0.7462,0.744,0.7421,0.7435,0.7451,0.7419,0.7429,0.7467,0.7454,0.7472,0.7409,0.7349,0.7346,0.7288,0.7247,0.7175,0.7175,0.7175,0.7175,0.7175,0.7175,0.7175,0.7175,0.7175,0.7175,0.7175,0.7175,0.7175,0.7175,0.7177,0.7175,0.7175,0.7175,0.7177,0.7177,0.7177,0.7175,0.7185,0.7202,0.721,0.7237,0.734,0.7333,0.7368,0.7425,0.7421,0.7438,0.7515,0.7451,0.7432,0.7397,0.7395,0.7338,0.7275,0.7232,0.7205,0.7205,0.7335,0.739,0.7384,0.7431,0.7482,0.7473,0.7478,0.7478,0.7478,0.7478,0.7478,0.7478,0.7478,0.7481,0.7484,0.7511,0.754,0.7632,0.7665,0.7692,0.7717,0.7741,0.7758,0.7755,0.7766,0.7766,2.1936,2.2367,2.2448,2.2261,2.1961,2.1936,2.1725,2.1416,2.1384,2.1384,2.1384,2.1384,2.1384,2.1384,2.1384,2.1219,2.0827,2.0953,1.9825,1.8462,1.735,1.6464,1.5327,1.3838,1.3352,1.174,0.9803,0.8585,0.8934,0.8022,0.7435,0.7475,0.7427,0.7411,0.7411,0.7432,0.7457,0.7432,0.7443,0.7534,0.7499,0.745,0.7384,0.7319,0.7251,0.7205,0.7177,0.7175,0.7175,0.7175,0.7175,0.7175,0.7175,0.7175,0.7175,0.7175,0.7175,0.7175,0.7175,0.7175,0.7175,0.7175,0.7175,0.7175,0.7175,0.7175,0.7177,0.7177,0.718,0.7202,0.721,0.7191,0.7207,0.7338,0.7398,0.7404,0.7376,0.7401,0.7417,0.7447,0.7408,0.7405,0.7408,0.7409,0.7357,0.7297,0.7243,0.7221,0.7307,0.7362,0.736,0.7412,0.7469,0.7504,0.7478,0.7478,0.7478,0.7478,0.7478,0.7478,0.7478,0.7478,0.7481,0.7484,0.7492,0.7511,0.7546,0.763,0.7654,0.7676,0.7703,0.772,0.7706,0.7698,0.7698]},{"header":{"parameterUnit":"m.s-1","parameterCategory":1,"la1":31.0,"la2":29.5877,"lo1":-88.7671,"lo2":-86.6584,"dx":0.0162,"dy":0.0185,"nx":115,"ny":88,"refTime":"2022-11-27T18:00:00:Z","depth":0,"parameterNumber":3,"parameterNumberName":"V-component_of_WINDS"},"data":[0.0,0.0,0.0,0.0,0.0,0.0,0.0,0.0,0.0,0.0,0.0,0.0,0.0,0.0,0.0,0.0,0.0,0.0,0.0,0.0,0.0,0.0,0.0,0.0,0.0,0.0,0.0,0.0,0.0,0.0,0.0,0.0,0.0,0.0,0.0,0.0,0.0,0.0,0.0,0.0,0.0,0.0,0.0,0.0,0.0,0.0,0.0,0.0,0.0,0.0,0.0,0.0,0.0,0.0,0.0,0.0,0.0,0.0,0.0,0.0,0.0,0.0,0.0,0.0,0.0,0.0,0.0,0.0,0.0,0.0,0.0,0.0,0.0,0.0,0.0,0.0,0.0,0.0,0.0,0.0,0.0,0.0,0.0,0.0,0.0,0.0,0.0,0.0,0.0,0.0,0.0,0.0,0.0,0.0,0.0,0.0,0.0,0.0,0.0,0.0,0.0,0.0,0.0,0.0,0.0,0.0,0.0,0.0,0.0,0.0,0.0,0.0,0.0,0.0,0.0,0.0,0.0,0.0,0.0,0.0,0.0,0.0,0.0,0.0,0.0,0.0,0.0,0.0,0.0,0.0,0.0,0.0,0.0,0.0,0.0,0.0,0.0,0.0,0.0,0.0,0.0,0.0,0.0,0.0,0.0,0.0,0.0,0.0,0.0,0.0,0.0,0.0,0.0,0.0,0.0,0.0,0.0,0.0,0.0,0.0,0.0,0.0,0.0,0.0,0.0,0.0,0.0,0.0,0.0,0.0,0.0,0.0,0.0,0.0,0.0,0.0,0.0,0.0,0.0,0.0,0.0,0.0,0.0,0.0,0.0,0.0,0.0,0.0,0.0,0.0,0.0,0.0,0.0,0.0,0.0,0.0,0.0,0.0,0.0,0.0,0.0,0.0,0.0,0.0,0.0,0.0,0.0,0.0,0.0,0.0,0.0,0.0,0.0,0.0,0.0,0.0,0.0,0.0,0.0,0.0,0.0,0.0,0.0,0.0,0.0,0.0,0.0,0.0,0.0,0.0,0.0,0.0,0.0,0.0,0.0,0.0,0.0,0.0,0.0,0.0,0.0,0.0,0.0,0.0,0.0,0.0,0.0,0.0,0.0,0.0,0.0,0.0,0.0,0.0,0.0,0.0,0.0,0.0,0.0,0.0,0.0,0.0,0.0,0.0,0.0,0.0,0.0,0.0,0.0,0.0,0.0,0.0,0.0,0.0,0.0,0.0,0.0,0.0,0.0,0.0,0.0,0.0,0.0,0.0,0.0,0.0,0.0,0.0,0.0,0.0,0.0,0.0,0.0,0.0,0.0,0.0,0.0,0.0,0.0,0.0,0.0,0.0,0.0,0.0,0.0,0.0,0.0,0.0,0.0,0.0,0.0,0.0,0.0,0.0,0.0,0.0,0.0,0.0,0.0,0.0,0.0,0.0,0.0,0.0,0.0,0.0,0.0,0.0,0.0,0.0,0.0,0.0,0.0,0.0,0.0,0.0,0.0,0.0,0.0,0.0,0.0,0.0,0.0,0.0,0.0,0.0,0.0,0.0,0.0,0.0,0.0,0.0,0.0,0.0,0.0,0.0,0.0,0.0,0.0,0.0,0.0,0.0,0.0,0.0,0.0,0.0,0.0,0.0,0.0,0.0,0.0,0.0,0.0,0.0,0.0,0.0,0.0,0.0,0.0,0.0,0.0,0.0,0.0,0.0,0.0,0.0,0.0,0.0,0.0,0.0,0.0,0.0,0.0,0.0,0.0,0.0,0.0,0.0,0.0,0.0,0.0,0.0,0.0,0.0,0.0,0.0,0.0,0.0,0.0,0.0,0.0,0.0,0.0,0.0,0.0,0.0,0.0,0.0,0.0,0.0,0.0,0.0,0.0,0.0,0.0,0.0,0.0,0.0,0.0,0.0,0.0,0.0,0.0,0.0,0.0,0.0,0.0,0.0,0.0,0.0,0.0,0.0,0.0,0.0,0.0,0.0,0.0,0.0,0.0,0.0,0.0,0.0,0.0,0.0,0.0,0.0,0.0,0.0,0.0,0.0,0.0,0.0,0.0,0.0,0.0,0.0,0.0,0.0,0.0,0.0,0.0,0.0,0.0,0.0,0.0,0.0,0.0,0.0,0.0,0.0,0.0,0.0,0.0,0.0,0.0,0.0,0.0,0.0,0.0,0.0,0.0,0.0,0.0,0.0,0.0,0.0,0.0,0.0,0.0,0.0,0.0,0.0,0.0,0.0,0.0,0.0,0.0,0.0,0.0,0.0,0.0,0.0,0.0,0.0,0.0,0.0,0.0,0.0,0.0,0.0,0.0,0.0,0.0,0.0,0.0,0.0,0.0,0.0,0.0,0.0,0.0,0.0,0.0,0.0,0.0,0.0,0.0,0.0,0.0,0.0,0.0,0.0,0.0,0.0,0.0,0.0,0.0,0.0,0.0,0.0,0.0,0.0,0.0,0.0,0.0,0.0,0.0,0.0,0.0,0.0,0.0,0.0,0.0,0.0,0.0,0.0,0.0,0.0,0.0,0.0,0.0,0.0,0.0,0.0,0.0,0.0,0.0,0.0,0.0,0.0,0.0,0.0,0.0,0.0,0.0,0.0,0.0,0.0,0.0,0.0,0.0,0.0,0.0,0.0,0.0,0.0,0.0,0.0,0.0,0.0,0.0,0.0,0.0,0.0,0.0,0.0,0.0,0.0,0.0,0.0,0.0,0.0,0.0,0.0,0.0,0.0,0.0,0.0,0.0,0.0,0.0,0.0,0.0,0.0,0.0,0.0,0.0,0.0,0.0,0.0,0.0,0.0,0.0,0.0,0.0,0.0,0.0,0.0,0.0,0.0,0.0,0.0,0.0,0.0,0.0,0.0,0.0,0.0,0.0,0.0,0.0,0.0,0.0,0.0,0.0,0.0,0.0,0.0,0.0,0.0,0.0,0.0,0.0,0.0,0.0,0.0,0.0,0.0,0.0,0.0,0.0,0.0,0.0,0.0,0.0,0.0,0.0,0.0,0.0,0.0,0.0,0.0,0.0,0.0,0.0,0.0,0.0,0.0,0.0,0.0,0.0,0.0,0.0,0.0,0.0,0.0,0.0,0.0,0.0,0.0,0.0,0.0,0.0,0.0,0.0,0.0,0.0,0.0,0.0,0.0,0.0,0.0,0.0,0.0,0.0,0.0,0.0,0.0,0.0,0.0,0.0,0.0,0.0,0.0,0.0,0.0,0.0,0.0,0.0,0.0,0.0,0.0,0.0,0.0,0.0,0.0,0.0,0.0,0.0,0.0,0.0,0.0,0.0,0.0,0.0,0.0,0.0,0.0,0.0,0.0,0.0,0.0,0.0,0.0,0.0,0.0,0.0,0.0,0.0,0.0,0.0,0.0,0.0,0.0,0.0,0.0,0.0,0.0,0.0,0.0,0.0,0.0,0.0,0.0,0.0,0.0,0.0,0.0,0.0,0.0,0.0,0.0,0.0,0.0,0.0,0.0,0.0,0.0,0.0,0.0,0.0,0.0,0.0,0.0,0.0,0.0,0.0,0.0,0.0,0.0,0.0,0.0,0.0,0.0,0.0,0.0,0.0,0.0,0.0,0.0,0.0,0.0,0.0,0.0,0.0,0.0,0.0,0.0,0.0,0.0,0.0,0.0,0.0,0.0,0.0,0.0,0.0,0.0,0.0,0.0,0.0,0.0,0.0,0.0,0.0,0.0,0.0,0.0,0.0,0.0,0.0,0.0,0.0,0.0,0.0,0.0,0.0,0.0,0.0,0.0,0.0,0.0,0.0,0.0,0.0,0.0,0.0,0.0,0.0,0.0,0.0,0.0,0.0,0.0,0.0,0.0,0.0,0.0,0.0,0.0,0.0,0.0,0.0,0.0,0.0,0.0,0.0,0.0,0.0,0.0,0.0,0.0,0.0,0.0,0.0,0.0,0.0,0.0,0.0,0.0,0.0,0.0,0.0,0.0,0.0,0.0,0.0,0.0,0.0,0.0,0.0,0.0,0.0,0.0,0.0,0.0,0.0,0.0,0.0,0.0,0.0,0.0,0.0,0.0,0.0,0.0,0.0,0.0,0.0,0.0,0.0,0.0,0.0,0.0,0.0,0.0,0.0,0.0,0.0,0.0,0.0,0.0,0.0,0.0,0.0,0.0,0.0,0.0,0.0,0.0,0.0,0.0,0.0,0.0,0.0,0.0,0.0,0.0,0.0,0.0,0.0,0.0,0.0,0.0,0.0,0.0,0.0,0.0,0.0,0.0,0.0,0.0,2.6271,0.0,0.0,0.0,2.5301,0.0,0.0,0.0,0.0,0.0,0.0,0.0,0.0,0.0,0.0,0.0,0.0,0.0,0.0,0.0,0.0,0.0,0.0,0.0,0.0,0.0,0.0,0.0,0.0,0.0,0.0,0.0,0.0,0.0,0.0,0.0,0.0,0.0,0.0,0.0,0.0,0.0,0.0,0.0,0.0,0.0,0.0,0.0,0.0,0.0,0.0,0.0,0.0,0.0,0.0,0.0,0.0,0.0,0.0,0.0,0.0,0.0,0.0,0.0,0.0,0.0,0.0,0.0,0.0,0.0,0.0,0.0,0.0,0.0,0.0,0.0,0.0,0.0,0.0,0.0,0.0,0.0,0.0,0.0,0.0,0.0,0.0,0.0,0.0,0.0,0.0,0.0,0.0,0.0,0.0,0.0,0.0,0.0,0.0,0.0,0.0,0.0,0.0,0.0,0.0,0.0,0.0,0.0,0.0,0.0,0.0,0.0,0.0,0.0,0.0,2.69,2.5402,2.797,2.8363,2.6057,0.0,0.0,0.0,0.0,0.0,0.0,0.0,0.0,0.0,0.0,0.0,0.0,0.0,0.0,0.0,0.0,0.0,0.0,0.0,0.0,0.0,0.0,0.0,0.0,0.0,0.0,0.0,0.0,0.0,0.0,0.0,0.0,0.0,0.0,0.0,0.0,0.0,0.0,0.0,0.0,0.0,0.0,0.0,0.0,0.0,0.0,0.0,0.0,0.0,0.0,0.0,0.0,0.0,0.0,0.0,0.0,0.0,0.0,0.0,0.0,0.0,0.0,0.0,0.0,0.0,0.0,0.0,0.0,0.0,0.0,0.0,0.0,0.0,0.0,0.0,0.0,0.0,0.0,0.0,0.0,0.0,0.0,0.0,0.0,0.0,0.0,0.0,0.0,0.0,0.0,0.0,0.0,0.0,0.0,0.0,0.0,0.0,0.0,0.0,0.0,0.0,0.0,0.0,0.0,0.0,0.0,0.0,0.0,0.0,0.0,0.0,0.0,2.9219,2.9683,2.7371,0.0,0.0,0.0,0.0,0.0,0.0,0.0,0.0,0.0,0.0,0.0,0.0,0.0,0.0,0.0,0.0,0.0,0.0,0.0,0.0,0.0,0.0,0.0,0.0,0.0,0.0,0.0,0.0,0.0,0.0,0.0,0.0,0.0,0.0,0.0,0.0,0.0,0.0,0.0,0.0,0.0,0.0,0.0,0.0,0.0,0.0,0.0,0.0,0.0,0.0,0.0,0.0,0.0,0.0,0.0,0.0,0.0,0.0,0.0,0.0,0.0,0.0,0.0,0.0,0.0,0.0,0.0,0.0,0.0,0.0,0.0,0.0,0.0,0.0,0.0,0.0,0.0,0.0,0.0,0.0,0.0,0.0,0.0,0.0,0.0,0.0,0.0,0.0,0.0,0.0,0.0,0.0,0.0,0.0,0.0,0.0,0.0,0.0,0.0,0.0,0.0,0.0,0.0,0.0,0.0,0.0,0.0,0.0,0.0,0.0,2.7371,2.7999,3.0332,0.0,2.8242,0.0,0.0,0.0,0.0,0.0,0.0,0.0,0.0,0.0,0.0,0.0,0.0,0.0,0.0,0.0,0.0,0.0,0.0,0.0,0.0,0.0,0.0,0.0,0.0,0.0,0.0,0.0,0.0,0.0,0.0,0.0,0.0,0.0,0.0,0.0,0.0,0.0,0.0,0.0,0.0,0.0,0.0,0.0,0.0,0.0,0.0,0.0,0.0,0.0,0.0,0.0,0.0,0.0,0.0,0.0,0.0,0.0,0.0,0.0,0.0,0.0,0.0,0.0,0.0,0.0,0.0,0.0,0.0,0.0,0.0,0.0,0.0,0.0,0.0,0.0,0.0,0.0,0.0,0.0,0.0,0.0,0.0,0.0,0.0,0.0,0.0,0.0,0.0,0.0,0.0,0.0,0.0,0.0,0.0,0.0,0.0,0.0,0.0,0.0,0.0,0.0,0.0,0.0,0.0,0.0,0.0,0.0,0.0,0.0,0.0,2.994,3.0254,3.0761,3.0332,0.0,0.0,0.0,0.0,0.0,0.0,0.0,0.0,0.0,0.0,0.0,0.0,0.0,0.0,0.0,0.0,0.0,0.0,0.0,0.0,0.0,0.0,0.0,0.0,0.0,0.0,0.0,0.0,0.0,0.0,0.0,0.0,0.0,0.0,0.0,0.0,0.0,0.0,0.0,0.0,0.0,0.0,0.0,0.0,0.0,0.0,0.0,0.0,0.0,0.0,0.0,0.0,0.0,0.0,0.0,0.0,0.0,0.0,0.0,0.0,0.0,0.0,0.0,0.0,0.0,0.0,0.0,0.0,0.0,0.0,0.0,0.0,0.0,0.0,0.0,0.0,0.0,0.0,0.0,0.0,0.0,0.0,0.0,0.0,0.0,0.0,0.0,0.0,0.0,0.0,0.0,0.0,0.0,0.0,0.0,0.0,0.0,0.0,0.0,0.0,0.0,0.0,0.0,0.0,0.0,0.0,0.0,0.0,0.0,0.0,3.084,3.2339,3.2874,3.1581,3.0468,2.9726,0.0,0.0,0.0,0.0,0.0,0.0,0.0,0.0,0.0,0.0,0.0,0.0,0.0,0.0,0.0,0.0,0.0,0.0,0.0,0.0,0.0,0.0,0.0,0.0,0.0,0.0,0.0,0.0,0.0,0.0,0.0,0.0,0.0,0.0,0.0,0.0,0.0,0.0,0.0,0.0,0.0,0.0,0.0,0.0,0.0,0.0,0.0,0.0,0.0,0.0,0.0,0.0,0.0,0.0,0.0,0.0,0.0,0.0,0.0,0.0,0.0,0.0,0.0,0.0,0.0,0.0,0.0,0.0,0.0,0.0,0.0,0.0,0.0,0.0,0.0,0.0,0.0,0.0,0.0,0.0,0.0,0.0,0.0,0.0,0.0,0.0,0.0,0.0,0.0,0.0,0.0,0.0,0.0,0.0,0.0,0.0,0.0,0.0,0.0,0.0,0.0,0.0,0.0,0.0,0.0,0.0,0.0,0.0,3.2382,3.2775,3.3917,3.6006,3.3259,3.1304,0.0,0.0,0.0,0.0,0.0,0.0,0.0,0.0,0.0,0.0,0.0,0.0,0.0,0.0,0.0,0.0,0.0,0.0,0.0,0.0,0.0,0.0,0.0,0.0,0.0,0.0,0.0,0.0,0.0,0.0,0.0,0.0,0.0,0.0,0.0,0.0,0.0,0.0,0.0,0.0,0.0,0.0,0.0,0.0,0.0,0.0,0.0,0.0,0.0,0.0,0.0,0.0,0.0,0.0,0.0,0.0,0.0,0.0,0.0,0.0,0.0,0.0,0.0,0.0,0.0,0.0,0.0,0.0,0.0,0.0,0.0,0.0,0.0,0.0,0.0,0.0,0.0,0.0,0.0,0.0,0.0,0.0,0.0,0.0,0.0,0.0,0.0,0.0,0.0,0.0,0.0,0.0,0.0,0.0,0.0,0.0,0.0,0.0,0.0,0.0,0.0,0.0,0.0,0.0,0.0,0.0,0.0,0.0,0.0,3.2125,3.4596,3.6301,3.705,3.5079,3.358,0.0,0.0,0.0,0.0,0.0,0.0,0.0,0.0,0.0,0.0,0.0,0.0,0.0,0.0,0.0,0.0,0.0,0.0,0.0,0.0,0.0,0.0,0.0,0.0,0.0,0.0,0.0,0.0,0.0,0.0,0.0,0.0,0.0,0.0,0.0,0.0,0.0,0.0,0.0,0.0,0.0,0.0,0.0,0.0,0.0,0.0,0.0,0.0,0.0,0.0,0.0,0.0,0.0,0.0,0.0,0.0,0.0,0.0,0.0,0.0,0.0,0.0,0.0,0.0,0.0,0.0,0.0,0.0,0.0,0.0,0.0,0.0,0.0,0.0,0.0,0.0,0.0,0.0,0.0,0.0,0.0,0.0,0.0,0.0,0.0,0.0,0.0,0.0,0.0,0.0,0.0,0.0,0.0,0.0,0.0,0.0,0.0,0.0,0.0,0.0,0.0,0.0,0.0,0.0,0.0,0.0,0.0,0.0,0.0,3.3588,3.5944,3.7336,3.7559,3.6292,3.4999,0.0,0.0,0.0,0.0,0.0,0.0,0.0,0.0,0.0,0.0,0.0,0.0,0.0,0.0,0.0,0.0,0.0,0.0,0.0,0.0,0.0,0.0,0.0,0.0,0.0,0.0,0.0,0.0,0.0,0.0,0.0,0.0,0.0,0.0,0.0,0.0,0.0,0.0,0.0,0.0,0.0,0.0,0.0,0.0,0.0,0.0,0.0,0.0,0.0,0.0,0.0,0.0,0.0,0.0,0.0,0.0,0.0,0.0,0.0,0.0,0.0,0.0,0.0,0.0,0.0,0.0,0.0,0.0,0.0,0.0,0.0,0.0,0.0,0.0,0.0,0.0,0.0,0.0,0.0,0.0,0.0,0.0,0.0,0.0,0.0,0.0,0.0,0.0,0.0,0.0,0.0,0.0,0.0,0.0,0.0,0.0,0.0,0.0,0.0,0.0,0.0,0.0,0.0,0.0,0.0,0.0,0.0,0.0,3.3624,3.7274,3.6836,3.6979,3.755,3.6836,3.5337,0.0,0.0,0.0,0.0,0.0,0.0,0.0,0.0,0.0,0.0,0.0,0.0,0.0,0.0,0.0,0.0,0.0,0.0,0.0,0.0,0.0,0.0,0.0,0.0,0.0,0.0,0.0,0.0,0.0,0.0,0.0,0.0,0.0,0.0,0.0,0.0,0.0,0.0,0.0,0.0,0.0,0.0,0.0,0.0,0.0,0.0,0.0,0.0,0.0,0.0,0.0,0.0,0.0,0.0,0.0,0.0,0.0,0.0,0.0,0.0,0.0,0.0,0.0,0.0,0.0,0.0,0.0,0.0,0.0,0.0,0.0,0.0,0.0,0.0,0.0,0.0,0.0,0.0,0.0,0.0,0.0,0.0,0.0,0.0,0.0,0.0,0.0,0.0,0.0,0.0,0.0,0.0,0.0,0.0,0.0,0.0,0.0,0.0,0.0,0.0,0.0,0.0,0.0,0.0,0.0,0.0,0.0,0.0,0.0,3.6729,3.8112,3.8683,3.8433,3.7657,3.6631,0.0,0.0,0.0,0.0,0.0,0.0,0.0,0.0,0.0,0.0,0.0,0.0,0.0,0.0,0.0,0.0,0.0,0.0,0.0,0.0,0.0,0.0,0.0,0.0,0.0,0.0,0.0,0.0,0.0,0.0,0.0,0.0,0.0,0.0,0.0,0.0,0.0,0.0,0.0,0.0,0.0,0.0,0.0,0.0,0.0,0.0,0.0,0.0,0.0,0.0,0.0,0.0,0.0,0.0,0.0,0.0,0.0,0.0,0.0,0.0,0.0,0.0,0.0,0.0,0.0,0.0,0.0,0.0,0.0,0.0,0.0,0.0,0.0,0.0,0.0,0.0,0.0,0.0,0.0,0.0,0.0,0.0,0.0,0.0,0.0,0.0,0.0,0.0,0.0,0.0,0.0,0.0,0.0,0.0,0.0,0.0,0.0,0.0,0.0,0.0,0.0,0.0,0.0,0.0,0.0,0.0,0.0,0.0,0.0,3.8611,3.9753,4.0136,3.9682,3.8861,3.7791,3.6399,0.0,0.0,0.0,0.0,0.0,0.0,0.0,0.0,0.0,0.0,0.0,0.0,0.0,0.0,0.0,0.0,0.0,0.0,0.0,0.0,0.0,0.0,0.0,0.0,0.0,0.0,0.0,0.0,0.0,0.0,0.0,0.0,0.0,0.0,0.0,0.0,0.0,0.0,0.0,0.0,0.0,0.0,0.0,0.0,0.0,0.0,0.0,0.0,0.0,0.0,0.0,0.0,0.0,0.0,0.0,0.0,0.0,0.0,0.0,0.0,0.0,0.0,0.0,0.0,0.0,0.0,0.0,0.0,0.0,0.0,0.0,0.0,0.0,0.0,0.0,0.0,0.0,0.0,0.0,0.0,0.0,0.0,0.0,0.0,0.0,0.0,0.0,0.0,0.0,0.0,0.0,0.0,0.0,0.0,0.0,0.0,0.0,0.0,0.0,0.0,0.0,0.0,0.0,0.0,0.0,0.0,0.0,0.0,4.2476,4.1752,4.1324,4.1145,4.035,3.8852,0.0,0.0,0.0,0.0,0.0,0.0,0.0,0.0,0.0,0.0,0.0,0.0,0.0,0.0,0.0,0.0,0.0,0.0,0.0,0.0,0.0,0.0,0.0,0.0,0.0,0.0,0.0,0.0,0.0,0.0,0.0,0.0,0.0,0.0,0.0,0.0,0.0,0.0,0.0,0.0,0.0,0.0,0.0,0.0,0.0,0.0,0.0,0.0,0.0,0.0,0.0,0.0,0.0,0.0,0.0,0.0,0.0,0.0,0.0,0.0,0.0,0.0,0.0,0.0,0.0,0.0,0.0,0.0,0.0,0.0,0.0,0.0,0.0,0.0,0.0,0.0,0.0,0.0,0.0,0.0,0.0,0.0,0.0,0.0,0.0,0.0,0.0,0.0,0.0,0.0,0.0,0.0,0.0,0.0,0.0,0.0,0.0,0.0,0.0,0.0,0.0,0.0,0.0,0.0,0.0,0.0,0.0,0.0,0.0,4.4714,4.4678,4.375,4.2047,4.1227,3.9682,0.0,0.0,0.0,0.0,0.0,0.0,0.0,0.0,0.0,0.0,0.0,0.0,0.0,0.0,0.0,0.0,0.0,0.0,0.0,0.0,0.0,0.0,0.0,0.0,0.0,0.0,0.0,0.0,0.0,0.0,0.0,0.0,0.0,0.0,0.0,0.0,0.0,0.0,0.0,0.0,0.0,0.0,0.0,0.0,0.0,0.0,0.0,0.0,0.0,0.0,0.0,0.0,0.0,0.0,0.0,0.0,0.0,0.0,0.0,0.0,0.0,0.0,0.0,0.0,0.0,0.0,0.0,0.0,0.0,0.0,0.0,0.0,0.0,0.0,0.0,0.0,0.0,0.0,0.0,0.0,0.0,0.0,0.0,0.0,0.0,0.0,0.0,0.0,0.0,0.0,0.0,0.0,0.0,0.0,0.0,0.0,0.0,0.0,0.0,0.0,0.0,0.0,0.0,0.0,0.0,0.0,0.0,0.0,4.3169,4.6723,4.683,4.5831,4.3832,4.3001,4.1324,0.0,0.0,0.0,0.0,0.0,0.0,0.0,0.0,0.0,0.0,0.0,0.0,0.0,0.0,0.0,0.0,0.0,0.0,0.0,0.0,0.0,0.0,0.0,0.0,0.0,0.0,0.0,0.0,0.0,0.0,0.0,0.0,0.0,0.0,0.0,0.0,0.0,0.0,0.0,0.0,0.0,0.0,0.0,0.0,0.0,0.0,0.0,0.0,0.0,0.0,0.0,0.0,0.0,0.0,0.0,0.0,0.0,0.0,0.0,0.0,0.0,0.0,0.0,0.0,0.0,0.0,0.0,0.0,0.0,0.0,0.0,0.0,0.0,0.0,0.0,0.0,0.0,0.0,0.0,0.0,0.0,0.0,0.0,0.0,0.0,0.0,0.0,0.0,0.0,0.0,0.0,0.0,0.0,0.0,0.0,0.0,0.0,0.0,0.0,0.0,0.0,0.0,0.0,0.0,0.0,0.0,0.0,0.0,4.5213,4.8234,4.8223,4.7544,4.6212,4.5238,4.3169,0.0,0.0,0.0,0.0,0.0,0.0,0.0,0.0,0.0,0.0,0.0,0.0,0.0,0.0,0.0,0.0,0.0,0.0,0.0,0.0,0.0,0.0,0.0,0.0,0.0,0.0,0.0,0.0,0.0,0.0,0.0,0.0,0.0,0.0,0.0,0.0,0.0,0.0,0.0,0.0,0.0,0.0,0.0,0.0,0.0,0.0,0.0,0.0,0.0,0.0,0.0,0.0,0.0,0.0,0.0,0.0,0.0,0.0,0.0,0.0,0.0,0.0,0.0,0.0,0.0,0.0,0.0,0.0,0.0,0.0,0.0,0.0,0.0,0.0,0.0,0.0,0.0,0.0,0.0,0.0,0.0,0.0,0.0,0.0,0.0,0.0,0.0,0.0,0.0,0.0,0.0,0.0,0.0,0.0,0.0,0.0,0.0,0.0,0.0,0.0,0.0,0.0,0.0,0.0,0.0,0.0,0.0,0.0,4.6522,4.8948,4.8508,4.833,4.852,4.6594,4.349,0.0,0.0,0.0,0.0,0.0,0.0,0.0,0.0,0.0,0.0,0.0,0.0,0.0,0.0,0.0,0.0,0.0,0.0,0.0,0.0,0.0,0.0,0.0,0.0,0.0,0.0,0.0,0.0,0.0,0.0,0.0,0.0,0.0,0.0,0.0,0.0,0.0,0.0,0.0,0.0,0.0,0.0,0.0,0.0,0.0,0.0,0.0,0.0,3.8959,0.0,0.0,0.0,0.0,0.0,0.0,0.0,0.0,0.0,0.0,0.0,0.0,0.0,0.0,0.0,0.0,0.0,0.0,0.0,0.0,0.0,0.0,0.0,0.0,0.0,0.0,0.0,0.0,0.0,0.0,0.0,0.0,0.0,0.0,0.0,0.0,0.0,0.0,0.0,0.0,0.0,0.0,0.0,0.0,0.0,0.0,0.0,0.0,0.0,0.0,0.0,0.0,0.0,0.0,0.0,0.0,0.0,0.0,0.0,4.8235,4.9805,4.946,4.9151,4.8746,4.7914,4.5595,0.0,0.0,0.0,0.0,0.0,0.0,0.0,0.0,0.0,0.0,0.0,0.0,0.0,0.0,0.0,0.0,0.0,0.0,0.0,0.0,0.0,0.0,0.0,0.0,0.0,0.0,0.0,0.0,0.0,0.0,0.0,0.0,0.0,0.0,0.0,0.0,0.0,0.0,0.0,0.0,0.0,0.0,0.0,0.0,0.0,0.0,0.0,0.0,0.0,0.0,0.0,0.0,0.0,0.0,0.0,0.0,0.0,0.0,0.0,0.0,0.0,0.0,0.0,0.0,0.0,0.0,0.0,0.0,0.0,0.0,0.0,0.0,0.0,0.0,0.0,0.0,0.0,0.0,0.0,0.0,0.0,0.0,0.0,0.0,0.0,0.0,0.0,0.0,0.0,0.0,0.0,0.0,0.0,0.0,0.0,0.0,0.0,0.0,0.0,0.0,0.0,0.0,0.0,0.0,0.0,0.0,0.0,4.9103,4.9876,5.0637,5.0447,4.9745,4.8627,4.9032,4.7949,4.5095,0.0,0.0,0.0,0.0,0.0,0.0,0.0,0.0,0.0,0.0,0.0,0.0,0.0,0.0,0.0,0.0,0.0,0.0,0.0,0.0,0.0,0.0,0.0,0.0,0.0,0.0,0.0,0.0,0.0,0.0,0.0,0.0,0.0,0.0,0.0,0.0,0.0,0.0,3.5186,3.7675,0.0,0.0,0.0,0.0,0.0,0.0,0.0,0.0,4.5246,0.0,0.0,0.0,0.0,0.0,0.0,0.0,0.0,0.0,0.0,0.0,0.0,0.0,0.0,0.0,0.0,0.0,0.0,0.0,0.0,0.0,0.0,0.0,0.0,0.0,0.0,0.0,0.0,0.0,0.0,0.0,0.0,0.0,0.0,0.0,0.0,0.0,0.0,0.0,0.0,0.0,0.0,0.0,0.0,0.0,0.0,0.0,0.0,0.0,0.0,0.0,0.0,0.0,0.0,0.0,0.0,4.9091,4.9924,5.0661,5.1471,5.0197,4.9698,5.0066,4.959,4.8449,4.6605,0.0,0.0,0.0,0.0,0.0,0.0,0.0,0.0,0.0,0.0,0.0,0.0,0.0,0.0,0.0,0.0,0.0,0.0,0.0,0.0,0.0,0.0,0.0,0.0,0.0,0.0,0.0,0.0,0.0,0.0,0.0,0.0,0.0,0.0,0.0,0.0,0.0,0.0,0.0,4.1405,4.2476,0.0,0.0,0.0,0.0,0.0,0.0,0.0,0.0,4.7259,0.0,0.0,0.0,0.0,0.0,0.0,0.0,0.0,0.0,0.0,0.0,0.0,0.0,0.0,0.0,0.0,0.0,0.0,0.0,0.0,0.0,0.0,0.0,0.0,0.0,0.0,0.0,0.0,0.0,0.0,0.0,0.0,0.0,0.0,0.0,0.0,0.0,0.0,0.0,0.0,0.0,0.0,0.0,0.0,0.0,0.0,0.0,0.0,0.0,0.0,0.0,0.0,0.0,0.0,0.0,4.9222,5.0923,5.1935,5.2256,5.1173,5.053,5.0495,5.0126,4.8996,0.0,0.0,0.0,0.0,0.0,0.0,0.0,0.0,0.0,0.0,0.0,0.0,0.0,0.0,0.0,0.0,0.0,0.0,0.0,0.0,0.0,0.0,0.0,0.0,0.0,0.0,0.0,0.0,0.0,0.0,0.0,0.0,0.0,0.0,0.0,0.0,0.0,0.0,0.0,0.0,4.3687,4.5247,4.8061,0.0,0.0,0.0,0.0,0.0,0.0,4.9815,4.8922,0.0,0.0,0.0,0.0,0.0,0.0,0.0,0.0,0.0,0.0,0.0,0.0,0.0,0.0,0.0,0.0,0.0,0.0,0.0,0.0,0.0,0.0,0.0,0.0,0.0,0.0,0.0,0.0,0.0,0.0,0.0,0.0,0.0,0.0,0.0,0.0,0.0,0.0,0.0,0.0,0.0,0.0,0.0,0.0,0.0,0.0,0.0,0.0,0.0,0.0,0.0,0.0,0.0,0.0,0.0,4.9329,5.1993,5.3362,5.3327,5.2292,5.1458,5.0994,5.0803,4.971,0.0,0.0,0.0,0.0,0.0,0.0,0.0,0.0,0.0,0.0,0.0,0.0,0.0,0.0,0.0,0.0,0.0,0.0,0.0,0.0,0.0,0.0,0.0,0.0,0.0,0.0,0.0,0.0,0.0,0.0,0.0,0.0,0.0,0.0,0.0,0.0,0.0,0.0,0.0,0.0,0.0,4.7925,5.0508,5.325,0.0,0.0,0.0,0.0,5.289,5.1754,0.0,0.0,0.0,0.0,0.0,0.0,0.0,0.0,0.0,0.0,0.0,0.0,0.0,0.0,0.0,0.0,0.0,0.0,0.0,0.0,0.0,0.0,0.0,0.0,0.0,0.0,0.0,0.0,0.0,0.0,0.0,0.0,0.0,0.0,0.0,0.0,0.0,0.0,0.0,0.0,0.0,0.0,0.0,0.0,0.0,0.0,0.0,0.0,0.0,0.0,0.0,0.0,0.0,0.0,0.0,0.0,4.9436,5.3028,5.4906,5.4835,5.2814,5.2006,5.2577,5.1935,5.078,0.0,0.0,0.0,0.0,0.0,0.0,0.0,0.0,0.0,0.0,0.0,0.0,0.0,0.0,0.0,0.0,0.0,0.0,0.0,0.0,0.0,0.0,0.0,0.0,0.0,0.0,0.0,0.0,0.0,0.0,0.0,0.0,0.0,0.0,0.0,0.0,0.0,0.0,0.0,0.0,0.0,5.0437,5.0713,5.4752,5.6114,0.0,0.0,5.8027,5.5781,5.5339,0.0,0.0,0.0,0.0,0.0,0.0,0.0,0.0,0.0,0.0,0.0,0.0,0.0,0.0,0.0,0.0,0.0,0.0,0.0,0.0,0.0,0.0,0.0,0.0,0.0,0.0,0.0,0.0,0.0,0.0,0.0,0.0,0.0,0.0,0.0,0.0,0.0,0.0,0.0,0.0,0.0,0.0,0.0,0.0,0.0,0.0,0.0,0.0,0.0,0.0,0.0,0.0,0.0,0.0,0.0,4.9555,5.0211,5.4002,5.5794,5.5395,5.4376,5.3803,5.3808,5.3284,5.2317,0.0,0.0,0.0,0.0,0.0,0.0,0.0,0.0,0.0,0.0,0.0,0.0,0.0,0.0,0.0,0.0,0.0,0.0,0.0,0.0,0.0,0.0,0.0,0.0,0.0,0.0,0.0,0.0,0.0,0.0,0.0,0.0,0.0,0.0,0.0,0.0,0.0,0.0,0.0,0.0,0.0,0.0,5.3255,5.5913,0.0,0.0,0.0,5.9,5.5649,0.0,0.0,0.0,0.0,0.0,0.0,0.0,0.0,0.0,0.0,0.0,0.0,0.0,0.0,0.0,0.0,0.0,0.0,0.0,0.0,0.0,0.0,0.0,0.0,0.0,0.0,0.0,0.0,0.0,0.0,0.0,0.0,0.0,0.0,0.0,0.0,0.0,0.0,0.0,0.0,0.0,0.0,0.0,0.0,0.0,0.0,0.0,0.0,0.0,0.0,0.0,0.0,0.0,0.0,0.0,0.0,0.0,5.1108,5.534,5.7209,5.6525,5.5989,5.5522,5.5086,5.4629,0.0,0.0,0.0,0.0,0.0,0.0,0.0,0.0,0.0,0.0,0.0,0.0,0.0,0.0,0.0,0.0,0.0,0.0,0.0,0.0,0.0,0.0,0.0,0.0,0.0,0.0,0.0,3.2865,0.0,0.0,0.0,0.0,0.0,0.0,0.0,0.0,0.0,0.0,0.0,0.0,0.0,0.0,5.0885,5.5365,5.6917,5.7492,0.0,0.0,5.9515,5.6373,5.7112,5.7695,0.0,0.0,0.0,0.0,0.0,0.0,0.0,0.0,0.0,0.0,0.0,0.0,0.0,0.0,0.0,0.0,0.0,0.0,0.0,0.0,0.0,0.0,0.0,0.0,0.0,0.0,0.0,0.0,0.0,0.0,0.0,0.0,0.0,0.0,0.0,0.0,0.0,0.0,0.0,0.0,0.0,0.0,0.0,0.0,0.0,0.0,0.0,0.0,0.0,0.0,0.0,0.0,0.0,0.0,5.2554,5.2198,5.7388,5.9689,5.8947,5.7495,5.6704,5.6646,5.59,5.5392,0.0,0.0,0.0,0.0,0.0,0.0,0.0,0.0,0.0,0.0,0.0,0.0,0.0,0.0,0.0,0.0,0.0,0.0,0.0,0.0,0.0,0.0,0.0,0.0,0.0,0.0,0.0,0.0,0.0,0.0,0.0,0.0,0.0,0.0,0.0,0.0,0.0,0.0,0.0,0.0,0.0,5.4737,5.5759,5.7931,5.8901,0.0,5.924,6.0421,5.9408,6.0,6.0543,6.0435,0.0,0.0,0.0,0.0,0.0,0.0,0.0,0.0,0.0,0.0,0.0,0.0,0.0,0.0,0.0,0.0,0.0,0.0,0.0,0.0,0.0,0.0,0.0,0.0,0.0,0.0,0.0,0.0,0.0,0.0,0.0,0.0,0.0,0.0,0.0,0.0,0.0,0.0,0.0,0.0,0.0,0.0,0.0,0.0,0.0,0.0,0.0,0.0,0.0,0.0,0.0,0.0,0.0,5.3624,5.3027,5.7461,5.9434,5.8756,5.8497,5.8424,5.8504,5.7588,5.7077,0.0,0.0,0.0,0.0,0.0,0.0,0.0,0.0,0.0,0.0,0.0,0.0,0.0,0.0,0.0,0.0,0.0,0.0,0.0,0.0,0.0,0.0,0.0,0.0,0.0,0.0,0.0,0.0,4.1456,4.1925,4.0727,0.0,0.0,0.0,0.0,0.0,0.0,0.0,0.0,0.0,0.0,5.5581,5.7836,5.8996,0.0,0.0,6.1353,6.2005,6.1208,6.2186,6.3019,6.3019,6.3454,0.0,0.0,0.0,0.0,0.0,0.0,0.0,0.0,0.0,0.0,0.0,0.0,0.0,0.0,0.0,0.0,0.0,0.0,0.0,0.0,0.0,0.0,0.0,0.0,0.0,0.0,0.0,0.0,0.0,0.0,0.0,0.0,0.0,0.0,0.0,0.0,0.0,0.0,0.0,0.0,0.0,0.0,0.0,0.0,0.0,0.0,0.0,0.0,0.0,0.0,0.0,0.0,5.5274,5.4604,5.8277,5.9943,5.9493,5.969,5.9871,5.9928,5.8996,5.8627,0.0,0.0,0.0,0.0,0.0,0.0,0.0,0.0,0.0,0.0,0.0,0.0,0.0,0.0,0.0,0.0,0.0,0.0,0.0,0.0,0.0,0.0,0.0,0.0,0.0,0.0,0.0,0.0,4.3996,4.5047,4.5063,0.0,0.0,0.0,0.0,0.0,0.0,0.0,0.0,0.0,0.0,5.7886,6.0382,6.0839,6.1371,6.2608,6.356,6.3939,6.3402,6.4402,6.5273,6.5322,0.0,0.0,0.0,0.0,0.0,0.0,0.0,0.0,0.0,0.0,0.0,0.0,0.0,0.0,0.0,0.0,0.0,0.0,0.0,0.0,0.0,0.0,0.0,0.0,0.0,0.0,0.0,3.3502,0.0,0.0,3.4187,0.0,0.0,0.0,0.0,0.0,0.0,0.0,0.0,0.0,0.0,0.0,0.0,0.0,0.0,0.0,0.0,0.0,0.0,0.0,0.0,0.0,0.0,5.7846,5.7176,6.0254,6.1919,6.1847,6.1159,6.0747,6.076,6.0,5.9861,6.0449,0.0,0.0,0.0,0.0,0.0,0.0,0.0,0.0,0.0,0.0,0.0,0.0,0.0,0.0,0.0,0.0,0.0,0.0,0.0,0.0,0.0,0.0,0.0,0.0,0.0,0.0,3.8435,4.2777,4.7361,0.0,0.0,0.0,0.0,0.0,0.0,0.0,0.0,0.0,6.1526,6.216,6.2446,6.3279,6.3688,6.4009,6.4624,6.5644,6.6308,6.6305,6.6815,6.7271,0.0,0.0,0.0,0.0,0.0,0.0,0.0,0.0,0.0,0.0,0.0,0.0,0.0,0.0,0.0,0.0,0.0,0.0,0.0,0.0,0.0,0.0,0.0,0.0,0.0,0.0,0.0,4.0356,4.1587,0.0,0.0,0.0,0.0,0.0,0.0,0.0,0.0,0.0,0.0,0.0,5.3163,5.5655,0.0,0.0,0.0,0.0,0.0,0.0,0.0,0.0,0.0,0.0,0.0,0.0,6.0118,5.8963,6.0905,6.2028,6.1992,6.1738,6.1593,6.1593,6.0797,6.044,6.0571,0.0,0.0,0.0,0.0,0.0,0.0,0.0,0.0,0.0,0.0,0.0,0.0,0.0,0.0,0.0,0.0,0.0,0.0,0.0,0.0,0.0,0.0,0.0,0.0,0.0,4.5824,0.0,0.0,0.0,0.0,0.0,0.0,0.0,0.0,0.0,0.0,0.0,6.1678,6.3695,6.3918,6.439,6.5729,6.5057,6.527,0.0,0.0,0.0,0.0,0.0,0.0,0.0,0.0,0.0,0.0,0.0,0.0,0.0,0.0,6.6773,6.6109,6.5995,6.5984,6.5984,0.0,0.0,0.0,0.0,0.0,0.0,0.0,0.0,0.0,0.0,0.0,0.0,0.0,0.0,4.5667,0.0,4.7403,0.0,0.0,0.0,0.0,0.0,0.0,0.0,0.0,5.5705,5.6995,5.6827,5.9469,6.03,0.0,5.9275,5.8241,0.0,0.0,0.0,0.0,0.0,0.0,0.0,0.0,6.2462,6.0955,6.1897,6.239,6.239,6.2173,6.2028,6.1992,6.1485,6.1191,6.1109,6.0057,5.9772,0.0,0.0,0.0,0.0,0.0,0.0,0.0,0.0,0.0,0.0,0.0,0.0,0.0,0.0,0.0,0.0,0.0,0.0,0.0,0.0,0.0,0.0,0.0,5.1286,0.0,0.0,0.0,0.0,0.0,0.0,0.0,0.0,0.0,5.996,6.214,6.4406,6.5919,6.6079,6.6555,6.7893,0.0,0.0,0.0,0.0,0.0,0.0,0.0,7.3762,7.2173,7.2954,7.3437,7.2438,7.2113,7.2057,7.2359,0.0,0.0,6.9723,6.9361,6.951,7.011,6.9166,6.8676,7.0081,7.0398,7.0915,0.0,0.0,0.0,0.0,0.0,0.0,0.0,0.0,4.9208,4.9614,0.0,5.0995,0.0,0.0,0.0,0.0,5.2338,5.5433,0.0,0.0,6.0693,6.2354,6.3033,6.3056,6.3526,6.4251,6.3382,6.3418,6.3889,5.9615,0.0,0.0,0.0,0.0,0.0,0.0,6.483,6.3251,6.3287,6.3251,6.32,6.2499,6.21,6.21,6.2064,6.2064,6.205,6.1918,6.1465,6.0707,5.9078,0.0,0.0,0.0,0.0,0.0,0.0,0.0,0.0,0.0,0.0,0.0,0.0,0.0,0.0,0.0,0.0,0.0,0.0,0.0,0.0,5.3207,0.0,0.0,0.0,0.0,0.0,0.0,0.0,0.0,0.0,0.0,6.382,6.4093,6.5585,6.8404,0.0,0.0,0.0,0.0,7.0976,7.2334,7.3479,7.4443,7.5258,7.5895,7.5798,7.4376,0.0,0.0,7.7082,7.7358,7.7461,7.8344,7.7613,7.6107,7.2156,7.1482,7.1899,7.3414,7.3669,7.4003,7.4846,7.5442,7.5983,5.2788,0.0,0.0,0.0,0.0,5.0253,5.1665,5.3709,5.3788,5.5094,5.7168,5.7529,0.0,0.0,0.0,0.0,0.0,0.0,5.9583,5.9957,6.0684,6.1475,6.2367,6.2354,6.2462,6.268,6.2462,6.2766,6.3468,6.2164,6.2875,6.554,0.0,0.0,0.0,0.0,6.5663,6.4229,6.4613,6.4649,6.407,6.3816,6.3708,6.3708,6.3164,6.3128,6.3708,6.3136,6.2688,6.2471,6.1898,0.0,0.0,0.0,0.0,0.0,0.0,0.0,0.0,0.0,0.0,0.0,0.0,0.0,0.0,0.0,0.0,0.0,0.0,0.0,5.5545,6.0787,6.4107,0.0,0.0,0.0,0.0,0.0,0.0,0.0,0.0,0.0,6.8999,6.9,6.9899,0.0,0.0,7.1834,7.3265,7.3013,7.3247,7.4798,7.5851,0.0,7.7516,7.8799,7.9134,7.7527,7.6981,7.6865,7.732,7.7396,7.7472,7.7775,7.7586,7.7131,7.6676,7.5956,7.5994,7.6903,7.7169,7.7434,7.8268,7.8685,7.8798,5.7036,5.4969,5.5122,5.4713,5.4011,5.475,5.5983,5.7533,5.8167,5.9323,6.0762,6.1458,6.1357,6.0602,6.0292,0.0,0.0,0.0,6.1684,6.2098,6.2112,6.2588,6.3404,6.344,6.3585,6.3875,6.3585,6.3852,6.4627,6.4287,6.5627,6.8307,0.0,0.0,6.7459,6.7366,6.6641,6.541,6.5518,6.5374,6.4867,6.4541,6.4396,6.4396,6.3939,6.4048,6.483,6.441,6.4287,6.4577,6.3927,6.3088,0.0,0.0,0.0,0.0,0.0,0.0,0.0,0.0,0.0,0.0,0.0,4.7298,4.7818,0.0,0.0,0.0,5.7784,5.9237,6.1157,6.5595,0.0,0.0,0.0,0.0,0.0,0.0,0.0,6.7134,7.0369,7.3214,7.3955,7.3805,7.3833,7.4505,7.4174,7.4478,7.6145,0.0,7.6173,7.7851,7.8533,7.914,7.9973,8.097,8.1273,8.0277,7.9984,7.986,7.9871,8.0125,8.039,8.039,8.0352,8.0542,8.1035,8.0694,8.0087,7.9708,7.9594,7.9898,8.0705,8.1121,8.1349,6.0284,5.9446,5.7724,5.7519,5.8393,5.9041,5.9706,6.048,6.1753,6.2105,6.1803,6.322,6.3523,6.2911,6.2278,0.0,6.3198,6.3393,6.392,6.4685,6.4685,6.5048,6.5772,6.5736,6.6098,6.6735,6.6062,6.6098,6.6822,6.6134,6.6931,6.9119,6.7728,6.704,6.7112,6.7677,6.764,6.6895,6.6243,6.5881,6.5881,6.5156,6.4808,6.4808,6.4649,6.4975,6.5736,6.5736,6.6025,6.6714,6.5446,6.4685,6.4627,0.0,0.0,0.0,0.0,0.0,0.0,0.0,0.0,0.0,0.0,0.0,0.0,0.0,0.0,6.3781,6.5202,0.0,6.7468,6.8321,0.0,0.0,0.0,7.1788,7.0713,7.2643,7.3758,7.2894,0.0,0.0,7.8419,7.8192,7.7548,7.6893,7.6628,7.7093,7.8761,7.8988,7.9556,8.111,8.1452,8.1766,8.2562,8.2865,8.2979,8.2903,8.3396,8.3775,8.3851,8.437,8.4976,8.4901,8.5041,8.5003,8.5041,8.4901,8.4359,8.2096,8.1652,8.1842,8.2714,8.3434,8.3927,6.3319,6.3197,6.3329,6.1681,5.9091,5.9802,6.021,6.0422,6.0852,6.1664,6.268,6.3169,6.3609,6.4079,6.5091,6.5337,6.5077,6.6901,6.7496,6.7184,6.7148,6.7242,6.7402,6.6822,6.6605,6.6786,6.6605,6.6931,6.7677,6.7547,6.8017,6.9119,6.8829,6.8938,6.9481,6.8525,6.7894,6.7713,6.8126,6.8358,6.8322,6.8141,6.8069,6.8069,6.6858,6.6605,6.7387,6.6822,6.6605,6.6786,6.704,6.7148,6.7133,6.6011,0.0,0.0,0.0,0.0,0.0,0.0,0.0,0.0,0.0,5.7789,6.0012,0.0,6.6911,0.0,6.6986,6.7408,6.7355,7.0338,0.0,0.0,7.31,7.4083,7.3838,7.4313,7.5084,7.6097,7.7093,7.8192,7.9443,8.0542,8.1603,8.2589,8.111,8.0504,8.2145,8.241,8.2778,8.3802,8.4446,8.4976,8.5204,8.581,8.6151,8.6227,8.6379,8.6493,8.6493,8.6644,8.6796,8.6796,8.6796,8.6796,8.6796,8.6834,8.6644,8.6,8.5393,8.5166,8.6038,8.6341,8.6493,6.4396,6.4432,6.4867,6.3659,6.159,6.2673,6.276,6.2253,6.2939,6.3581,6.4209,6.4968,6.5772,6.6583,6.7453,6.78,6.7851,6.9119,6.9699,6.956,6.956,6.9539,6.9523,6.9104,6.8887,6.8887,6.8887,6.914,6.9539,6.9575,6.9792,7.0242,7.0227,7.0956,7.2228,6.9815,6.8887,6.9523,6.9337,6.9192,6.9192,6.9192,6.9699,7.0661,6.885,6.8561,7.0046,6.8633,6.8343,6.9358,6.9502,6.9661,6.9894,6.9501,6.985,0.0,0.0,0.0,0.0,0.0,0.0,0.0,0.0,0.0,0.0,0.0,7.0116,6.8938,6.946,6.9863,6.9686,7.2062,7.3467,7.3096,7.4458,7.5301,7.4922,7.587,7.7055,7.8382,7.9556,8.0883,8.2437,8.346,8.4522,8.5848,8.4787,8.4218,8.5052,8.528,8.5469,8.5962,8.6379,8.6834,8.7137,8.7592,8.8084,8.8388,8.8463,8.8463,8.8463,8.8463,8.8463,8.8463,8.8463,8.8487,8.8535,8.8499,8.8475,8.8459,8.8168,8.7879,8.7907,8.8236,8.8463,6.5011,6.5026,6.5026,6.5011,6.512,6.6334,6.5894,6.4504,6.5684,6.606,6.5844,6.7532,6.8669,6.9373,6.9554,7.0025,7.0677,7.0822,7.1205,7.1784,7.182,7.182,7.182,7.1929,7.1965,7.1965,7.2074,7.211,7.211,7.211,7.2158,7.2252,7.2252,7.3389,7.536,7.2108,7.0887,7.1889,7.0724,7.0107,7.0054,7.0054,7.1018,7.2781,7.0768,7.0523,7.2434,7.0632,7.045,7.2289,7.1977,7.1893,7.2231,7.25,7.2295,0.0,7.1973,0.0,0.0,0.0,0.0,0.0,0.0,0.0,0.0,7.2049,7.2615,7.1839,7.2251,7.2745,7.3164,7.3655,7.4316,7.5263,7.6107,7.6362,7.5994,7.7889,7.9594,8.058,8.1993,8.3764,8.581,8.6341,8.6708,8.7364,8.7516,8.7516,8.7668,8.7554,8.7478,8.7668,8.7705,8.8009,8.8539,8.8729,8.9032,8.9752,8.9904,9.0017,9.0093,9.0143,9.0118,9.0156,9.018,9.0228,9.0336,9.0252,9.0228,9.0336,9.0423,9.0122,8.9142,8.9282,8.9839,6.8286,6.8286,6.8286,6.8286,6.8322,6.8582,6.7061,6.4446,6.4693,6.5453,6.675,6.8959,7.0025,7.0278,7.1494,7.211,7.2291,7.2927,7.3325,7.3434,7.3434,7.3434,7.347,7.4122,7.4412,7.4484,7.508,7.5423,7.537,7.537,7.5697,7.6191,7.6191,7.7296,7.9323,0.0,0.0,0.0,7.4699,7.4901,7.4738,7.4738,7.4613,7.4357,7.2512,0.0,7.2106,7.1712,7.1342,7.1194,7.2317,0.0,0.0,0.0,0.0,0.0,0.0,0.0,0.0,0.0,0.0,0.0,7.3328,7.3726,7.2553,7.3059,7.4464,7.6781,7.4878,7.3944,7.5359,7.5563,7.6211,7.7737,7.8647,7.9643,8.0807,8.1955,8.3233,8.4738,8.5242,8.581,8.6985,8.7694,8.816,8.8388,8.8956,8.9297,8.9297,8.8729,8.8615,8.9184,8.9259,8.9373,8.9563,8.9601,8.9954,9.0586,9.0851,9.1117,9.1698,9.1898,9.1959,9.1997,9.2081,9.2152,9.2187,9.2164,9.2152,9.2187,9.2732,9.2544,9.0286,8.9953,9.0137,6.9192,6.9192,6.9192,6.9192,0.0,6.9192,6.8286,6.6765,6.6765,6.7453,6.8669,7.0263,7.1168,7.1603,7.2746,7.3679,7.4358,7.5228,7.5948,7.6585,7.7004,7.7203,7.724,7.7629,7.7812,7.7812,7.8216,7.84,7.8437,7.84,7.8584,7.8914,7.8928,7.9825,8.1537,8.083,7.9105,7.6503,7.698,7.7002,7.6519,7.6483,7.669,7.6956,7.4947,0.0,0.0,0.0,0.0,0.0,0.0,0.0,0.0,0.0,0.0,7.5902,7.5851,7.5863,7.5863,7.55,7.5403,7.5727,7.6493,7.6229,7.4617,7.5084,7.6173,7.7813,7.679,7.659,7.7813,7.8306,7.9064,8.0352,8.1235,8.2248,8.346,8.4332,8.5318,8.653,8.7099,8.7668,8.8463,8.8918,8.9184,8.9222,8.9525,8.979,8.979,8.9449,8.9373,8.9752,9.0207,9.0611,9.1051,9.1139,9.1619,9.2705,9.2744,9.2783,9.3491,9.3605,9.3668,9.373,9.3803,9.3876,9.4006,9.3982,9.3959,9.4055,9.4383,9.4334,9.2881,9.2653,9.2653,7.0025,7.0077,7.0308,7.0441,7.0457,7.0686,7.0783,7.0731,7.0066,0.0,0.0,7.2112,7.3031,7.3723,7.467,7.5698,7.6839,7.7547,7.8478,7.9567,8.0288,8.0599,8.0599,8.0748,8.0822,8.0822,8.0957,8.1031,8.1031,8.1143,8.1325,8.141,8.1536,8.2274,8.3464,8.3539,8.2333,7.9941,7.9301,7.8725,7.8024,7.7987,7.8505,7.9628,7.7593,7.7384,7.9295,7.7483,7.7347,7.9257,7.8786,7.8536,7.884,7.8864,7.8087,7.652,7.7131,7.7623,7.7623,7.7775,7.7927,7.804,7.8798,7.8571,7.6903,7.7434,7.7965,7.8268,7.8912,7.9632,8.0466,8.13,8.2096,8.2968,8.3813,8.4597,8.5458,8.6253,8.7087,8.7743,8.8388,8.9032,8.9638,8.9777,8.994,9.0054,9.0166,9.0166,9.0268,9.023,9.0192,9.0482,9.1075,9.1657,9.2261,9.2449,9.3181,9.4356,9.4308,9.4399,9.5021,9.53,9.5376,9.5526,9.5538,9.566,9.5825,9.5814,9.5729,9.586,9.5998,9.6112,9.6101,9.6145,9.5934,7.3233,7.3354,7.4601,7.5115,7.5234,7.6429,7.6926,7.6662,7.3417,7.2006,7.2328,7.5707,7.7227,7.7413,7.8969,7.9754,7.9988,8.01,8.0254,8.0413,8.0562,8.0599,8.0636,8.1291,8.1649,8.1686,8.234,8.266,8.2734,8.3358,8.3992,8.455,8.5255,8.5948,8.669,8.6738,8.6551,8.6062,8.3587,8.2188,8.1891,8.184,8.1565,8.1066,7.997,7.9445,7.9774,7.9509,7.9445,7.9812,7.9698,7.9354,7.8717,7.8755,7.8231,7.7348,7.8002,7.8457,7.8457,7.914,7.986,8.0542,8.1387,8.1148,7.9556,7.9481,8.0136,8.1501,8.1728,8.2221,8.3017,8.3839,8.4673,8.5469,8.6341,8.7175,8.7895,8.8653,8.9184,8.9335,8.9525,8.9638,8.9828,8.9989,9.0352,9.092,9.1157,9.1479,9.1924,9.1587,9.1499,9.2064,9.2354,9.2518,9.2732,9.2694,9.3314,9.3973,9.4772,9.5446,9.6347,9.6992,9.7384,9.7482,9.7541,9.7673,9.7731,9.7693,9.7784,9.7884,9.8392,9.8773,9.8812,9.9247,9.8903,7.5947,7.6309,7.6985,7.7262,7.7314,7.7942,7.8177,7.814,7.7175,7.6257,7.5787,7.7877,7.8792,7.8903,8.0079,8.0768,8.1091,8.1516,8.19,8.2247,8.2711,8.3162,8.3576,8.3976,8.439,8.4841,8.5217,8.5391,8.5429,8.5767,8.6087,8.6392,8.6782,8.7096,8.7378,8.7402,8.7402,8.739,8.6065,8.5095,8.4543,8.4505,8.4116,8.3347,8.2827,8.2627,8.2627,8.2627,8.2627,8.2627,8.2627,8.2437,8.2058,8.202,8.1869,8.1478,8.1376,8.1311,8.1311,8.1273,8.1425,8.1804,8.2562,8.2979,8.2664,8.1755,8.1766,8.2941,8.346,8.4105,8.4901,8.6114,8.7061,8.739,8.8198,8.8842,8.9222,8.9525,8.979,8.9828,9.0207,9.0472,9.051,9.0938,9.1391,9.1869,9.2076,9.2474,9.3355,9.3168,9.2817,9.2767,9.3098,9.3399,9.3534,9.3926,9.4673,9.599,9.645,9.7215,9.8258,9.9006,9.912,9.9257,9.9317,9.9605,9.9969,10.0172,10.0325,10.0833,10.11,10.1444,10.1521,10.1788,10.1062,7.8329,7.8758,7.9081,7.9402,7.9695,7.9708,7.9708,7.9822,8.1057,8.1019,8.0108,8.028,8.0355,8.0429,8.1187,8.1938,8.2548,8.3188,8.3826,8.4461,8.5166,8.5799,8.6329,8.6405,8.6746,8.7364,8.7402,8.7402,8.7402,8.7592,8.7857,8.816,8.8047,8.8047,8.8236,8.8047,8.7933,8.7933,8.7933,8.744,8.6455,8.6379,8.6064,8.5533,8.5458,8.5458,8.5469,8.5458,8.5458,8.5458,8.5268,8.5166,8.5154,8.5003,8.4889,8.4851,8.4446,8.4268,8.4408,8.3889,8.3548,8.3548,8.4078,8.4749,8.5242,8.4294,8.3775,8.4457,8.528,8.6038,8.6708,8.7933,8.888,8.8918,8.9411,8.9828,9.0055,9.0093,9.0219,9.0395,9.1014,9.1406,9.1582,9.2036,9.2539,9.286,9.3159,9.3682,9.4384,9.4635,9.4437,9.4025,9.4055,9.4483,9.4765,9.5273,9.6375,9.8109,9.846,9.9126,10.0209,10.072,10.0924,10.1022,10.1034,10.1311,10.1994,10.2132,10.2323,10.2743,10.2858,10.3049,10.2985,10.3023,10.2794,8.0334,8.0572,8.1786,8.3088,8.4119,8.4181,8.4169,8.4294,8.516,8.5501,8.5027,8.3876,8.3197,8.3346,8.4093,8.4862,8.5527,8.5728,8.618,8.6898,8.7137,8.7213,8.7251,8.7289,8.7326,8.744,8.7478,8.7554,8.7592,8.8198,8.9222,9.051,8.998,8.9904,9.051,8.9904,8.9563,8.9563,8.9601,8.8842,8.7402,8.7289,8.7251,8.7175,8.7175,8.7175,8.7175,8.7163,8.7175,8.7099,8.6443,8.6026,8.595,8.5344,8.4927,8.5003,8.5533,8.6189,8.6909,8.6985,8.6796,8.6947,8.6834,8.6947,8.7099,8.7023,8.6947,8.7137,8.7781,8.8122,8.8426,8.9184,8.9714,8.9802,8.9916,9.0093,9.0838,9.1003,9.1318,9.2161,9.2249,9.2437,9.2533,9.2817,9.3286,9.404,9.4734,9.5221,9.549,9.6112,9.6566,9.6308,9.6008,9.5855,9.6401,9.6695,9.7448,9.8884,9.9828,10.053,10.1359,10.2237,10.2872,10.2366,10.272,10.2758,10.2961,10.3087,10.3138,10.3469,10.3508,10.3317,10.324,10.3355,10.3214,8.3541,8.3941,8.5021,8.5822,8.6329,8.6367,8.6379,8.6417,8.672,8.6872,8.6796,8.6114,8.5848,8.5848,8.6227,8.6568,8.686,8.686,8.7061,8.7402,8.7402,8.763,8.8084,8.8122,8.835,8.8805,8.8805,8.8805,8.888,8.9184,8.9676,9.0245,8.998,8.998,9.0283,8.998,8.979,8.979,8.979,8.9487,8.8918,8.8805,8.8842,8.8805,8.8805,8.8805,8.8805,8.8842,8.8805,8.8805,8.8501,8.83,8.8274,8.7959,8.7781,8.7781,8.763,8.7516,8.7402,8.7402,8.7402,8.7402,8.7402,8.7592,8.8084,8.8539,8.9032,8.9449,8.9032,8.8767,8.9373,9.0093,9.0774,9.1253,9.1391,9.1567,9.1955,9.2031,9.2245,9.2597,9.3065,9.3419,9.3555,9.4002,9.4514,9.5028,9.5783,9.6418,9.6649,9.7352,9.7932,9.8132,9.7887,9.7644,9.7697,9.7623,9.8208,9.9163,10.0069,10.0909,10.19,10.2629,10.3164,10.3264,10.3364,10.3555,10.3813,10.3928,10.4004,10.4284,10.4654,10.4692,10.4692,10.4692,10.4692,8.6065,8.6545,8.7175,8.7402,8.7402,8.7402,8.7402,8.744,8.763,8.7743,8.7743,8.7971,8.8047,8.8009,8.763,8.7516,8.7705,8.7743,8.7857,8.8047,8.8047,8.8388,8.8918,8.8918,8.9222,8.9714,8.9752,8.9752,8.979,8.979,8.9904,9.0093,8.9942,8.9904,9.0131,8.9942,8.979,8.979,8.979,8.979,8.9752,8.979,8.979,8.979,8.979,8.979,8.979,8.979,8.979,8.979,8.979,8.979,8.979,8.979,8.979,8.9752,8.9259,8.8653,8.8084,8.8084,8.816,8.8388,8.8426,8.8767,8.9525,9.0131,9.0738,9.1192,9.0321,8.9992,9.0533,9.1165,9.1845,9.2461,9.2549,9.2661,9.301,9.306,9.3186,9.3449,9.417,9.4687,9.5019,9.5665,9.6158,9.6562,9.7091,9.7566,9.7899,9.8557,9.9184,9.9437,9.9777,9.9732,9.8978,9.9081,9.9431,10.0544,10.1653,10.2547,10.3037,10.3815,10.4093,10.4643,10.4181,10.4085,10.4602,10.4807,10.495,10.5536,10.5792,10.5851,10.5789,10.5874,10.5809,8.7303,8.7364,8.7402,8.7516,8.744,8.7478,8.7478,8.763,8.8236,8.8539,8.8653,8.9297,8.9638,8.9487,8.816,8.7857,8.8501,8.8539,8.8918,8.9487,8.9563,8.9676,8.9752,8.9752,8.9752,8.979,8.979,8.979,8.979,8.979,9.0245,9.0889,9.0169,9.0207,9.07,9.0131,8.979,8.979,8.979,8.979,8.979,8.979,8.979,8.979,8.979,8.979,8.979,8.979,8.979,8.979,8.979,8.979,8.979,8.979,8.979,8.9828,8.979,8.9752,8.9714,8.9714,8.998,9.07,9.0738,9.1192,9.1685,9.195,9.2115,9.2228,9.2165,9.2177,9.2375,9.2461,9.2647,9.2808,9.2793,9.3197,9.3868,9.4071,9.4398,9.5089,9.5665,9.6318,9.7363,9.7666,9.7943,9.8446,9.888,9.8988,9.9166,9.9762,10.0372,10.0797,10.1509,10.2168,10.0813,10.0891,10.2091,10.2916,10.363,10.51,10.597,10.6525,10.6244,10.6025,10.5743,10.5612,10.5624,10.5742,10.5985,10.6271,10.6319,10.6403,10.697,10.6487,10.6513,8.8463,8.8918,8.8918,8.8956,8.8956,8.8956,8.8918,8.8956,8.9222,8.9373,8.9411,8.9676,8.979,8.979,8.9222,8.9108,8.9373,8.9373,8.9525,8.979,8.979,8.979,8.979,8.979,8.979,8.979,8.979,8.979,8.979,8.979,8.998,9.0169,8.998,8.998,9.0169,8.998,8.979,8.979,8.979,8.979,8.9828,8.979,8.979,8.979,8.979,8.979,8.979,8.979,8.979,8.979,8.979,8.979,8.979,8.979,9.0055,9.0548,9.0624,9.0851,9.1306,9.1382,9.1534,9.1799,9.1875,9.1988,9.2329,9.2797,9.3163,9.3327,9.3843,9.4194,9.4178,9.3739,9.3577,9.4213,9.4489,9.4777,9.5248,9.5531,9.5976,9.68,9.7517,9.8159,9.8477,9.8624,9.874,9.908,9.9583,9.9996,10.0419,10.1382,10.2242,10.27,10.356,10.4177,10.3716,10.3273,10.3607,10.4102,10.4744,10.5216,10.5952,10.6688,10.6619,10.6684,10.6691,10.6773,10.6658,10.6946,10.7172,10.774,10.773,10.7615,10.8346,10.7916,10.7942,8.9297,8.9752,8.979,8.979,8.979,8.979,8.979,8.979,8.979,8.979,8.979,8.979,8.979,8.979,8.979,8.979,8.979,8.979,8.979,8.979,8.979,8.979,8.979,8.979,8.979,8.979,8.979,8.9942,9.0207,9.0207,9.0359,9.0624,9.0624,9.0586,9.0586,9.0624,9.0624,9.0586,9.0586,9.0624,9.0624,9.0586,9.0624,9.0586,9.0624,9.0321,8.9828,8.979,8.9942,9.0169,9.0207,9.0359,9.0586,9.0624,9.0851,9.142,9.1508,9.1685,9.2178,9.2292,9.2405,9.2721,9.2797,9.2847,9.3163,9.3841,9.4263,9.4571,9.5014,9.5625,9.5838,9.5326,9.5138,9.5806,9.6191,9.6565,9.6986,9.7271,9.7695,9.8254,9.8792,9.9312,9.9779,9.9843,10.0011,10.014,10.08,10.1198,10.1595,10.2337,10.3374,10.3858,10.4525,10.514,10.5278,10.5288,10.5054,10.5424,10.5884,10.6095,10.6357,10.6952,10.7343,10.7338,10.7447,10.7564,10.7803,10.8111,10.8663,10.9353,10.9078,10.8715,10.9152,10.9427,10.9344,8.9828,8.9866,8.9828,8.9866,8.979,8.979,8.979,8.979,8.979,8.979,8.979,8.979,8.979,8.979,8.979,8.979,8.979,8.9866,8.9866,8.979,8.979,8.979,8.979,8.9904,9.0017,9.0055,8.9904,9.0359,9.1041,9.1117,9.1458,9.2064,9.2064,9.1988,9.2216,9.214,9.2254,9.2216,9.2216,9.2292,9.2292,9.2254,9.2178,9.2216,9.214,9.142,9.0017,8.9942,9.0359,9.1003,9.1117,9.1496,9.1988,9.2064,9.2216,9.2254,9.2329,9.2342,9.2405,9.2481,9.2949,9.3492,9.3731,9.4132,9.4684,9.5238,9.5573,9.5759,9.6019,9.6527,9.7299,9.747,9.7392,9.7457,9.7636,9.823,9.8817,9.9118,9.9218,9.9561,9.9813,10.0177,10.1016,10.1414,10.1669,10.2175,10.2534,10.2651,10.2785,10.314,10.3247,10.3961,10.5056,10.5991,10.6614,10.7078,10.6914,10.6862,10.729,10.7637,10.7752,10.8204,10.8521,10.863,10.8827,10.8983,10.9247,10.9537,10.9765,11.018,10.9882,10.9999,11.0388,11.0687,11.0373,9.1192,9.07,9.07,9.0321,8.9828,8.979,8.979,8.979,8.979,8.979,8.979,8.979,8.979,8.979,8.979,8.979,8.9828,9.0359,9.0396,8.9904,8.9828,8.9828,8.9942,9.0434,9.1003,9.142,9.1496,9.1647,9.1875,9.1913,9.2102,9.2254,9.2329,9.2292,9.2443,9.2873,9.3201,9.3239,9.3783,9.401,9.3959,9.3467,9.3201,9.3125,9.2645,9.1988,9.1571,9.1534,9.1647,9.1913,9.1913,9.2026,9.2254,9.2292,9.2557,9.3088,9.3163,9.3479,9.3934,9.3972,9.4099,9.454,9.4803,9.508,9.544,9.5886,9.6394,9.6879,9.7121,9.7541,9.8486,9.9373,9.9422,9.8535,9.9217,9.9927,10.045,10.104,10.12,10.0984,10.1314,10.1812,10.223,10.264,10.3142,10.3454,10.3926,10.4272,10.4389,10.4627,10.529,10.5761,10.6498,10.677,10.7242,10.7632,10.7749,10.7783,10.8173,10.8602,10.8836,10.9299,10.9645,10.9967,11.0177,11.0375,11.07,11.0877,11.1044,11.1438,11.1655,11.1831,11.2035,11.1826,11.148,9.1988,9.1571,9.1534,9.123,9.0738,9.0738,9.0738,9.0738,9.0738,9.0738,9.0738,9.0738,9.0738,9.0738,9.0738,9.0738,9.0775,9.1306,9.123,9.0775,9.0738,9.0738,9.0775,9.123,9.1761,9.2178,9.2292,9.2481,9.2784,9.2784,9.2936,9.3201,9.3542,9.377,9.3808,9.4528,9.4983,9.5058,9.5475,9.5741,9.5627,9.521,9.4945,9.4907,9.4452,9.4035,9.377,9.3732,9.3391,9.2974,9.3024,9.3201,9.3239,9.3277,9.3467,9.3896,9.4086,9.4352,9.4807,9.4819,9.5044,9.528,9.5795,9.6211,9.648,9.6952,9.777,9.8201,9.8479,9.9048,10.0242,10.1007,10.1323,10.1362,10.1627,10.2077,10.2479,10.3114,10.3325,10.3095,10.3294,10.3493,10.3727,10.3922,10.4389,10.4467,10.4857,10.5208,10.529,10.5562,10.603,10.6424,10.6657,10.7086,10.7671,10.8099,10.8485,10.868,10.8875,10.9225,10.9459,11.0238,11.0758,11.1264,11.1597,11.1631,11.1895,11.1958,11.2094,11.2689,11.2888,11.2732,11.2533,11.2611,11.2376,9.2405,9.2367,9.2367,9.2292,9.2178,9.214,9.2102,9.2216,9.2178,9.214,9.214,9.2064,9.214,9.2216,9.2026,9.2026,9.2254,9.2329,9.2367,9.2329,9.2367,9.2405,9.2292,9.2329,9.2519,9.2633,9.2633,9.2974,9.3631,9.3808,9.4124,9.4755,9.5513,9.6069,9.6069,9.6902,9.7168,9.7143,9.7333,9.7433,9.7395,9.7281,9.7244,9.7219,9.6978,9.6599,9.5993,9.5728,9.5134,9.401,9.4275,9.4541,9.4692,9.4806,9.4654,9.4692,9.4883,9.4895,9.5021,9.5305,9.5551,9.5884,9.6789,9.741,9.7782,9.8615,9.9341,9.9669,9.9931,10.069,10.1976,10.2728,10.3426,10.4849,10.4387,10.436,10.5087,10.5169,10.4974,10.4978,10.513,10.513,10.4974,10.513,10.5251,10.5328,10.5445,10.5679,10.5679,10.5991,10.5913,10.6225,10.6657,10.7125,10.7632,10.7982,10.8528,10.981,10.9927,11.0083,11.0355,11.1096,11.1719,11.2265,11.2537,11.2693,11.2771,11.2654,11.2654,11.281,11.2888,11.2888,11.2888,11.2888,11.2888,9.382,9.3277,9.3239,9.2898,9.2329,9.2292,9.2329,9.2292,9.2329,9.2405,9.2329,9.2292,9.2367,9.2292,9.2329,9.2292,9.2519,9.3024,9.3252,9.3353,9.3883,9.3732,9.3353,9.329,9.3555,9.401,9.4048,9.4262,9.4541,9.5096,9.5513,9.5779,9.6561,9.6978,9.7092,9.7812,9.8242,9.8356,9.8873,9.9076,9.9,9.8494,9.8267,9.8191,9.766,9.7281,9.6902,9.641,9.5627,9.4654,9.4654,9.4806,9.4807,9.4819,9.4845,9.4883,9.4983,9.5071,9.5257,9.5963,9.6567,9.6876,9.8033,9.889,9.9054,9.9604,10.0258,10.0708,10.1026,10.1471,10.2558,10.3766,10.5212,10.6653,10.6225,10.5839,10.6069,10.6151,10.5952,10.5367,10.529,10.5328,10.5484,10.5796,10.6147,10.6264,10.6575,10.6926,10.677,10.6809,10.6887,10.6459,10.6657,10.7086,10.7515,10.7865,10.8801,11.0628,11.1096,11.1135,11.1446,11.1914,11.2382,11.281,11.2732,11.2849,11.2849,11.281,11.2888,11.2888,11.2888,11.2888,11.2888,11.2888,11.2888,9.4541,9.4124,9.4124,9.3808,9.3353,9.3366,9.3366,9.3353,9.3366,9.3353,9.3366,9.3353,9.3353,9.3366,9.3353,9.3353,9.3429,9.3858,9.4086,9.4162,9.4541,9.4465,9.4162,9.4124,9.4351,9.4806,9.5172,9.5324,9.5475,9.6196,9.6561,9.6751,9.7433,9.7825,9.7901,9.8659,9.9114,9.919,9.9569,9.9796,9.9758,9.9379,9.9152,9.9038,9.8583,9.8229,9.7812,9.7067,9.6261,9.5654,9.526,9.5043,9.521,9.5222,9.5268,9.5322,9.5762,9.6063,9.6288,9.7222,9.7949,9.836,9.9391,10.0035,10.0397,10.0799,10.1471,10.1779,10.1899,10.2324,10.3224,10.4705,10.6264,10.7355,10.7359,10.7047,10.7047,10.7047,10.6852,10.6459,10.6303,10.6303,10.6264,10.6731,10.6926,10.7125,10.7359,10.7593,10.7667,10.7783,10.7632,10.7047,10.7203,10.7822,10.8485,10.8918,10.9502,11.1213,11.1914,11.1992,11.2148,11.2498,11.2693,11.2888,11.2888,11.2888,11.2888,11.2888,11.2888,11.2888,11.2888,11.2888,11.2888,11.2888,11.2888,9.4806,9.4806,9.4806,9.4806,9.473,9.4768,9.4616,9.473,9.4616,9.4654,9.4654,9.473,9.4541,9.4806,9.4465,9.4692,9.4692,9.4616,9.4831,9.492,9.5071,9.5033,9.5223,9.5021,9.4983,9.5172,9.5854,9.6145,9.641,9.7054,9.7395,9.7622,9.8318,9.8697,9.8811,9.9417,9.9758,9.972,9.972,9.9796,9.9796,9.972,9.9645,9.9607,9.9607,9.9241,9.875,9.8109,9.7565,9.7146,9.6146,9.5959,9.611,9.6124,9.6193,9.6481,9.7113,9.7594,9.7834,9.8617,9.938,9.9757,10.0495,10.1165,10.15,10.1969,10.2367,10.2441,10.2601,10.2987,10.4039,10.5523,10.6696,10.7554,10.7744,10.7783,10.7788,10.7788,10.7788,10.7788,10.7744,10.7783,10.7788,10.7788,10.7749,10.7437,10.771,10.7749,10.7788,10.7783,10.7632,10.7281,10.7826,10.8719,10.9459,11.016,11.0823,11.1797,11.2343,11.2576,11.2576,11.2771,11.281,11.2888,11.2888,11.2888,11.2888,11.2888,11.2888,11.2888,11.2888,11.2888,11.2888,11.2888,11.2888,9.4806,9.4806,9.4806,9.4806,9.4806,9.4806,9.4806,9.4806,9.4806,9.4806,9.4806,9.4806,9.4806,9.4806,9.4844,9.4806,9.4882,9.4958,9.5134,9.5803,9.5816,9.6233,9.6461,9.6158,9.5854,9.6044,9.6637,9.7016,9.7244,9.785,9.8318,9.8432,9.9,9.9531,9.9569,9.9645,9.9796,9.9796,9.9796,9.9796,9.9796,9.981,9.981,9.9823,9.9837,9.9815,9.9796,9.9841,10.0038,9.9772,9.8675,9.7891,9.8071,9.8005,9.804,9.8215,9.8389,9.8639,9.8872,9.9829,10.057,10.0801,10.1521,10.2287,10.2312,10.2445,10.2601,10.2601,10.264,10.3259,10.4662,10.5835,10.6813,10.7554,10.7788,10.7788,10.7788,10.7788,10.7788,10.7788,10.7788,10.7788,10.7788,10.7788,10.7788,10.7788,10.7788,10.7788,10.7788,10.7788,10.7632,10.7398,10.8021,10.8797,10.9342,11.0121,11.1018,11.1719,11.2304,11.2849,11.2849,11.2888,11.2888,11.2888,11.2888,11.2888,11.2888,11.2888,11.2888,11.2888,11.2888,11.2888,11.2888,11.2888,11.2888,9.4806,9.4806,9.4806,9.4806,9.4806,9.4806,9.4806,9.4806,9.4806,9.4806,9.4806,9.4806,9.4806,9.4844,9.521,9.5437,9.5513,9.5816,9.6233,9.6599,9.6675,9.6902,9.7281,9.7281,9.7143,9.6902,9.7522,9.7901,9.8129,9.8659,9.9152,9.9152,9.9607,9.972,9.9796,9.9796,9.9796,9.9796,9.9796,9.9796,9.9796,9.9864,9.9944,10.0024,10.0152,10.0413,10.0927,10.129,10.1701,10.1843,10.1409,10.0761,10.0178,9.9655,9.9606,10.0333,10.0089,10.0548,10.1144,10.1506,10.1871,10.2217,10.2552,10.2542,10.2601,10.2601,10.2601,10.2601,10.2753,10.3298,10.5017,10.5991,10.6852,10.7554,10.7788,10.7788,10.7788,10.7788,10.7788,10.7788,10.7788,10.7788,10.7788,10.7788,10.7788,10.7788,10.7788,10.7788,10.7788,10.7788,10.7671,10.7671,10.8173,10.868,10.9147,10.9888,11.0823,11.1446,11.1914,11.2498,11.281,11.2849,11.2888,11.2888,11.2888,11.2888,11.2888,11.2888,11.2888,11.2888,11.2888,11.2888,11.2888,11.2888,11.2888,9.4806,9.4806,9.4806,9.4806,9.4806,9.4806,9.4819,9.4832,9.4832,9.4844,9.492,9.4958,9.5173,9.5223,9.5969,9.6297,9.6461,9.6827,9.7168,9.7471,9.7522,9.7698,9.7964,9.8356,9.8394,9.7825,9.8432,9.8773,9.8962,9.9417,9.9645,9.9758,9.9758,9.9796,9.9796,9.9796,9.9796,9.9796,9.9837,9.985,9.9864,9.9932,10.0024,9.9936,10.0677,10.0875,10.1458,10.2144,10.2957,10.3232,10.4,10.3737,10.2767,10.1623,10.0989,10.263,10.1988,10.2085,10.259,10.2802,10.278,10.361,10.3064,10.2636,10.2601,10.2601,10.2601,10.2753,10.2987,10.377,10.5095,10.6264,10.7008,10.7593,10.7788,10.7788,10.7788,10.7788,10.7788,10.7788,10.7788,10.7788,10.7788,10.7788,10.7788,10.7788,10.7788,10.7788,10.7788,10.7788,10.771,10.7904,10.8368,10.903,10.9537,10.9654,11.0589,11.0901,11.1407,11.1797,11.2304,11.2382,11.2382,11.281,11.2888,11.2888,11.2888,11.2888,11.2888,11.2888,11.2888,11.2888,11.2888,11.2888,11.2888,9.4806,9.4806,9.4806,9.4806,9.4806,9.4806,9.487,9.4958,9.4971,9.4971,9.5097,9.5792,9.6009,9.6173,9.6856,9.7185,9.7309,9.76,9.7852,9.8307,9.8434,9.861,9.9141,9.9293,9.9393,9.9455,9.9493,9.9493,9.9531,9.9758,9.981,9.9796,9.981,9.981,9.9823,9.9796,9.9837,9.9864,9.993,9.997,10.001,10.0025,10.0024,9.9803,10.0974,10.1265,10.1202,10.2786,10.3956,10.3492,10.3783,10.42,10.4287,10.4057,10.3876,10.3573,10.327,10.3083,10.3181,10.2796,10.2679,10.2757,10.2679,10.264,10.2601,10.264,10.2679,10.3107,10.3922,10.4939,10.5169,10.6575,10.7433,10.7788,10.7788,10.7788,10.7788,10.7788,10.7788,10.7788,10.7788,10.7788,10.7788,10.7788,10.7788,10.7788,10.7788,10.7788,10.7788,10.7788,10.7788,10.8099,10.8524,10.9303,11.0044,10.9966,11.0238,11.0277,11.0589,11.0745,11.1213,11.1563,11.1836,11.2576,11.2888,11.2888,11.2888,11.2888,11.2888,11.2888,11.2888,11.2888,11.2888,11.2888,11.2888,9.4806,9.4806,9.4806,9.4844,9.4895,9.4908,9.4971,9.5082,9.5094,9.5361,9.5803,9.6296,9.669,9.7097,9.7883,9.8402,9.8706,9.8807,9.9073,9.9415,9.9453,9.9514,9.9879,9.9904,9.985,9.9772,9.9796,9.9796,9.9796,9.9796,9.9837,9.9904,9.9904,9.9944,10.001,9.9985,10.001,10.0036,10.0075,10.0126,10.0076,10.0054,10.003,10.0962,10.1538,10.2025,10.2794,10.3619,10.4419,10.3958,10.4265,10.4498,10.4623,10.4857,10.4974,10.4467,10.3766,10.3571,10.3571,10.3298,10.2792,10.3181,10.287,10.264,10.2601,10.264,10.2796,10.3536,10.4783,10.5874,10.5952,10.7004,10.7667,10.7788,10.7788,10.7749,10.7788,10.7788,10.7788,10.7788,10.7788,10.7788,10.7788,10.7788,10.7788,10.7788,10.7788,10.7788,10.7788,10.7788,10.7788,10.7939,10.829,10.8602,10.9264,10.9342,10.9537,10.9615,10.9892,11.0044,11.0628,11.1213,11.1953,11.2693,11.2849,11.2888,11.2888,11.2888,11.2888,11.2888,11.2888,11.2888,11.2888,11.2888,11.2888,9.4857,9.4883,9.4883,9.4946,9.5021,9.5033,9.5107,9.5241,9.5455,9.5912,9.6522,9.6965,9.7498,9.8058,9.8807,9.9568,10.0177,10.0139,10.0088,10.0076,10.0076,10.0114,10.0075,10.001,9.9957,9.9877,9.985,9.9837,9.985,9.985,9.993,10.0023,10.0062,10.0062,10.0139,10.0139,10.0177,10.0228,10.0253,10.029,10.0301,10.0139,10.0548,10.2201,10.2462,10.3235,10.3895,10.4722,10.4625,10.4213,10.419,10.4311,10.3883,10.4272,10.4662,10.4467,10.3454,10.377,10.3805,10.3493,10.2831,10.3259,10.2948,10.2675,10.2601,10.2679,10.2874,10.377,10.4822,10.5679,10.564,10.6653,10.7199,10.7476,10.7476,10.7593,10.7749,10.7788,10.7788,10.7788,10.7788,10.7788,10.7788,10.7788,10.7788,10.7788,10.7788,10.7788,10.7788,10.7788,10.7788,10.7788,10.79,10.79,10.8134,10.8251,10.8524,10.8797,10.9229,10.958,11.0355,11.1174,11.1914,11.2537,11.2849,11.2888,11.2888,11.2888,11.2888,11.2888,11.2888,11.2888,11.2888,11.2888,11.2888,9.5045,9.5143,9.5143,9.5155,9.5167,9.5167,9.5277,9.5497,9.6157,9.655,9.7007,9.8246,9.8824,9.9084,9.9631,10.0088,10.0202,10.0215,10.0227,10.024,10.0227,10.0215,10.0139,10.0024,10.0049,9.9996,9.9983,9.9945,9.9996,9.9996,10.0062,10.0126,10.0203,10.019,10.0227,10.024,10.0177,10.0202,10.0352,10.0623,10.0822,10.0615,10.1098,10.2137,10.3309,10.4083,10.4083,10.4701,10.4736,10.3883,10.322,10.2913,10.2796,10.2835,10.2913,10.3107,10.3263,10.3497,10.3146,10.2796,10.2636,10.2909,10.2757,10.264,10.2753,10.2874,10.2951,10.2718,10.3848,10.4627,10.4978,10.5251,10.5874,10.6541,10.7047,10.732,10.7593,10.7788,10.7788,10.7788,10.7788,10.7788,10.7788,10.7788,10.7788,10.7788,10.7788,10.7749,10.771,10.7632,10.7788,10.7788,10.7554,10.7515,10.7788,10.7788,10.7904,10.8138,10.8723,10.9307,11.0121,11.0979,11.1563,11.2109,11.2537,11.2888,11.2888,11.2888,11.2888,11.2888,11.2888,11.2888,11.2888,11.2888,11.2888,9.5203,9.5179,9.5179,9.5227,9.5324,9.5286,9.5673,9.6223,9.6627,9.7353,9.8204,9.8976,9.9552,9.9904,10.0323,10.0399,10.0399,10.0438,10.0438,10.0387,10.0387,10.0389,10.029,10.0265,10.0215,10.0101,10.0101,10.019,10.019,10.0177,10.0165,10.0303,10.0328,10.0377,10.0401,10.0438,10.0438,10.066,10.107,10.1325,10.1326,10.1757,10.2468,10.3341,10.4433,10.4639,10.4683,10.4763,10.4467,10.3493,10.2718,10.264,10.2601,10.264,10.264,10.264,10.2909,10.2909,10.2679,10.2601,10.264,10.2796,10.3029,10.3376,10.3415,10.3688,10.3688,10.3415,10.4155,10.4744,10.5134,10.5679,10.6342,10.6852,10.6969,10.7281,10.7593,10.771,10.7788,10.7788,10.7788,10.7788,10.7671,10.7359,10.7398,10.7593,10.7515,10.7437,10.732,10.7203,10.7437,10.7788,10.7476,10.7125,10.7554,10.7788,10.7788,10.8095,10.8758,10.9346,11.0009,11.0745,11.1563,11.2148,11.2654,11.2888,11.2888,11.2888,11.2888,11.2888,11.2888,11.2888,11.2888,11.2888,11.2888,9.5406,9.5286,9.5286,9.5371,9.549,9.5692,9.6196,9.6848,9.7421,9.8273,9.919,9.961,10.0069,10.0489,10.0542,10.0569,10.0592,10.0604,10.0604,10.0604,10.0592,10.0533,10.0462,10.0413,10.034,10.0227,10.0265,10.0303,10.034,10.0365,10.0377,10.045,10.0462,10.0498,10.0569,10.0619,10.0645,10.1074,10.14,10.1576,10.1795,10.2552,10.3611,10.4531,10.5242,10.5523,10.5484,10.5247,10.4389,10.338,10.2757,10.2601,10.2601,10.2601,10.2601,10.2601,10.2714,10.2714,10.264,10.264,10.2718,10.3107,10.3653,10.4233,10.4272,10.474,10.4896,10.4194,10.4311,10.5173,10.5874,10.6034,10.642,10.6809,10.7238,10.7511,10.7744,10.7783,10.7788,10.7788,10.7788,10.7788,10.7515,10.693,10.693,10.7281,10.7281,10.7203,10.7125,10.7086,10.7359,10.7783,10.7593,10.7281,10.7515,10.7788,10.7788,10.8056,10.8719,10.942,11.0121,11.1135,11.2148,11.2615,11.2888,11.2888,11.2888,11.2888,11.2888,11.2888,11.2888,11.2888,11.2888,11.2888,11.2888,9.5587,9.5576,9.5576,9.5576,9.5664,9.6466,9.681,9.7127,9.8541,9.919,9.9572,10.0107,10.0451,10.0604,10.0604,10.0604,10.0604,10.0604,10.0604,10.0604,10.0604,10.0592,10.0533,10.0474,10.0413,10.0401,10.0401,10.0401,10.0438,10.051,10.0545,10.058,10.0557,10.058,10.0677,10.0799,10.1331,10.1625,10.1729,10.1911,10.2397,10.3088,10.3755,10.5018,10.5901,10.6424,10.6346,10.5523,10.4588,10.3497,10.2913,10.2601,10.2601,10.2601,10.2601,10.2601,10.2601,10.2601,10.2601,10.2679,10.3068,10.3766,10.4467,10.4939,10.4896,10.4233,10.4311,10.4623,10.4311,10.4584,10.5056,10.5406,10.6147,10.6774,10.732,10.7476,10.7671,10.7783,10.7788,10.7788,10.7788,10.7788,10.771,10.7203,10.7008,10.7359,10.7554,10.7476,10.7437,10.7398,10.7515,10.7749,10.771,10.7632,10.771,10.7788,10.7788,10.8173,10.8797,10.9498,11.0199,11.1329,11.2304,11.2732,11.2888,11.2888,11.2888,11.2888,11.2888,11.2888,11.2888,11.2888,11.2888,11.2888,11.2888,9.5609,9.5609,9.5609,9.5609,9.5686,9.6515,9.7165,9.7776,9.8884,9.9725,10.0145,10.0451,10.0604,10.0604,10.0604,10.0604,10.0604,10.0604,10.0604,10.0604,10.0604,10.0604,10.0569,10.0557,10.0521,10.0521,10.0521,10.0521,10.0545,10.058,10.0592,10.0604,10.0703,10.0604,10.0727,10.1373,10.2166,10.2808,10.2961,10.3289,10.3186,10.4497,10.5056,10.5134,10.6034,10.6112,10.564,10.4857,10.4,10.3263,10.2796,10.2679,10.2601,10.2601,10.2601,10.2601,10.2601,10.2601,10.264,10.2714,10.322,10.4467,10.5013,10.5208,10.513,10.4389,10.3766,10.3731,10.3965,10.4389,10.5091,10.5757,10.642,10.7008,10.7359,10.7476,10.7593,10.7749,10.7788,10.7788,10.7788,10.7788,10.771,10.7554,10.7437,10.7437,10.7632,10.7788,10.7671,10.7515,10.7515,10.7628,10.7593,10.7671,10.7749,10.7749,10.7826,10.8329,10.8952,10.9693,11.0433,11.1057,11.1953,11.246,11.281,11.2732,11.2732,11.2849,11.2888,11.2888,11.2888,11.2888,11.2888,11.2888,11.2888,9.5609,9.5637,9.5904,9.5981,9.6095,9.6898,9.7727,9.8541,9.9419,10.0031,10.0604,10.0604,10.0604,10.0604,10.0604,10.0604,10.0604,10.0604,10.0604,10.0604,10.0604,10.0604,10.0604,10.0592,10.058,10.0604,10.0604,10.0592,10.0592,10.0604,10.0795,10.0983,10.1086,10.1169,10.1293,10.2191,10.3252,10.4099,10.4054,10.4541,10.4299,10.5184,10.603,10.5601,10.6229,10.5991,10.5328,10.4506,10.361,10.2987,10.264,10.2601,10.2601,10.2601,10.2601,10.2601,10.2601,10.2601,10.264,10.3025,10.3493,10.4428,10.5052,10.513,10.4974,10.4432,10.3926,10.4276,10.4393,10.4701,10.5675,10.6614,10.7004,10.7554,10.7593,10.771,10.771,10.7788,10.7788,10.7788,10.7788,10.7788,10.7749,10.7671,10.7632,10.7277,10.6653,10.7082,10.7671,10.7437,10.7164,10.732,10.7515,10.7593,10.7671,10.8021,10.8329,10.868,10.9303,11.0005,11.0706,11.1252,11.1641,11.2031,11.2304,11.2498,11.246,11.2304,11.2537,11.2849,11.2888,11.2888,11.2888,11.2888,11.2888,9.5609,9.5713,9.6477,9.6821,9.6974,9.7727,9.8541,9.9266,10.0107,10.0527,10.0604,10.0604,10.0604,10.0604,10.0604,10.0604,10.0604,10.0604,10.0604,10.0604,10.0604,10.0604,10.0604,10.0604,10.0604,10.0604,10.0604,10.0604,10.0604,10.0795,10.1127,10.1775,10.2129,10.2404,10.2096,10.3067,10.4251,10.5108,10.4241,10.4598,10.5377,10.5567,10.5667,10.5952,10.6151,10.5835,10.4978,10.4117,10.3259,10.2757,10.2601,10.2601,10.2601,10.2601,10.2601,10.2601,10.2601,10.2601,10.264,10.3376,10.3766,10.4078,10.4662,10.5013,10.4974,10.4584,10.4432,10.4939,10.5406,10.5952,10.6887,10.7632,10.771,10.7744,10.7783,10.7788,10.7788,10.7788,10.7788,10.7788,10.7788,10.7788,10.7788,10.7788,10.7788,10.7238,10.6069,10.6264,10.7359,10.7554,10.7281,10.732,10.7554,10.7632,10.7865,10.8485,10.8875,10.9186,10.9537,11.0121,11.0784,11.1407,11.1641,11.1758,11.1836,11.1992,11.1836,11.1641,11.2148,11.2693,11.2849,11.2888,11.2888,11.2888,11.2888,9.5609,9.5686,9.6515,9.7203,9.7765,9.8617,9.9152,9.9496,10.0183,10.0604,10.0604,10.0604,10.0604,10.0604,10.0604,10.0604,10.0604,10.0604,10.0604,10.0604,10.0604,10.0604,10.0604,10.0604,10.0604,10.0604,10.0604,10.0604,10.0604,10.1062,10.1471,10.2058,10.3378,10.4099,10.4392,10.5014,10.5711,10.6194,10.5538,10.512,10.6098,10.5685,10.5406,10.5757,10.5757,10.529,10.4467,10.3614,10.299,10.264,10.2601,10.2601,10.2601,10.2601,10.2601,10.2601,10.2601,10.2601,10.264,10.2948,10.3298,10.3766,10.4194,10.4662,10.4974,10.435,10.474,10.5484,10.5952,10.6381,10.6774,10.7476,10.771,10.7749,10.7788,10.7788,10.7788,10.7788,10.7788,10.7788,10.7788,10.7749,10.771,10.7476,10.7433,10.7476,10.6498,10.6692,10.7632,10.7749,10.7593,10.7632,10.7749,10.7749,10.7978,10.8485,10.8875,10.9108,10.9459,10.9927,11.0628,11.1329,11.1407,11.1329,11.1407,11.1446,11.129,11.129,11.2031,11.2498,11.2732,11.2888,11.2888,11.2888,11.2888,9.5789,9.6133,9.6974,9.7967,9.8923,9.9266,9.9534,9.9878,10.0375,10.0604,10.0604,10.0604,10.0604,10.0604,10.0604,10.0604,10.0604,10.0604,10.0604,10.0604,10.0604,10.0604,10.0604,10.0604,10.0604,10.0604,10.0642,10.068,10.1139,10.1624,10.2451,10.3514,10.4686,10.56,10.6103,10.6465,10.6669,10.6872,10.6321,10.6052,10.6485,10.6264,10.5718,10.564,10.5406,10.4818,10.3922,10.3185,10.2601,10.2601,10.2601,10.2601,10.2601,10.2601,10.2601,10.2601,10.2601,10.2601,10.264,10.264,10.3103,10.3805,10.3883,10.4155,10.4701,10.4506,10.4978,10.564,10.6151,10.6541,10.6891,10.7554,10.7593,10.7628,10.771,10.771,10.7749,10.7749,10.7788,10.7788,10.7788,10.771,10.7437,10.7242,10.7043,10.7047,10.7008,10.7398,10.7628,10.7554,10.7593,10.7671,10.771,10.7749,10.7943,10.8372,10.8723,10.9035,10.9381,10.9732,11.0277,11.0901,11.0901,11.0862,11.0784,11.0745,11.0745,11.0979,11.1797,11.2421,11.281,11.2888,11.2888,11.2888,11.2888,9.6095,9.6974,9.7765,9.9026,10.0298,9.9878,9.9992,10.0566,10.0604,10.0604,10.0604,10.0604,10.0604,10.0604,10.0604,10.0604,10.0604,10.0604,10.0604,10.0604,10.0604,10.0604,10.0604,10.0604,10.0604,10.0604,10.0795,10.1203,10.1826,10.2463,10.3552,10.5057,10.605,10.6782,10.7155,10.7114,10.7236,10.7251,10.6823,10.6774,10.7164,10.6774,10.6229,10.5913,10.5484,10.4662,10.3809,10.299,10.2679,10.2601,10.2601,10.2601,10.2601,10.2601,10.2601,10.2601,10.2601,10.2601,10.2601,10.2601,10.2874,10.3536,10.3965,10.3965,10.4354,10.4896,10.5328,10.5796,10.6307,10.6813,10.7277,10.7316,10.7316,10.7437,10.7515,10.7554,10.7632,10.7671,10.7749,10.7788,10.7788,10.7593,10.6969,10.6657,10.6653,10.6536,10.6579,10.6852,10.7047,10.6969,10.7086,10.7437,10.7515,10.7671,10.7943,10.8216,10.8645,10.8996,10.9112,10.9463,11.0005,11.0355,11.0316,11.0238,11.0083,11.0083,11.0355,11.094,11.1719,11.2265,11.281,11.2888,11.2888,11.2888,11.2888,9.6095,9.6974,9.7765,9.9064,10.0527,10.1024,10.0986,10.0642,10.0604,10.0604,10.0604,10.0604,10.0604,10.0604,10.0604,10.0604,10.0604,10.0604,10.0604,10.0604,10.0604,10.0604,10.0604,10.0604,10.0604,10.0871,10.1177,10.1697,10.2287,10.307,10.481,10.6505,10.6857,10.7355,10.7325,10.7109,10.736,10.7338,10.6852,10.7164,10.7398,10.7008,10.6424,10.5718,10.5445,10.4506,10.3298,10.2835,10.2601,10.2601,10.2601,10.2601,10.2601,10.2601,10.2601,10.2601,10.2601,10.2601,10.2601,10.2601,10.2796,10.338,10.4039,10.5173,10.5445,10.5484,10.564,10.5952,10.5952,10.6225,10.642,10.6498,10.6575,10.6692,10.6969,10.732,10.7437,10.7632,10.771,10.7788,10.7788,10.7398,10.6735,10.6346,10.6307,10.6069,10.5991,10.6151,10.6346,10.6264,10.6618,10.7008,10.7164,10.7281,10.7632,10.7982,10.8489,10.8918,10.8957,10.9151,10.9732,10.9927,10.9732,10.9576,10.942,10.9771,11.0238,11.0901,11.1602,11.2343,11.2888,11.2888,11.2888,11.2888,11.2888,9.6527,9.7891,9.8426,9.9572,10.11,10.2056,10.1788,10.0757,10.0604,10.0604,10.0604,10.0604,10.0604,10.0604,10.0604,10.0604,10.0604,10.0604,10.0604,10.0604,10.0604,10.0604,10.0604,10.068,10.0871,10.1177,10.1721,10.2326,10.3224,10.459,10.6268,10.7003,10.7222,10.722,10.7182,10.7152,10.7156,10.7043,10.693,10.7125,10.7203,10.7203,10.6381,10.5402,10.5208,10.4155,10.287,10.264,10.2601,10.2601,10.2601,10.2601,10.2601,10.2601,10.2601,10.2601,10.2601,10.2601,10.2601,10.2601,10.2792,10.322,10.4078,10.4861,10.5601,10.5796,10.5796,10.5835,10.5484,10.529,10.5406,10.5523,10.5679,10.5835,10.642,10.7047,10.732,10.7554,10.7671,10.7788,10.7593,10.7242,10.6813,10.6346,10.5757,10.5212,10.4783,10.4627,10.5056,10.5367,10.5952,10.6618,10.6735,10.6852,10.732,10.7788,10.8138,10.8411,10.8372,10.8684,10.9342,10.9537,10.9381,10.9108,10.884,10.9381,11.0083,11.0745,11.1446,11.2265,11.2888,11.2888,11.2888,11.2888,11.2888,9.7214,9.9381,9.9698,10.068,10.1891,10.2743,10.217,10.068,10.0604,10.0604,10.0604,10.0604,10.0604,10.0604,10.0604,10.0604,10.0604,10.0604,10.0604,10.0604,10.0604,10.0642,10.0871,10.0795,10.1411,10.1809,10.2509,10.3513,10.4937,10.6053,10.6701,10.7234,10.7315,10.7169,10.6788,10.7121,10.7086,10.6735,10.6735,10.6891,10.7515,10.7511,10.6965,10.5484,10.4896,10.4272,10.3064,10.2601,10.2601,10.2601,10.2601,10.2601,10.2601,10.2601,10.2601,10.2601,10.2601,10.2601,10.2601,10.2601,10.299,10.338,10.3883,10.4233,10.4744,10.529,10.529,10.5056,10.4666,10.4623,10.4701,10.4744,10.4861,10.5445,10.6147,10.6692,10.7086,10.7398,10.7749,10.7788,10.771,10.7281,10.6264,10.5757,10.529,10.4467,10.3805,10.3536,10.3965,10.4549,10.529,10.6112,10.619,10.6459,10.7437,10.7788,10.7788,10.7904,10.7943,10.8021,10.8485,10.8758,10.8991,10.868,10.845,10.9264,11.0044,11.0589,11.1329,11.2421,11.2888,11.2888,11.2888,11.2771,11.2888,9.8235,9.966,10.2132,10.2782,10.2056,10.282,10.2209,10.0642,10.0604,10.0604,10.0604,10.0604,10.0604,10.0604,10.0604,10.0604,10.0604,10.0604,10.0604,10.0665,10.0665,10.114,10.1541,10.1694,10.2293,10.3178,10.4018,10.4907,10.6146,10.6892,10.7252,10.7607,10.7583,10.7273,10.6571,10.6969,10.6852,10.6541,10.6696,10.7047,10.7632,10.7047,10.6229,10.529,10.4662,10.3844,10.2909,10.2601,10.2601,10.2601,10.2601,10.2601,10.2601,10.2601,10.2601,10.2601,10.2601,10.2601,10.2601,10.2601,10.2796,10.3068,10.3341,10.3376,10.3649,10.4198,10.4354,10.4082,10.3926,10.3961,10.4,10.4004,10.4198,10.5017,10.5835,10.6303,10.6809,10.7281,10.771,10.7788,10.7788,10.7043,10.603,10.529,10.474,10.4039,10.3259,10.3029,10.3575,10.4155,10.4705,10.5406,10.5523,10.5991,10.7121,10.7788,10.7788,10.7788,10.7865,10.7826,10.7788,10.8095,10.8407,10.8177,10.8177,10.903,10.9771,11.0238,11.1096,11.2109,11.246,11.2304,11.246,11.246,11.2693,9.961,10.1341,10.3852,10.4004,10.2743,10.3011,10.2209,10.0795,10.0604,10.0604,10.0604,10.0604,10.0604,10.0604,10.0604,10.0604,10.0604,10.0604,10.0604,10.0665,10.1176,10.1679,10.2123,10.2711,10.3599,10.449,10.5473,10.6439,10.7138,10.7438,10.7622,10.7775,10.7749,10.7359,10.6657,10.6774,10.6813,10.6541,10.6813,10.732,10.771,10.693,10.6069,10.5212,10.435,10.3493,10.2909,10.2601,10.2601,10.2601,10.2601,10.2601,10.2601,10.2601,10.2601,10.2601,10.2601,10.2601,10.2601,10.2601,10.2601,10.2835,10.2913,10.2987,10.2948,10.3419,10.3458,10.3185,10.3146,10.3181,10.3415,10.3497,10.3848,10.451,10.5251,10.5835,10.6575,10.7281,10.7593,10.7788,10.7671,10.732,10.6303,10.5484,10.4861,10.4,10.3146,10.2718,10.322,10.4039,10.4545,10.5095,10.5484,10.6147,10.7355,10.7788,10.7788,10.7788,10.7788,10.7788,10.7788,10.7788,10.7826,10.7865,10.8138,10.884,10.9459,10.9927,11.0355,11.1135,11.1446,11.1563,11.1797,11.1992,11.2031,10.1227,10.3584,10.5074,10.473,10.3329,10.3202,10.2209,10.0757,10.0604,10.0604,10.0604,10.0604,10.0604,10.0604,10.0604,10.0604,10.0604,10.0604,10.0604,10.1198,10.1897,10.2615,10.328,10.3902,10.4772,10.5666,10.6647,10.7003,10.7355,10.7403,10.7442,10.7705,10.7554,10.7242,10.6969,10.7164,10.7398,10.693,10.7086,10.7632,10.7437,10.6848,10.5952,10.5095,10.4233,10.3415,10.2831,10.2601,10.2601,10.2601,10.2601,10.2601,10.2601,10.2601,10.2601,10.2601,10.2601,10.2601,10.2601,10.2601,10.2601,10.264,10.2601,10.2601,10.2601,10.264,10.264,10.264,10.2601,10.2757,10.299,10.3107,10.3497,10.4155,10.4861,10.5367,10.6186,10.6969,10.7203,10.7472,10.7398,10.7125,10.6618,10.5757,10.4939,10.4043,10.3419,10.3029,10.3029,10.4078,10.4857,10.5601,10.6264,10.7004,10.771,10.7788,10.7788,10.7788,10.7788,10.7788,10.7788,10.7788,10.7826,10.7865,10.8255,10.8684,10.9147,10.9615,11.0005,11.0355,11.0706,11.094,11.0901,11.1057,11.1057,10.2923,10.5227,10.5609,10.473,10.3317,10.3202,10.2209,10.0757,10.0604,10.0604,10.0604,10.0604,10.0604,10.0604,10.0604,10.0639,10.0681,10.0734,10.14,10.2094,10.2645,10.3582,10.4507,10.5108,10.588,10.666,10.7326,10.7587,10.752,10.7161,10.7164,10.7749,10.7047,10.6813,10.6813,10.7125,10.7476,10.7125,10.7281,10.7744,10.7238,10.6536,10.5601,10.4666,10.3692,10.3029,10.264,10.2601,10.2601,10.2601,10.2601,10.2601,10.2601,10.2601,10.2601,10.2601,10.2601,10.2601,10.2601,10.2601,10.2601,10.2601,10.2601,10.2601,10.2601,10.2601,10.264,10.264,10.2679,10.299,10.3107,10.2835,10.3068,10.4117,10.4974,10.5052,10.5484,10.5835,10.6069,10.6498,10.6774,10.6735,10.6774,10.5952,10.5212,10.4354,10.3575,10.3263,10.3688,10.4467,10.5251,10.5991,10.6809,10.7316,10.7788,10.7788,10.7788,10.7788,10.7788,10.7788,10.7788,10.7788,10.7826,10.7865,10.7982,10.8255,10.8762,10.9108,10.9459,10.9771,11.016,11.0394,11.0199,11.0083,11.0083]}]]